GFSWCAN_250_spd_000.txt.gz
Wind_Speed
89 83 78 70 66 60 57 52 47 40 37 32 27 23 17 12 11 9 6 7 13 21 27 32 36 39 47 46 41 38 35 39 45 45 40 37 35 34 37 41 42 44 43 43 45 46 50 52 54 55 56 57 59 60
92 87 82 75 70 66 60 58 54 46 41 38 35 28 24 20 14 12 12 9 8 10 19 23 25 29 32 43 44 42 41 38 36 34 39 45 44 40 38 40 44 46 45 47 50 52 54 56 58 60 60 60 62 62
94 91 87 80 75 70 65 62 59 53 47 43 40 35 28 26 22 17 15 14 13 12 14 16 20 25 27 28 28 31 33 38 32 33 30 36 43 41 39 41 43 47 46 48 51 54 56 58 60 61 62 62 61 60
93 93 90 84 80 75 71 69 64 58 53 48 45 42 36 31 28 27 22 20 18 17 16 17 16 17 18 22 27 29 29 29 28 27 28 29 33 39 42 44 46 47 51 54 57 55 53 54 53 54 52 50 51 55
94 95 93 89 85 80 77 72 70 65 59 54 51 48 44 39 35 33 31 28 25 22 20 19 20 20 20 20 20 21 21 24 26 28 28 27 28 29 26 26 29 28 33 37 39 40 42 44 44 46 50 52 55 59
96 97 96 94 90 87 81 76 75 71 66 61 57 53 51 47 44 40 36 35 32 30 27 26 25 24 24 24 23 23 23 24 25 25 26 27 28 28 28 30 26 32 35 37 41 43 45 47 49 50 54 57 60 65
95 99 99 96 94 91 87 83 79 75 72 68 64 60 56 55 52 48 43 39 36 35 33 31 28 28 28 26 25 24 24 25 23 26 28 30 33 33 35 37 33 39 41 42 44 46 48 51 55 58 59 63 68 72
97 102 102 100 98 95 91 89 84 80 77 75 70 66 63 60 58 56 53 48 44 39 35 35 36 35 34 33 32 32 31 29 29 30 32 32 37 41 45 43 45 47 48 50 53 54 56 58 61 65 69 71 74 77
98 98 103 102 101 98 94 92 90 84 81 79 77 74 71 68 65 63 59 56 53 48 45 43 40 39 38 39 41 42 41 39 39 40 40 41 44 52 50 54 54 55 57 58 60 62 64 67 70 73 75 78 82 85
98 98 102 104 104 102 99 97 95 90 85 83 82 80 78 76 73 69 66 64 60 57 55 54 52 50 48 47 46 46 46 46 47 48 48 49 53 57 58 60 60 61 63 65 67 70 74 77 79 81 84 86 89 92
94 95 98 104 105 106 104 101 99 97 91 87 84 86 85 82 79 76 73 69 65 64 64 65 63 61 59 57 56 54 53 53 53 55 57 59 64 65 66 65 66 67 68 71 76 80 82 85 87 88 90 93 97 100
95 93 97 99 104 105 106 107 103 100 95 94 92 91 89 88 85 81 76 73 73 74 74 75 74 70 68 67 66 64 63 61 60 63 64 67 71 72 72 72 73 76 78 82 85 88 88 90 93 94 98 100 103 104
94 92 95 96 99 102 104 106 109 105 102 102 97 93 93 92 89 84 81 80 81 81 80 78 78 77 77 75 74 74 73 71 72 71 73 75 76 77 78 79 81 84 87 90 91 93 95 97 99 100 103 104 106 108
88 90 93 95 97 97 101 106 107 110 108 106 105 101 98 90 88 86 85 88 89 86 84 84 83 83 82 83 82 82 81 81 81 83 83 83 83 83 85 88 90 92 94 96 98 100 99 101 103 105 106 109 112 115
83 87 91 92 95 99 100 102 107 109 110 113 111 108 100 96 95 93 93 91 90 90 90 89 88 88 87 86 86 86 87 87 88 89 88 87 86 88 89 91 92 94 95 97 98 100 103 105 107 109 112 116 119 123
84 84 89 90 96 99 101 102 105 108 113 113 112 110 107 106 102 100 99 98 96 94 92 92 92 91 90 90 90 91 93 96 95 94 93 93 93 93 94 96 98 99 101 101 103 106 109 111 114 117 120 123 126 128
86 86 86 89 97 101 104 105 105 107 113 112 108 109 109 112 111 108 105 103 102 100 101 98 96 95 95 95 94 97 98 98 99 98 97 97 99 101 101 101 103 105 106 108 111 113 116 117 120 123 125 127 129 131
81 86 87 88 93 102 107 108 107 106 107 104 106 110 111 113 113 113 111 109 109 109 107 106 105 104 104 105 105 106 107 105 104 103 102 104 106 106 107 109 110 111 112 114 116 118 120 123 126 128 128 130 130 128
77 79 83 88 90 95 103 112 110 104 102 101 101 102 106 110 113 115 116 116 114 112 110 110 111 110 112 114 116 116 113 110 109 110 112 114 114 114 116 116 117 118 119 121 123 125 127 128 129 129 131 130 128 122
75 78 80 83 87 93 96 103 111 109 106 103 102 104 104 106 107 109 111 112 112 113 115 116 115 115 116 119 119 117 115 115 116 118 118 119 120 121 123 123 124 125 126 127 128 129 130 131 129 127 123 121 119 116
74 78 78 82 87 89 93 96 100 100 101 101 102 101 103 105 106 107 106 105 105 107 111 115 117 121 121 119 117 116 119 119 118 119 121 123 124 125 127 128 130 130 128 127 125 123 121 121 118 116 116 115 113 110
74 76 80 81 82 86 88 91 91 91 92 93 96 99 102 104 106 106 103 101 101 106 110 110 110 107 109 113 116 117 117 116 116 116 117 118 119 120 120 119 119 119 117 116 116 114 114 113 113 110 106 103 101 99
71 76 78 79 79 81 83 85 89 87 88 89 89 89 90 91 94 97 98 99 103 111 109 109 108 107 108 108 107 106 106 107 108 109 109 108 107 106 108 110 111 108 107 107 107 107 105 102 100 98 96 95 94 93
67 72 73 76 79 81 82 83 85 85 84 85 84 84 84 86 89 92 93 94 99 101 100 98 99 99 99 101 101 100 99 100 102 103 102 101 100 100 101 99 97 97 96 95 95 94 93 92 91 90 90 88 85 84
59 63 65 68 72 76 79 83 86 85 85 86 86 87 88 88 88 87 85 89 94 93 91 90 89 88 87 88 89 89 89 90 91 90 88 88 88 89 89 89 89 88 87 87 87 87 86 86 86 85 83 82 80 79
49 53 58 61 66 71 76 82 83 83 85 86 86 85 85 85 86 82 84 89 89 88 87 85 83 81 81 81 83 85 85 84 83 83 83 83 83 83 83 84 85 84 84 84 83 82 81 80 79 78 76 74 73 71
45 52 55 58 61 65 70 75 78 78 79 80 81 84 84 83 82 81 83 82 82 81 81 81 80 79 78 77 76 76 76 76 77 76 75 76 76 76 77 78 79 78 77 76 75 74 72 72 71 70 69 67 64 62
37 41 43 46 49 53 57 60 64 65 66 68 71 73 74 74 76 76 74 73 74 74 75 76 77 76 75 74 73 72 70 69 68 68 69 70 69 69 70 69 68 67 66 65 65 65 66 66 64 62 61 60 58 56
36 39 42 44 44 45 48 50 52 54 57 58 59 60 62 63 64 64 66 68 70 73 74 74 73 73 73 71 69 67 65 64 65 65 65 65 65 63 62 61 61 60 61 62 61 60 59 59 58 56 54 54 55 55
28 31 33 35 37 40 42 44 46 47 49 51 53 54 55 57 59 61 63 65 66 67 66 66 65 65 64 62 61 61 61 60 60 59 60 61 60 59 58 58 59 58 57 56 55 55 55 53 52 51 53 54 55 55
24 26 28 30 32 34 36 37 38 40 43 46 47 49 49 52 53 55 56 57 57 57 57 56 56 56 56 57 57 56 55 56 57 57 57 56 56 55 54 54 52 52 52 52 52 50 50 51 52 52 51 50 50 49
21 23 25 25 27 28 30 32 34 35 38 40 41 42 44 46 48 50 49 50 50 51 51 51 51 51 51 51 52 52 52 52 52 53 52 51 50 49 49 49 49 49 49 49 50 51 51 50 49 48 47 44 42 40
18 20 22 23 24 25 25 26 26 27 29 31 33 35 37 39 40 41 42 44 45 46 46 46 46 46 46 47 47 47 47 46 45 45 46 46 45 46 46 46 46 46 47 49 49 48 47 47 45 42 40 38 35 33

GFSWCAN_250_spd_003.txt.gz
Wind_Speed
82 89 91 87 77 71 68 61 56 51 44 37 31 28 23 15 15 12 8 14 21 32 40 38 45 43 43 43 41 39 44 39 36 34 36 39 34 33 33 33 32 30 28 27 28 30 33 37 39 39 42 45 47 49
86 90 93 89 81 76 72 66 60 55 50 44 38 32 30 24 18 17 14 10 15 24 36 38 42 44 45 47 50 45 39 44 48 44 39 39 40 40 41 41 42 41 41 42 40 39 40 42 45 45 48 52 56 59
85 91 95 91 85 81 76 72 66 59 55 50 44 39 35 31 25 22 19 15 11 11 18 30 41 41 39 40 44 50 49 44 41 38 43 45 43 42 41 40 39 42 44 45 46 48 51 52 52 55 58 60 62 63
83 90 94 92 90 85 80 76 71 63 59 55 50 44 41 38 33 29 24 19 17 14 10 15 24 30 34 34 35 38 44 48 44 43 39 39 42 43 46 48 46 46 45 47 50 54 53 53 54 55 57 59 61 63
82 87 94 94 94 89 84 79 75 69 63 60 57 51 46 44 40 35 31 26 22 19 16 14 15 19 24 27 31 33 32 35 37 38 40 40 40 40 40 41 52 47 46 47 50 50 49 52 54 57 60 61 58 56
80 86 91 94 97 95 90 86 79 74 69 65 62 58 53 49 46 42 37 33 30 26 22 20 20 19 18 17 19 25 30 30 31 32 35 37 36 33 35 34 37 38 41 43 42 40 42 45 48 48 47 47 48 52
79 85 90 96 97 99 95 91 85 79 75 71 67 64 60 55 52 49 44 40 35 34 32 28 25 24 23 23 22 22 22 24 27 31 33 35 33 31 31 31 26 32 36 36 36 37 39 41 42 44 47 49 53 56
77 85 89 94 98 99 99 96 90 85 81 77 73 70 67 62 59 55 52 48 43 39 35 35 35 33 30 28 27 28 27 26 26 28 29 29 31 33 35 34 34 36 38 40 41 44 46 47 50 52 53 57 61 67
80 85 90 93 98 101 101 100 95 91 86 82 78 75 72 70 65 63 59 55 50 46 42 41 40 39 36 36 35 35 34 34 34 34 35 34 36 40 38 39 41 44 45 46 47 48 52 55 57 59 63 67 72 76
84 86 90 92 94 98 100 102 101 96 92 89 83 78 76 77 74 69 65 62 58 54 51 50 48 45 42 41 40 39 38 38 38 39 38 40 44 44 41 45 47 48 50 50 53 56 59 62 64 66 69 74 77 81
86 88 91 93 93 94 99 103 102 99 97 93 89 86 84 83 81 77 71 67 63 59 59 60 57 55 53 51 48 45 43 40 41 44 45 49 54 52 49 51 53 54 56 60 64 67 69 70 72 75 78 81 84 88
90 90 92 94 95 95 97 100 104 103 100 97 96 94 91 89 86 83 76 71 69 68 66 68 67 66 63 60 58 57 55 52 50 53 52 53 58 57 57 58 61 63 65 69 72 75 76 79 81 83 87 90 94 97
89 92 93 95 95 99 99 101 106 106 104 103 102 99 96 94 89 81 79 77 77 79 79 77 75 72 69 68 68 67 64 62 64 63 63 64 64 64 66 68 70 73 75 77 79 82 84 87 89 92 94 96 98 100
87 90 94 94 95 96 98 100 105 107 107 105 106 103 102 95 90 85 86 88 86 85 83 82 82 80 78 77 76 74 73 73 71 70 72 72 74 76 76 79 80 81 82 85 87 89 90 92 94 95 97 101 104 105
83 88 92 94 96 97 96 100 103 104 107 109 108 105 101 97 94 91 91 90 90 90 91 89 87 86 86 85 84 83 82 81 79 79 81 82 84 84 85 86 86 87 88 90 92 93 95 96 99 103 105 107 109 112
83 86 90 90 93 95 100 101 99 101 106 107 107 105 102 101 98 97 98 97 95 95 95 94 93 92 93 93 91 90 89 87 87 86 87 87 88 89 89 91 92 94 95 97 98 99 100 102 104 107 110 113 116 119
82 85 88 88 90 95 100 101 103 103 103 103 102 104 103 105 104 102 101 99 100 101 99 98 98 96 96 97 96 97 95 95 93 92 94 96 96 96 96 97 98 99 101 102 103 104 107 109 112 115 118 121 124 127
82 84 86 90 90 91 94 99 101 106 104 98 97 99 101 103 104 104 105 105 103 103 104 102 101 100 99 98 100 99 98 98 97 98 99 99 99 98 99 102 104 105 107 108 110 113 116 118 121 124 126 128 129 130
81 84 87 91 92 91 93 96 100 102 100 100 101 101 101 101 102 103 103 102 105 108 108 108 108 107 106 105 102 100 101 102 104 104 104 104 104 106 108 110 112 114 115 116 118 120 123 125 127 128 128 129 128 125
76 81 85 89 91 94 94 92 93 95 99 100 101 102 104 103 101 100 100 102 104 105 106 107 111 113 111 109 108 107 107 110 109 108 109 110 112 114 116 117 118 119 120 122 124 126 127 128 128 128 126 123 118 115
70 79 83 85 90 93 94 91 90 88 86 91 96 100 102 103 101 98 98 97 98 100 105 108 109 108 110 110 111 113 114 112 111 113 115 117 119 119 121 122 123 124 124 125 126 126 125 120 117 115 113 111 108 105
66 73 81 84 87 91 90 90 91 89 86 85 88 92 96 100 102 102 101 100 99 102 103 106 107 107 108 109 110 111 111 112 113 114 115 116 119 120 121 120 120 120 119 118 115 114 111 110 108 104 101 102 102 103
60 67 74 82 86 87 87 87 89 90 87 86 86 87 91 94 96 100 101 102 107 110 108 105 102 101 101 102 104 104 105 107 109 110 110 110 110 110 110 110 111 110 109 108 106 103 101 99 98 99 99 100 100 99
55 61 67 72 78 85 86 85 86 87 84 84 86 87 87 88 90 92 94 100 103 104 104 105 104 103 105 106 106 104 102 102 102 103 105 105 105 105 106 105 105 105 103 100 98 98 99 98 96 95 95 95 94 93
48 53 57 60 66 73 78 83 87 90 89 87 86 86 86 89 89 90 91 94 96 96 95 95 94 95 96 97 98 98 97 95 94 95 96 96 96 96 96 96 96 95 94 93 93 91 91 90 89 89 88 87 86 83
42 46 51 56 61 68 72 78 83 87 87 86 86 84 84 84 83 84 86 89 88 86 85 83 83 82 82 84 86 87 88 89 89 90 90 89 89 88 87 85 84 83 83 84 84 84 84 83 82 82 80 77 74 75
39 42 45 49 54 58 64 68 73 77 79 79 78 77 77 77 76 77 79 79 78 77 75 76 76 78 79 80 80 81 82 84 84 85 85 84 82 80 79 80 80 80 78 77 77 77 77 76 75 74 72 71 69 68
35 38 40 41 46 50 55 58 60 63 67 71 73 74 73 75 76 75 76 76 75 75 76 76 77 78 78 78 78 79 79 79 78 78 76 74 74 74 74 74 73 72 72 71 71 70 70 70 69 67 67 65 63 61
29 32 36 40 43 46 50 53 55 56 59 61 64 67 70 71 72 72 73 73 74 75 75 76 76 75 74 74 73 73 72 71 69 68 68 67 66 66 66 66 67 66 65 64 64 65 63 62 61 61 60 60 61 59
25 28 31 33 36 39 42 45 48 49 51 52 56 59 62 64 65 66 67 67 68 68 68 68 68 67 66 65 64 63 64 64 63 63 63 62 62 61 61 60 59 59 59 58 57 56 56 57 56 57 57 56 55 55
21 23 25 27 29 32 35 38 40 42 45 47 49 52 54 56 58 60 61 61 61 62 62 62 62 62 61 60 60 59 58 57 57 56 54 53 53 53 54 54 53 53 52 52 52 52 52 53 54 53 51 51 51 50
17 19 20 22 25 26 28 30 31 33 36 38 40 41 42 43 45 45 46 47 49 50 51 52 52 52 52 52 51 50 49 48 47 47 48 48 49 49 49 48 48 48 48 49 49 50 49 48 49 49 47 46 45 45
13 15 16 18 20 23 25 26 27 27 28 29 31 32 34 36 38 39 42 43 44 45 45 46 46 46 45 45 45 44 44 44 44 44 44 44 44 45 45 45 45 45 45 46 45 45 46 45 45 44 43 41 40 39

GFSWCAN_250_spd_006.txt.gz
Wind_Speed
70 72 77 84 85 83 78 71 65 58 53 48 44 37 32 24 17 17 15 10 21 35 37 39 41 39 45 40 35 33 32 29 26 28 27 24 22 22 27 32 31 29 33 32 29 30 32 34 35 39 43 46 48 48
70 72 79 83 89 86 81 75 69 62 57 52 47 42 36 29 22 16 16 12 11 20 36 39 40 39 41 45 43 41 37 37 38 34 31 31 31 27 31 28 33 38 36 33 34 33 33 37 39 42 41 40 41 42
71 73 79 84 89 87 82 77 69 65 62 57 51 47 40 33 27 23 18 16 13 13 21 34 41 40 39 40 43 46 46 45 41 40 40 40 39 36 35 34 34 34 35 37 36 38 37 37 39 40 43 45 46 47
70 73 78 83 87 88 85 80 73 70 64 61 55 51 46 38 32 27 24 20 16 14 11 18 28 40 44 42 43 45 43 44 45 44 40 45 44 41 40 38 44 43 43 44 43 43 44 46 47 48 50 51 53 55
71 73 76 81 88 90 88 83 78 73 68 63 60 57 50 44 39 33 29 24 22 19 16 12 13 22 32 39 41 43 44 41 40 39 43 41 40 39 42 44 45 44 46 45 45 49 49 50 50 51 52 55 57 58
71 74 75 81 90 94 91 86 81 78 72 68 64 61 55 50 45 40 34 31 27 25 20 16 13 11 17 23 26 33 35 34 36 37 39 40 43 39 40 42 45 44 46 49 51 53 52 51 51 50 49 52 55 58
70 76 77 82 92 96 95 91 86 81 78 74 69 64 61 57 51 45 41 38 33 30 25 22 19 17 15 14 17 21 25 29 31 32 33 37 41 44 44 44 44 40 46 44 44 47 48 43 46 47 44 43 43 45
69 76 77 81 90 98 101 96 93 87 82 78 74 69 65 61 58 53 49 44 40 36 31 27 28 24 22 19 18 17 16 18 22 27 28 31 31 32 37 40 33 33 33 34 36 37 39 40 41 42 43 45 49 52
70 76 79 80 89 96 102 101 97 92 88 84 80 74 69 65 60 60 56 51 46 42 39 38 35 32 29 27 26 23 22 21 20 20 21 22 25 27 29 28 28 30 31 32 34 36 40 43 46 48 51 52 54 56
70 77 81 83 87 95 101 104 102 98 94 90 86 80 74 70 68 65 61 56 52 48 45 46 44 40 37 36 34 33 30 27 28 29 28 27 30 29 30 32 34 36 38 39 41 44 47 50 52 52 52 56 61 66
68 79 84 87 88 91 98 104 105 103 100 95 89 84 81 78 75 69 65 62 58 54 52 53 53 51 48 45 42 37 34 33 33 35 32 34 37 34 34 39 41 42 42 43 47 49 52 54 56 59 63 66 69 73
66 77 85 88 90 91 94 101 106 106 102 98 95 92 89 85 80 76 71 66 63 61 61 64 63 60 58 55 51 47 42 38 35 38 35 37 42 41 40 41 45 49 50 51 54 57 59 61 64 66 70 74 78 82
67 76 85 87 90 93 94 96 104 107 106 105 101 98 95 92 87 79 72 68 70 74 74 73 69 66 64 61 59 56 51 48 47 45 46 51 52 51 53 55 56 57 59 61 63 65 68 71 74 77 80 83 87 90
69 77 86 88 89 93 96 95 97 102 105 107 107 104 101 96 87 79 78 81 80 78 79 78 75 72 70 69 65 62 60 59 56 55 60 64 62 63 65 66 67 68 69 71 73 75 77 80 83 86 88 91 93 95
69 78 84 88 91 95 97 94 94 94 99 104 106 106 105 99 93 88 87 86 87 85 83 82 80 80 79 76 72 71 69 65 65 67 69 70 72 73 74 75 75 76 78 80 81 83 86 88 91 93 94 97 100 103
70 78 84 86 92 96 97 94 93 93 94 98 101 101 101 100 99 96 95 95 93 92 88 87 87 84 84 83 81 80 76 75 76 75 76 79 80 81 82 82 83 85 86 87 89 91 93 95 97 100 101 102 104 107
71 80 83 87 90 95 98 96 96 94 93 93 91 92 94 97 98 99 98 99 99 97 94 93 91 89 88 87 84 84 84 84 83 83 85 86 87 88 89 90 90 91 93 94 97 98 100 100 100 102 104 107 111 115
68 75 81 84 88 92 95 97 97 97 92 86 87 86 88 92 95 97 100 102 102 101 100 99 97 95 93 90 90 90 89 88 88 90 91 92 93 94 95 95 96 97 98 99 100 101 101 103 106 108 111 115 118 121
66 72 77 84 86 90 94 94 94 92 88 87 87 89 89 91 92 92 95 99 102 104 104 104 103 99 96 96 95 94 94 95 95 96 96 96 97 97 97 97 99 101 102 103 104 105 108 110 113 116 119 122 125 128
62 69 75 80 84 88 90 90 89 87 87 87 90 91 91 92 91 92 94 96 97 100 104 106 104 102 102 102 101 100 100 100 100 102 103 103 102 101 103 105 106 108 109 109 110 112 115 117 119 121 123 124 126 125
58 66 72 78 84 87 88 90 90 86 86 86 88 92 93 93 95 94 93 93 94 96 98 98 98 99 100 101 101 102 103 104 105 106 106 106 106 107 108 110 111 112 113 114 115 116 117 118 120 121 122 120 117 114
54 62 69 74 80 83 85 87 89 87 85 86 86 89 93 92 94 97 96 95 97 99 99 97 95 95 95 95 95 95 96 97 99 101 102 103 104 104 106 107 107 108 110 111 111 112 114 114 112 111 110 110 107 103
49 56 64 70 73 76 81 82 83 85 85 85 87 89 90 91 93 95 98 99 99 101 102 99 97 97 98 98 96 97 97 96 96 96 97 98 98 99 101 102 102 101 101 102 104 106 107 107 107 107 102 99 97 97
43 50 56 62 66 72 73 77 82 84 83 82 82 84 87 88 89 89 93 98 101 102 101 100 99 98 97 97 99 99 99 99 98 98 99 99 99 100 100 100 100 99 100 102 103 102 99 99 97 96 94 95 95 93
38 42 48 55 59 67 72 74 77 80 80 79 80 83 85 87 88 88 88 90 93 96 99 99 98 98 98 99 97 96 96 97 97 97 97 98 100 101 101 101 101 101 100 101 100 97 94 91 90 93 93 91 89 88
35 39 43 47 53 59 64 68 71 77 77 77 76 77 79 82 85 85 84 85 87 87 87 88 89 89 89 91 93 93 93 94 95 96 97 98 98 98 95 92 90 89 90 91 90 90 90 90 90 88 86 83 82 80
32 35 37 40 44 48 53 57 62 71 75 72 69 70 73 75 76 76 76 78 78 79 79 80 80 80 81 83 84 84 85 86 88 89 89 88 85 83 80 79 80 82 83 83 84 84 84 82 81 79 76 74 73 72
29 32 33 36 40 42 46 51 56 62 67 69 67 66 65 68 71 72 74 75 75 76 76 76 76 76 77 79 80 82 83 83 82 81 81 80 78 77 77 77 78 78 78 78 77 77 76 74 72 70 68 66 65 66
25 27 30 32 34 36 39 43 47 52 56 60 62 65 67 66 67 69 71 74 76 78 80 80 78 77 77 77 76 76 76 75 75 74 73 73 74 74 74 72 71 71 71 71 71 70 67 65 65 64 64 64 63 61
22 23 25 27 31 33 35 37 39 42 45 49 53 56 58 60 61 64 66 68 70 72 73 73 73 73 73 74 74 73 72 70 70 70 70 69 68 66 65 66 66 66 65 64 62 61 62 61 61 60 59 59 58 56
20 22 22 24 25 27 29 32 34 36 38 40 43 46 48 50 51 53 55 57 58 59 60 60 60 61 61 62 62 62 62 61 61 60 59 58 58 58 58 58 59 58 57 57 57 57 56 56 56 55 52 53 52 51
17 19 20 21 21 22 25 27 28 30 33 35 36 37 38 40 42 44 45 46 47 48 49 51 53 54 53 52 51 51 51 51 51 51 51 51 51 51 51 51 51 52 52 51 51 51 51 49 48 49 49 47 47 48
17 17 17 18 18 19 20 22 24 25 27 29 30 31 32 34 36 36 36 39 40 41 42 42 42 42 43 43 43 43 42 43 43 43 43 44 45 46 45 45 45 45 45 45 44 44 44 45 44 44 45 44 42 39

GFSWCAN_250_spd_009.txt.gz
Wind_Speed
37 49 57 63 67 76 83 81 76 70 64 58 53 48 41 35 28 23 16 14 11 27 46 45 42 38 35 32 27 27 26 23 18 20 24 25 23 22 24 29 33 38 41 41 42 42 44 43 43 44 48 51 51 53
38 49 58 63 71 78 85 85 78 73 66 60 55 50 44 38 31 25 17 12 10 16 38 44 46 43 39 39 35 31 28 28 29 26 23 20 20 23 24 27 25 24 26 27 26 26 32 33 36 39 40 43 44 46
38 48 59 64 73 79 84 87 80 76 69 63 59 53 47 42 35 29 21 13 9 8 22 38 43 46 44 40 40 41 33 31 30 32 29 28 27 26 24 26 31 33 34 32 32 35 34 34 34 36 37 39 39 40
37 46 56 63 74 80 86 87 83 80 73 66 62 55 51 46 39 32 26 20 12 9 10 25 37 41 41 42 39 36 38 41 40 36 36 35 32 31 30 30 30 30 30 39 37 37 37 39 39 40 41 42 46 50
37 46 55 64 75 81 87 90 87 81 76 69 64 58 54 49 43 36 31 25 19 13 12 11 18 30 39 40 42 42 42 41 42 44 42 41 40 37 35 36 41 38 36 37 38 37 38 41 42 42 45 46 46 48
38 46 56 67 75 78 86 91 89 84 77 72 66 62 57 52 47 40 35 31 26 20 16 11 10 10 21 33 40 44 44 44 47 47 45 44 46 44 41 41 40 38 38 39 45 48 47 47 47 49 52 53 54 55
38 48 58 68 74 80 87 93 93 87 80 75 70 66 61 56 51 45 42 38 32 26 19 16 12 12 10 10 19 27 30 34 38 39 41 43 42 43 43 47 47 42 38 37 43 47 48 50 51 53 53 55 55 55
41 49 59 68 75 79 86 93 94 89 83 77 73 69 65 60 55 51 48 43 38 32 25 20 22 19 16 13 9 8 13 19 23 26 29 31 31 32 36 45 47 43 40 42 44 44 45 45 45 46 44 42 43 45
42 50 60 69 76 78 85 93 95 92 88 83 77 74 70 64 60 58 52 48 43 37 32 32 30 26 20 18 15 12 10 9 10 13 18 20 24 26 32 33 29 26 32 35 34 33 35 37 37 36 37 38 40 43
43 51 60 70 76 79 85 93 98 97 93 88 82 78 73 69 67 64 60 54 48 41 39 38 36 33 29 26 22 20 17 15 16 15 13 14 20 19 21 24 28 27 28 29 30 31 34 36 37 39 41 43 46 48
44 53 61 71 78 80 84 91 99 101 97 92 86 82 79 76 74 70 63 58 53 48 45 45 44 42 38 35 32 27 25 22 22 22 19 23 26 25 24 26 27 28 29 30 31 33 36 39 40 42 45 49 52 55
46 55 63 72 80 83 87 92 98 103 100 95 92 90 87 83 79 74 67 63 57 55 54 54 52 50 47 44 41 37 34 29 26 28 25 30 35 32 31 33 35 35 36 38 39 40 42 43 45 49 52 56 59 63
48 57 65 73 81 87 87 89 94 101 104 102 100 97 93 91 84 73 67 64 64 64 65 66 63 58 53 50 47 44 39 37 35 35 38 42 43 42 40 39 39 40 42 42 44 47 49 53 55 59 63 67 70 73
47 58 65 75 81 85 89 89 92 97 104 106 103 100 100 94 84 73 72 74 74 75 73 69 64 62 60 57 53 51 48 46 43 47 54 53 51 52 52 51 51 50 52 54 56 58 60 63 67 70 73 75 78 81
45 57 66 73 81 85 90 92 89 92 102 109 108 107 101 95 88 83 82 82 82 79 76 74 72 69 67 63 61 58 55 52 55 61 60 59 59 60 61 61 62 62 63 65 66 68 71 73 75 78 81 83 86 89
44 55 66 74 79 83 87 89 90 90 93 102 108 108 105 100 96 93 91 89 87 85 81 78 75 73 72 68 66 63 62 64 68 68 66 67 68 68 68 69 70 72 73 74 75 77 79 81 84 86 87 90 93 96
42 51 63 74 79 83 86 88 92 94 90 91 96 101 106 106 103 99 98 96 94 90 87 84 82 79 77 74 72 71 72 72 71 72 73 75 75 75 76 78 79 80 80 82 84 85 87 89 91 93 94 95 97 100
43 49 60 71 77 81 84 90 93 91 83 82 87 90 95 102 104 101 102 100 98 97 95 93 90 87 83 80 79 81 80 78 78 78 78 79 81 81 82 82 83 84 85 86 88 90 91 92 94 96 99 102 104 107
44 50 57 68 76 80 85 88 90 85 82 84 83 85 87 90 93 97 99 101 104 103 102 101 97 93 90 89 90 89 87 87 86 86 86 87 87 88 89 90 90 90 91 93 95 96 97 99 101 102 105 107 110 112
44 50 56 64 73 79 83 86 85 81 82 84 83 78 82 85 85 85 87 89 94 99 102 102 101 99 98 97 97 96 95 94 93 92 92 92 93 95 95 94 95 97 98 99 100 101 103 105 108 110 113 113 112 111
43 50 56 62 69 76 79 83 82 81 80 83 84 82 81 83 84 83 83 85 87 89 91 92 93 93 94 95 96 96 96 99 100 99 99 99 100 100 99 100 101 103 104 105 105 106 108 109 109 108 108 108 105 103
40 47 53 59 64 68 74 77 78 78 79 85 86 85 84 84 86 86 86 86 86 86 86 85 85 86 86 88 89 90 91 92 93 95 97 98 99 100 100 100 101 101 101 101 102 102 102 101 100 100 102 102 102 102
36 43 50 56 59 64 68 71 73 72 76 80 84 86 86 83 84 89 90 87 86 86 85 85 85 86 86 85 85 85 85 86 86 87 88 89 90 90 90 91 92 93 94 96 97 98 98 98 99 99 99 98 95 93
32 39 45 50 54 60 63 68 70 71 72 76 80 82 85 86 83 84 88 90 90 91 90 88 89 92 92 91 91 90 90 90 91 92 92 92 91 91 93 93 94 95 96 95 96 96 96 95 94 93 89 88 88 88
29 33 40 45 49 54 59 62 66 68 72 73 77 81 83 84 84 81 80 84 90 94 95 94 95 94 94 94 93 92 92 93 94 94 94 93 94 94 95 97 97 97 96 95 93 92 90 87 85 86 86 86 85 85
27 31 35 39 44 49 54 58 62 65 67 70 72 75 79 82 84 83 82 82 84 88 89 90 92 94 95 96 95 96 96 96 97 97 97 98 99 100 100 98 96 93 89 88 86 84 84 83 82 82 83 84 85 84
25 28 32 36 40 44 48 52 56 58 61 65 68 71 74 80 81 80 82 82 81 80 81 83 85 86 87 88 90 92 93 94 95 96 96 95 94 93 91 90 88 86 84 83 82 81 80 79 80 81 81 80 80 78
23 24 27 32 36 39 42 45 48 53 58 60 62 65 68 71 74 78 80 81 81 80 80 81 82 83 85 86 87 88 89 90 90 89 89 89 88 87 86 84 82 79 78 77 76 75 76 77 77 76 75 73 72 71
20 22 24 27 32 35 37 39 41 45 50 53 55 57 60 63 66 69 72 75 77 78 78 78 79 80 80 80 79 79 79 80 81 80 78 77 75 75 75 74 74 75 74 74 74 74 73 72 71 70 68 66 65 62
18 20 21 23 26 30 33 35 38 41 44 46 48 49 51 52 55 58 61 64 67 70 72 74 75 75 75 75 76 76 75 74 73 73 73 72 71 72 73 73 73 72 72 71 70 68 67 66 63 61 60 58 56 55
17 18 20 21 22 24 28 30 33 35 38 39 40 42 42 44 46 49 52 55 58 60 61 61 62 63 63 62 62 61 61 63 64 65 65 67 67 68 67 66 66 66 65 64 62 60 58 57 56 55 53 52 52 52
16 16 18 19 20 22 24 26 28 30 33 35 36 36 38 40 43 44 46 48 49 52 53 54 55 57 58 58 58 59 59 60 61 60 59 60 60 59 59 59 58 57 55 53 52 52 51 50 49 48 48 48 47 46
14 14 16 16 17 19 20 23 25 26 27 29 30 32 34 36 38 38 38 40 42 45 47 49 50 51 52 51 51 51 51 51 51 52 52 51 52 51 50 49 47 46 45 45 45 45 44 43 43 44 43 41 40 40

GFSWCAN_250_spd_012.txt.gz
Wind_Speed
18 23 34 45 52 58 66 70 73 73 79 74 68 60 53 46 40 35 30 25 21 21 20 46 40 37 32 32 26 22 17 16 13 13 18 23 25 25 23 24 24 24 23 25 27 28 29 31 31 30 34 39 41 44
18 26 37 47 54 62 68 72 74 77 81 76 69 62 55 49 42 37 32 27 22 21 18 47 47 42 38 35 34 29 26 21 18 18 17 16 15 18 23 28 30 30 32 30 31 33 32 33 35 36 39 40 41 43
18 28 38 45 53 62 70 74 78 79 82 78 71 63 56 50 45 38 33 27 22 20 19 42 52 46 42 40 36 34 33 28 24 23 23 23 20 20 20 19 20 25 29 33 35 35 35 38 41 42 43 43 44 43
20 30 39 45 55 63 71 74 78 80 82 78 72 63 58 52 47 41 35 28 22 19 17 37 50 49 44 42 39 37 34 32 29 28 28 27 25 25 23 23 23 24 24 24 28 30 30 30 31 32 33 34 36 36
22 31 40 45 54 63 70 75 80 81 82 77 73 66 62 56 51 44 38 32 24 19 17 24 42 49 47 45 44 41 42 37 34 33 31 31 32 30 30 27 28 27 27 27 29 32 34 32 33 37 39 41 42 42
22 33 40 45 55 63 69 75 83 85 84 81 76 70 65 59 54 47 41 36 30 24 18 18 30 42 48 45 46 47 43 42 41 44 42 39 38 37 36 36 36 36 37 36 36 36 36 38 42 44 46 49 50 51
22 35 42 47 53 62 69 78 84 86 86 83 78 72 68 62 57 51 46 43 37 30 24 19 17 21 33 40 43 43 43 44 44 42 43 45 46 45 47 46 46 44 42 41 42 43 43 45 45 48 48 48 49 52
22 35 42 46 54 63 71 78 85 90 89 86 81 75 70 66 60 55 51 45 39 33 27 23 21 21 20 23 27 35 39 41 42 44 44 44 43 43 44 49 49 47 47 46 45 43 48 46 46 49 50 52 54 56
21 36 43 48 55 64 73 78 83 89 91 89 85 79 74 69 63 59 56 50 45 38 32 31 30 25 20 17 14 13 11 16 24 31 35 37 39 43 46 47 46 42 40 42 45 47 46 43 40 42 45 45 43 41
22 36 44 49 57 66 73 79 85 90 94 92 88 82 75 70 67 64 62 55 48 42 39 37 33 29 25 21 20 18 14 14 15 15 18 25 34 39 39 38 35 29 27 28 29 31 36 40 40 37 36 35 35 36
23 37 47 51 60 67 75 82 86 90 94 94 87 83 79 78 74 70 66 60 53 49 46 45 41 36 31 30 27 23 21 19 17 15 15 19 22 16 14 18 21 22 22 23 25 27 28 29 30 31 32 34 37 39
24 37 48 51 60 68 75 82 87 89 93 94 91 90 89 85 79 74 66 60 55 53 51 50 48 44 40 37 34 32 28 25 22 23 21 26 25 19 19 20 21 22 23 24 25 26 28 31 33 36 39 42 44 48
26 36 47 53 59 67 75 82 86 89 91 96 99 98 94 89 82 76 68 62 61 64 64 62 58 53 48 44 40 36 32 30 31 30 32 35 31 27 26 26 27 28 28 29 30 32 34 37 41 43 45 49 53 57
26 35 46 52 58 67 74 80 84 87 91 96 100 100 98 91 83 75 73 74 73 73 71 66 61 57 52 49 45 42 40 39 38 42 45 42 39 38 37 36 36 37 38 40 41 43 45 47 49 53 56 60 63 67
26 34 45 53 58 64 71 77 81 83 87 92 97 101 98 90 85 82 79 79 78 77 74 70 66 62 60 55 52 50 49 46 49 53 51 49 47 46 46 46 47 47 48 50 51 52 54 56 59 62 65 68 71 75
26 34 44 54 59 64 69 74 79 82 85 90 96 97 99 95 91 89 85 85 83 80 77 73 71 67 65 62 60 57 56 57 59 58 55 53 53 53 54 55 56 57 58 59 60 61 63 65 68 71 73 76 80 83
26 34 44 53 61 66 66 68 80 82 81 85 91 95 99 99 98 95 91 90 89 85 82 79 78 74 72 68 66 66 66 65 64 63 62 63 63 63 62 63 65 65 66 67 68 70 72 75 77 78 80 83 85 88
27 33 42 51 60 65 65 67 72 77 76 75 83 90 96 102 100 99 97 96 93 91 88 85 83 81 77 74 74 74 72 71 70 69 70 69 69 70 70 72 73 73 74 75 76 77 79 81 83 85 87 90 92 95
28 33 41 50 59 63 65 67 71 72 70 72 76 84 90 96 100 101 101 100 99 97 96 93 90 86 83 82 83 82 80 78 77 76 76 76 75 77 78 79 79 79 79 81 82 84 86 88 90 92 93 96 99 101
29 34 40 49 56 62 63 66 70 69 68 73 76 78 84 90 94 97 98 99 100 99 99 98 96 95 93 91 88 87 86 85 85 85 85 85 85 85 86 86 86 87 87 88 90 92 94 95 96 98 100 102 104 106
27 33 39 45 54 59 60 65 69 69 68 72 76 79 79 83 89 91 94 98 99 100 99 99 99 98 97 96 94 94 94 93 93 93 93 93 93 94 94 95 95 95 95 95 96 97 98 99 100 101 101 101 102 102
27 31 37 43 49 56 59 62 67 67 68 73 76 77 78 80 80 85 90 90 89 92 96 98 99 101 102 101 102 99 97 97 97 98 99 100 101 101 101 101 101 99 98 96 94 93 93 92 92 92 93 96 97 99
27 30 33 39 44 50 56 61 64 66 70 72 74 76 77 78 77 80 81 82 84 87 87 88 89 91 94 96 97 99 99 98 98 99 99 100 100 99 97 93 91 89 87 85 85 85 86 88 90 91 93 94 95 95
27 29 32 36 40 46 51 58 61 65 69 72 74 76 79 82 81 77 72 72 78 83 84 83 84 86 88 87 86 86 86 87 89 91 92 91 89 88 87 85 83 82 83 84 85 87 87 88 90 92 92 89 87 85
25 27 31 35 38 43 48 53 58 61 66 70 72 75 78 79 78 75 73 74 71 71 74 81 84 85 86 85 85 85 85 85 85 86 86 86 86 85 85 85 86 87 87 88 88 88 88 88 88 86 85 84 84 83
23 25 29 33 36 40 43 46 51 57 61 65 68 72 75 76 78 75 74 75 76 74 74 72 77 85 87 88 89 88 88 88 88 89 89 89 89 89 90 90 90 90 89 88 88 89 89 85 85 85 83 82 80 78
22 23 27 32 36 37 39 43 46 49 54 59 63 66 69 72 72 72 74 76 79 79 78 76 73 73 78 83 85 87 90 91 91 91 91 91 91 91 91 92 93 92 91 91 91 89 88 87 83 81 79 78 78 77
22 22 25 29 33 36 38 39 42 45 48 51 55 58 61 64 67 71 76 80 81 80 79 78 76 74 74 75 78 82 85 87 89 90 91 91 92 93 94 93 92 91 88 87 86 84 82 79 78 77 76 76 75 74
22 22 24 27 30 33 36 37 40 42 44 47 50 52 53 56 60 65 70 74 77 78 78 77 76 76 76 76 77 78 80 81 83 84 85 86 87 87 87 86 84 83 82 80 78 77 75 74 74 74 73 71 69 67
21 22 23 25 27 29 32 34 36 39 41 42 43 46 49 51 54 57 61 65 68 70 72 73 73 74 74 75 75 76 76 76 76 75 75 76 77 78 77 77 76 75 74 72 71 71 72 71 69 67 66 65 62 59
20 21 23 24 25 26 27 29 32 34 37 39 40 42 43 45 48 51 54 56 58 60 63 65 67 68 69 70 70 70 69 69 70 69 69 69 69 70 71 71 70 70 70 69 69 67 65 64 62 61 58 56 55 52
19 20 21 23 23 24 24 26 28 30 32 35 37 39 41 42 42 43 47 50 53 55 56 57 58 59 61 63 64 64 63 63 63 64 65 66 66 67 67 66 65 64 63 62 60 59 58 57 54 52 50 48 47 45
20 19 20 22 22 22 22 23 24 26 28 29 31 34 36 38 39 41 41 41 43 45 48 51 53 55 56 57 58 58 59 58 59 60 61 60 59 59 58 57 56 55 54 53 51 50 49 47 45 44 43 41 39 38

GFSWCAN_250_spd_015.txt.gz
Wind_Speed
35 22 23 28 31 39 45 49 54 61 69 74 75 73 67 60 53 48 43 38 33 27 27 26 37 34 30 24 21 19 20 25 23 22 22 22 21 20 23 24 25 26 29 33 36 43 52 58 62 64 68 69 69 70
32 21 24 29 33 40 47 52 57 65 71 76 76 73 67 61 55 49 45 39 35 30 26 23 39 36 35 31 27 22 21 22 24 24 25 23 24 23 23 23 23 23 26 28 30 31 35 38 42 46 49 49 49 53
28 21 25 30 35 43 50 54 60 70 74 79 78 74 68 62 57 51 46 41 37 31 26 27 32 41 40 38 33 30 26 24 22 23 22 22 22 24 25 24 24 25 25 27 28 30 31 33 35 37 38 39 41 43
26 22 25 31 37 46 52 56 63 73 77 81 78 73 69 63 57 52 47 43 37 32 28 30 26 44 45 42 40 36 31 28 25 23 23 22 20 20 18 20 22 24 27 29 30 31 33 35 36 37 38 40 43 45
25 21 25 30 39 48 53 57 63 74 79 83 79 75 69 66 60 55 49 44 38 34 30 29 28 35 50 49 44 41 38 34 30 29 27 28 26 24 22 23 21 19 20 22 23 25 29 32 33 34 37 37 38 37
23 21 25 30 41 49 54 58 65 75 80 85 81 80 74 68 63 57 50 45 40 37 31 29 29 37 51 53 48 45 44 40 39 35 33 32 31 30 29 29 27 27 27 28 27 27 27 29 30 32 35 35 36 39
21 21 24 30 41 49 54 58 67 80 83 85 85 81 77 71 65 58 54 51 45 39 32 29 27 34 45 54 52 48 46 44 42 39 38 35 34 32 33 35 35 36 36 34 32 31 33 34 36 38 40 41 44 46
21 20 24 31 43 50 54 59 68 82 83 86 86 83 78 73 68 62 59 54 46 39 31 26 24 30 39 49 52 50 49 47 45 44 44 43 40 42 41 45 43 43 40 40 40 41 44 44 46 45 47 47 50 52
21 19 25 34 45 50 55 61 70 82 86 86 88 86 82 75 70 66 62 55 47 41 35 31 27 27 32 42 48 50 48 47 45 45 47 46 44 43 51 54 51 50 49 49 50 50 48 47 49 52 53 54 55 56
20 20 26 36 46 52 57 62 70 81 87 88 89 89 83 79 75 71 67 59 51 44 40 36 33 30 30 31 33 37 41 45 48 48 48 47 48 52 51 51 48 45 45 43 42 44 44 45 46 46 46 48 47 46
19 21 27 38 48 54 58 64 74 84 91 91 91 86 85 83 80 76 70 61 52 46 45 43 40 38 33 29 28 27 28 29 33 38 34 40 47 42 35 40 41 37 34 34 35 35 33 31 31 34 35 35 35 36
18 21 28 39 49 55 60 68 76 84 92 92 91 91 91 89 84 78 69 60 54 52 50 49 47 43 39 37 33 31 29 27 25 24 19 25 24 16 16 19 21 22 21 20 21 23 22 23 26 28 30 32 33 36
18 21 28 39 50 57 61 70 75 80 89 92 95 96 94 90 84 77 69 63 60 60 63 63 58 53 48 44 41 38 34 30 29 26 26 31 26 23 22 22 22 22 23 23 24 25 25 27 30 33 34 35 38 42
19 20 29 38 50 57 62 70 73 81 85 88 93 95 94 89 82 77 75 74 74 72 72 69 62 57 53 49 43 39 38 38 34 36 39 37 31 28 27 27 27 27 28 28 29 31 32 35 37 38 41 44 47 51
19 20 28 38 51 57 65 69 71 74 78 80 93 95 93 90 87 84 83 81 80 78 76 71 65 61 56 51 48 45 45 42 45 49 45 40 38 36 35 35 35 36 37 38 39 41 42 43 45 48 50 53 57 60
19 20 27 37 49 58 63 66 67 71 73 76 83 92 94 92 92 91 89 86 84 83 81 75 70 64 60 57 56 53 52 54 56 52 49 46 45 45 45 45 46 46 47 47 48 49 50 52 54 57 59 62 65 68
20 20 26 36 46 57 61 62 65 71 71 69 76 87 94 95 96 95 94 91 89 87 83 79 75 72 69 64 63 63 64 62 59 56 54 54 54 54 53 54 54 55 55 56 56 57 59 60 62 65 67 70 73 75
21 22 26 36 44 52 61 61 65 69 68 63 68 81 90 94 97 98 97 96 93 89 86 83 80 77 74 72 73 72 70 67 65 64 63 62 62 61 62 62 63 63 63 64 64 66 67 68 70 72 75 77 80 82
23 23 27 33 42 48 55 61 63 63 62 61 64 77 88 91 93 99 101 98 97 95 93 90 86 83 80 79 80 79 78 76 74 72 71 70 70 69 69 70 70 70 71 71 72 73 74 75 76 78 81 84 86 90
26 25 27 34 41 48 52 55 58 59 58 58 62 69 82 89 93 95 100 102 101 99 98 95 91 89 87 86 86 84 83 81 79 78 77 77 76 77 77 77 78 78 78 78 79 80 81 83 85 87 89 92 95 99
28 27 28 33 39 44 47 52 53 53 57 59 61 65 71 82 85 91 94 96 97 101 102 100 98 97 95 92 90 89 88 86 86 85 84 83 83 84 84 84 84 85 86 86 87 88 90 92 93 96 97 99 101 103
30 29 29 32 38 43 45 47 52 52 55 59 62 65 67 75 84 86 89 90 92 95 99 101 103 103 100 97 96 95 94 93 93 91 91 90 90 91 91 92 93 94 95 96 97 98 98 99 101 101 101 102 102 100
29 30 30 32 36 41 45 46 49 53 55 59 63 66 68 70 76 84 84 85 87 90 92 94 97 98 99 100 102 102 101 100 99 99 99 100 100 101 101 102 102 101 101 102 103 103 104 103 103 101 98 96 94 93
28 31 31 31 34 39 43 46 47 51 54 59 63 66 69 70 71 75 79 83 86 87 86 87 89 92 94 96 100 101 102 103 102 102 103 103 103 104 103 102 102 102 102 103 103 102 100 97 95 92 91 91 91 91
29 30 32 32 32 36 41 44 47 49 53 58 62 65 70 73 72 71 73 78 82 83 84 86 88 88 88 89 90 92 93 94 95 98 99 100 100 100 100 100 99 97 95 94 93 93 93 91 90 90 90 90 89 89
31 29 31 33 33 34 38 42 46 48 51 55 59 64 68 70 72 73 74 75 76 78 79 77 80 83 85 88 89 89 90 90 91 91 90 90 90 90 90 91 91 92 92 91 91 91 90 89 88 88 88 87 86 85
31 30 30 32 34 34 35 39 43 47 50 54 57 60 64 66 68 71 74 76 78 77 77 78 77 77 77 78 81 82 84 85 85 85 85 85 87 88 87 87 87 87 88 88 88 88 88 88 87 86 84 83 82 80
30 30 29 30 32 33 34 36 39 43 46 50 55 59 60 60 63 69 73 77 81 83 81 80 78 76 75 74 73 73 74 75 75 76 78 78 79 82 84 86 87 88 87 86 86 84 84 83 83 82 81 79 78 77
29 29 29 29 30 32 33 34 35 39 42 45 49 53 56 58 61 66 70 73 77 80 80 81 80 79 78 78 78 78 76 73 70 70 71 73 74 76 79 82 83 84 83 82 82 81 81 81 80 79 78 77 77 74
28 28 28 28 28 30 31 32 32 33 36 39 43 46 49 53 57 61 64 68 71 74 76 78 78 78 78 77 77 78 78 77 77 76 75 75 74 75 76 76 78 79 80 80 80 80 79 79 78 76 74 72 71 69
26 25 26 28 28 28 28 29 31 32 33 34 38 41 44 47 50 54 59 62 65 68 69 71 73 74 75 75 76 76 76 78 78 78 78 78 77 76 76 77 77 77 77 78 77 77 75 74 72 70 69 67 64 61
25 26 25 26 27 28 28 27 28 30 31 32 34 36 39 43 45 48 51 54 56 59 62 64 66 67 68 70 71 72 72 72 72 72 73 73 73 73 73 73 73 73 72 71 70 69 68 67 65 63 60 57 54 50
24 25 26 25 25 26 26 26 26 27 28 30 31 32 33 36 40 43 45 47 49 50 51 53 54 57 60 62 64 65 66 66 66 67 67 66 66 66 66 65 65 64 63 62 61 60 58 56 53 51 47 45 42 40

GFSWCAN_250_spd_018.txt.gz
Wind_Speed
61 54 47 35 26 20 18 31 40 45 49 56 63 70 72 69 63 59 52 47 44 38 33 28 33 33 27 25 25 26 24 20 19 17 17 19 21 22 21 23 26 28 31 37 45 54 60 62 63 64 64 62 62 63
58 53 46 33 25 19 19 33 43 48 51 60 68 72 73 71 66 59 53 50 45 39 32 27 38 32 32 29 26 26 27 27 23 19 20 19 20 20 21 22 24 28 30 31 37 41 47 54 59 62 64 64 65 66
56 50 43 32 23 19 21 34 44 50 54 62 69 71 74 70 64 60 55 51 47 40 33 32 35 37 35 31 28 27 27 27 29 26 24 22 20 21 22 23 24 25 28 32 34 35 39 44 48 53 56 59 62 63
54 48 41 31 21 17 23 36 45 52 57 65 71 72 77 71 66 60 55 52 48 43 37 33 31 39 38 37 32 29 30 27 26 30 27 24 22 23 24 22 22 22 23 26 27 29 33 36 38 42 46 49 52 55
52 46 38 29 19 17 25 38 45 52 58 66 72 76 80 72 68 62 56 53 48 43 40 32 34 35 42 41 39 33 30 30 28 27 28 29 27 25 25 26 26 24 23 25 28 28 29 30 32 34 36 36 38 39
51 44 36 26 19 16 27 40 47 54 62 70 74 81 79 74 69 62 56 53 49 46 41 37 32 34 38 45 44 41 36 32 30 28 26 26 25 23 22 23 25 25 25 25 24 26 28 29 29 30 31 32 34 35
49 43 35 25 18 17 27 41 49 56 65 72 79 83 80 75 69 62 57 55 53 48 44 40 35 34 37 35 47 44 43 41 36 34 31 28 27 26 26 26 24 24 23 23 23 25 26 27 29 29 29 30 32 34
48 41 33 24 17 18 28 41 50 57 65 74 81 84 83 78 73 67 62 59 55 51 46 41 38 35 36 38 34 50 48 45 43 41 37 34 31 31 33 31 32 30 28 28 28 29 29 30 31 31 33 35 37 41
46 40 31 22 17 19 29 42 51 56 64 75 82 85 84 80 73 69 65 61 56 50 44 44 39 35 34 36 35 43 56 52 47 45 42 37 35 38 40 36 34 34 33 34 35 37 39 40 41 43 43 44 46 49
45 38 29 21 18 20 30 42 52 58 66 77 85 88 81 79 77 74 68 63 57 51 47 43 38 35 35 34 37 43 51 56 51 47 44 41 41 45 45 40 40 41 43 45 46 47 48 48 48 49 52 51 48 50
43 37 28 20 18 21 30 44 53 60 68 78 83 85 84 85 82 78 72 64 56 50 47 45 42 39 36 33 33 38 41 46 50 49 45 44 49 52 47 47 48 48 46 46 47 49 50 49 48 49 49 47 47 44
41 34 26 19 18 22 31 43 53 61 66 72 81 88 91 90 86 79 72 63 56 54 49 50 49 45 39 32 30 33 39 42 46 50 47 49 57 52 47 46 48 48 47 44 42 41 43 43 38 36 35 36 36 35
38 32 24 19 19 23 32 43 53 60 64 73 84 92 97 92 87 78 69 60 55 56 59 59 59 52 43 38 34 31 31 33 39 40 45 54 52 49 36 31 31 30 28 26 24 24 25 27 27 27 28 29 31 33
36 30 24 18 20 24 32 44 51 58 62 70 79 85 92 93 85 77 70 67 69 68 68 68 63 55 48 43 37 33 31 29 28 34 44 41 35 28 26 26 27 27 25 25 26 26 26 27 28 29 30 32 35 39
36 29 23 18 20 24 33 43 50 56 62 70 69 81 86 85 84 81 79 76 76 76 73 72 68 60 54 45 42 39 38 34 39 45 43 38 34 33 32 31 31 31 31 31 30 30 31 32 34 36 38 41 44 47
35 29 23 19 20 24 32 41 50 55 60 64 62 77 86 82 86 87 85 84 83 82 80 77 70 63 57 51 49 47 46 49 53 50 44 40 39 38 37 38 38 38 38 38 38 38 39 40 42 45 47 49 52 55
35 29 24 20 21 25 31 40 48 56 54 56 60 70 83 86 86 90 90 89 88 85 84 78 73 70 65 58 57 57 59 59 55 51 47 46 46 47 47 47 46 46 46 46 46 47 48 50 51 53 55 58 60 63
36 31 26 21 21 25 30 39 45 51 49 51 60 68 78 86 89 90 92 92 90 87 86 83 80 76 70 66 66 67 64 61 61 58 55 54 54 53 53 54 54 53 53 54 55 56 57 58 59 61 64 66 68 70
37 30 27 25 22 26 30 35 40 44 47 51 58 66 72 81 91 94 95 95 94 93 91 89 86 80 76 74 74 73 71 70 68 66 64 63 61 60 60 61 61 61 62 62 63 64 65 67 68 69 71 73 75 77
38 32 27 26 25 26 31 34 36 39 43 53 56 63 66 73 85 93 96 98 97 97 95 94 90 88 85 83 81 80 78 77 76 74 71 70 69 69 69 69 68 69 69 70 71 72 73 74 75 76 78 80 83 86
41 34 29 27 26 28 31 33 35 38 44 52 58 61 64 71 78 87 96 101 101 99 98 97 96 94 92 90 88 86 83 82 81 80 78 77 77 76 76 76 76 77 78 78 79 79 79 80 82 84 86 88 90 93
43 35 30 26 27 27 31 33 34 37 45 52 58 62 66 68 74 81 88 94 97 99 101 100 100 98 96 95 94 92 90 89 87 85 84 83 82 82 82 83 83 85 85 85 86 86 87 88 90 92 93 95 99 102
43 37 33 28 26 28 30 34 35 38 45 52 57 62 66 68 71 77 81 85 90 93 94 96 99 101 101 99 98 97 96 95 93 92 91 89 89 89 89 90 90 90 90 91 91 92 94 95 96 98 102 104 106 107
43 38 33 30 27 28 31 33 35 37 43 51 55 59 63 68 72 72 72 77 84 88 89 91 91 92 95 97 99 99 100 100 99 97 97 97 97 97 97 97 96 97 97 97 98 99 99 101 103 105 107 108 106 104
43 39 35 31 29 28 29 33 35 37 40 48 54 58 62 65 68 71 71 71 74 79 84 89 90 91 91 91 91 92 92 94 96 98 99 99 99 100 101 101 101 102 102 102 102 102 102 102 102 101 99 98 97 96
42 39 35 30 29 30 30 31 35 37 38 44 51 56 60 64 68 70 72 73 73 77 80 81 82 84 86 87 86 85 85 86 87 89 91 92 93 93 93 94 95 95 94 94 94 94 93 93 93 94 95 94 94 93
43 39 35 31 29 29 30 32 34 36 38 42 46 52 58 64 67 68 70 71 74 71 75 79 81 81 82 83 83 84 84 84 84 83 84 84 84 85 86 86 87 87 87 88 89 89 89 90 91 91 90 90 90 90
43 39 35 32 29 28 29 30 33 35 37 39 43 48 53 59 63 66 69 71 73 75 77 78 80 80 80 81 82 82 83 82 83 83 83 83 84 85 86 86 86 86 87 87 87 88 87 87 88 89 89 88 87 85
39 34 34 31 29 28 28 29 31 33 35 37 40 44 48 53 58 63 68 71 74 77 78 79 80 81 81 81 80 80 81 82 81 81 81 81 81 81 81 82 83 83 84 84 84 84 84 85 87 87 87 86 85 83
36 32 32 31 29 28 27 28 30 32 34 35 38 42 45 48 52 58 63 67 71 75 77 78 79 79 80 80 80 80 80 81 80 78 77 76 76 78 79 80 82 81 81 82 82 83 84 85 85 85 84 82 80 78
36 31 30 29 29 28 27 27 28 30 31 33 36 39 42 45 48 52 55 60 64 68 71 74 75 76 77 77 77 76 76 77 77 77 78 77 77 77 77 78 78 79 79 79 79 80 80 80 79 78 75 73 71 66
34 29 29 27 26 27 28 27 27 28 29 30 32 35 39 42 46 47 50 52 55 60 63 66 68 70 71 72 73 73 74 74 74 74 75 75 75 74 75 75 75 75 74 73 72 71 69 67 66 64 62 60 57 54
31 28 27 26 25 25 27 27 27 27 27 29 30 31 34 37 41 44 45 47 49 51 53 55 58 60 61 62 63 65 65 66 67 68 68 68 68 68 68 68 67 66 65 65 63 62 61 59 56 53 50 48 46 44

GFSWCAN_250_spd_021.txt.gz
Wind_Speed
82 70 60 51 44 35 24 15 16 28 33 36 42 51 62 67 68 67 61 55 51 45 39 34 30 29 26 22 22 22 22 19 18 16 16 20 22 23 23 23 25 26 28 29 32 35 39 45 51 52 50 49 51 52
80 67 59 50 42 33 21 13 19 29 34 39 45 54 60 65 68 66 61 55 50 46 40 34 32 35 30 25 23 23 23 21 19 19 18 18 20 21 23 24 25 25 25 26 27 29 37 46 51 53 52 50 51 51
76 65 57 48 40 31 18 14 20 30 37 41 47 59 68 70 72 66 61 56 50 47 41 37 33 38 34 28 26 25 26 25 22 20 19 19 20 21 23 25 25 24 25 26 26 28 33 41 48 52 54 55 56 57
73 61 54 46 38 28 17 14 22 33 39 44 53 62 69 73 72 67 61 56 51 47 43 39 32 39 37 31 29 26 25 28 27 22 22 20 20 19 17 19 22 23 24 24 23 26 30 36 42 48 53 56 58 59
70 59 51 45 36 26 16 15 23 34 41 46 55 64 72 74 72 67 61 56 51 47 42 38 34 38 38 37 33 30 25 24 27 27 25 26 23 21 20 18 16 17 18 19 22 26 27 30 33 37 40 44 47 50
67 56 48 42 34 25 16 15 24 35 42 47 57 68 74 76 73 68 61 56 52 49 46 39 39 33 41 40 38 32 28 28 26 28 29 28 27 23 22 23 22 21 20 21 21 22 22 23 23 25 28 30 33 35
63 54 48 41 32 23 15 16 25 35 42 47 59 69 73 74 71 65 61 59 55 52 47 43 37 38 37 43 41 37 32 30 31 29 29 29 27 27 27 25 24 23 23 23 24 26 27 29 29 32 33 35 36 36
59 50 46 38 30 21 15 17 25 38 45 50 60 71 74 76 74 70 64 58 55 54 49 45 40 37 37 35 43 41 36 34 31 31 30 29 29 30 29 27 24 21 20 19 19 21 23 24 25 27 29 31 33 34
58 48 44 37 28 19 14 17 26 38 47 53 60 69 75 77 75 71 67 62 58 53 49 47 43 37 34 34 32 35 42 38 37 33 30 29 30 31 28 27 24 24 24 24 25 26 27 28 29 31 32 34 36 38
58 49 42 36 26 19 14 18 28 40 50 56 62 70 76 77 79 78 74 68 59 54 52 49 43 42 37 32 29 32 32 37 44 41 40 39 40 38 34 31 29 30 30 31 33 33 34 34 37 40 41 43 44 45
55 49 42 34 25 18 14 17 27 40 50 56 60 67 73 82 83 81 75 68 59 52 51 49 47 45 42 40 37 34 32 35 34 48 46 48 51 48 43 39 39 37 36 36 37 38 39 42 44 46 47 49 50 51
52 47 40 33 24 17 14 16 26 39 49 55 59 66 80 84 87 82 75 67 58 54 52 53 52 49 47 45 40 36 33 29 31 38 53 59 59 53 47 45 43 42 41 41 43 43 45 48 49 50 51 49 46 44
52 46 40 33 25 17 13 15 25 37 47 54 57 63 77 81 84 79 71 64 56 55 59 60 58 56 53 46 38 33 30 30 33 40 49 66 59 54 49 47 46 46 46 45 47 49 48 44 39 34 33 32 31 30
52 45 40 33 25 19 14 16 24 36 44 50 53 56 68 78 82 76 72 71 71 71 69 67 63 59 55 46 40 36 32 29 28 39 49 52 50 52 49 48 48 47 47 49 45 37 29 25 23 24 24 25 26 28
53 43 40 33 26 20 16 17 24 31 36 44 47 48 58 72 79 81 78 77 79 77 74 72 66 60 55 46 44 38 35 31 36 37 39 43 45 45 46 46 44 42 36 34 32 28 28 27 28 29 30 31 33 35
55 45 38 35 28 21 19 18 22 29 31 37 40 39 58 69 76 82 85 85 84 82 79 74 67 62 58 53 50 44 41 45 45 39 32 31 33 33 32 32 32 32 32 32 33 33 33 34 35 36 37 39 41 44
54 46 38 34 30 22 20 22 23 28 30 31 39 43 59 71 77 84 88 88 88 85 82 78 73 70 63 58 55 52 53 52 46 43 38 35 36 35 36 36 37 38 38 39 40 41 41 41 42 44 46 48 50 52
55 46 35 32 31 28 20 24 26 27 28 33 39 47 62 69 76 83 88 89 91 90 87 82 78 74 68 63 61 62 58 54 53 51 47 45 44 45 45 45 45 45 45 46 46 46 48 49 50 52 54 56 58 60
55 51 38 32 30 28 25 23 28 27 28 34 40 48 60 69 75 81 87 91 92 93 92 88 83 78 74 70 69 67 65 63 61 60 57 54 52 52 53 53 52 53 53 53 53 54 55 57 58 60 62 64 66 68
55 49 39 33 31 28 26 24 27 29 29 34 40 49 58 67 74 80 84 89 93 95 94 90 87 86 83 77 74 74 73 71 69 67 65 63 62 60 60 59 59 60 60 61 61 62 63 64 66 68 70 72 73 75
57 51 43 36 33 29 27 26 25 30 33 35 40 48 55 65 71 77 83 87 89 89 89 91 92 90 87 83 81 80 79 78 77 75 73 72 70 68 67 67 67 67 67 68 69 69 71 72 73 75 77 79 80 83
57 51 46 40 36 33 29 26 25 29 35 37 41 44 52 60 68 72 76 83 86 88 91 92 92 92 91 89 88 87 86 85 84 83 81 79 77 76 75 75 75 75 75 76 76 78 78 79 81 82 84 85 87 89
55 49 47 42 37 33 29 27 27 28 36 39 42 46 51 56 62 71 73 73 78 83 88 92 95 95 93 92 93 92 92 91 90 89 88 85 84 83 83 82 81 81 80 80 82 82 83 85 87 88 89 91 93 95
55 49 46 42 36 33 30 29 28 29 34 41 44 47 50 54 60 65 66 69 69 74 80 83 83 89 94 95 94 94 93 92 92 91 92 91 90 90 90 89 89 89 89 88 88 89 90 91 92 94 96 97 99 101
56 52 44 42 36 32 30 29 29 30 33 39 45 48 52 56 58 60 62 66 67 70 75 78 82 83 84 88 93 96 96 96 96 96 96 95 95 95 95 95 95 94 94 94 95 96 98 99 99 100 100 99 100 100
55 49 44 41 37 32 29 28 29 30 32 37 44 48 51 54 57 60 63 66 67 68 71 74 77 81 82 84 85 86 89 92 94 96 96 96 95 95 95 94 94 94 92 91 93 93 93 93 93 94 93 93 93 92
55 49 44 41 40 34 30 28 28 31 33 36 41 46 49 52 54 57 61 65 68 70 72 75 76 79 83 83 84 85 86 86 87 87 87 88 87 86 86 85 83 83 84 85 85 85 85 86 86 85 85 87 88 88
54 50 44 41 39 34 30 29 28 29 32 35 39 44 46 47 49 54 59 64 68 72 74 76 78 82 83 81 81 80 80 82 83 84 84 83 81 80 79 79 79 80 80 81 81 81 81 81 82 84 84 85 86 87
53 48 43 40 36 32 31 29 28 28 30 32 36 40 43 45 46 50 55 62 66 70 74 76 79 83 82 82 82 82 81 80 80 80 81 81 80 79 78 80 81 81 81 81 81 81 81 82 83 84 85 85 86 86
52 48 43 39 35 32 28 28 27 27 29 31 34 38 41 43 45 48 52 56 61 68 72 75 79 82 81 82 83 84 84 83 81 80 81 81 81 80 81 81 82 82 82 83 83 83 83 84 84 85 85 85 85 85
51 47 42 37 33 31 28 27 27 27 28 29 31 34 37 39 42 45 48 52 56 62 67 71 74 77 79 81 83 84 85 84 83 83 82 83 82 82 82 82 83 83 83 84 84 84 83 84 84 84 83 82 81 80
48 43 38 33 30 30 27 27 27 27 27 28 29 31 33 36 38 41 43 47 50 54 58 62 65 67 70 74 77 79 79 80 80 81 81 80 80 80 80 80 80 81 81 81 81 80 79 78 77 76 74 69 64 61
43 38 33 29 28 29 27 26 27 26 26 26 28 29 31 33 34 36 39 42 44 47 49 52 54 56 59 62 65 67 68 69 70 71 72 72 72 72 73 72 72 71 70 69 68 66 64 63 61 59 55 52 49 45

GFSWCAN_250_spd_024.txt.gz
Wind_Speed
75 71 72 64 56 51 43 32 24 13 10 16 26 30 38 47 58 65 66 62 58 53 46 40 37 32 26 21 24 21 15 11 14 16 16 16 17 14 11 10 7 21 24 27 26 31 29 28 29 32 36 43 47 54
72 69 70 62 52 47 42 28 23 13 13 21 29 32 44 53 62 67 66 63 57 52 46 40 39 35 28 23 22 25 20 16 13 14 18 15 14 13 11 13 15 17 20 19 22 25 26 24 27 29 29 42 47 50
70 67 66 58 49 44 38 28 21 13 15 25 31 36 45 54 67 69 66 62 57 51 47 40 40 36 31 25 22 23 23 22 19 16 17 18 17 14 15 16 17 16 15 16 18 19 20 24 28 31 34 43 48 51
67 67 65 57 49 42 34 26 18 13 19 29 34 39 47 61 68 69 66 61 56 51 47 43 42 41 33 29 24 21 21 21 21 19 18 20 21 22 21 19 17 17 16 17 18 20 22 22 24 28 33 43 49 52
65 65 63 55 47 41 33 24 16 14 22 32 37 40 52 67 71 71 66 59 55 50 46 43 40 45 38 32 27 23 19 21 21 24 22 22 20 19 17 18 20 19 19 18 19 18 19 20 22 28 34 40 45 49
62 64 60 52 45 39 31 23 14 14 24 33 38 44 57 68 72 71 67 59 55 52 47 43 38 43 42 36 32 26 23 21 23 26 24 24 22 22 20 16 13 11 15 16 16 18 18 18 18 20 24 31 38 42
60 63 57 50 43 37 29 21 12 13 25 35 39 46 56 67 72 72 67 63 58 52 48 43 42 37 44 40 36 30 29 25 23 24 26 25 24 26 24 21 19 18 17 15 15 15 15 17 20 22 24 27 30 34
58 61 56 48 41 35 26 20 11 13 26 35 39 46 57 69 74 75 71 64 60 54 51 45 42 38 37 42 38 33 32 31 27 25 24 27 28 27 25 23 21 19 18 18 17 16 16 17 19 20 21 23 25 29
54 57 53 46 38 33 25 18 11 13 26 36 42 46 58 71 77 77 72 65 60 54 50 48 42 39 37 33 39 35 33 32 28 25 23 23 27 26 26 25 24 22 22 21 19 18 19 20 21 21 22 24 25 27
53 54 52 44 38 32 24 17 10 13 26 38 42 45 59 72 77 77 72 66 60 54 50 45 42 39 35 36 30 36 37 34 33 30 28 30 30 29 25 24 24 25 25 24 23 22 22 22 22 24 26 30 32 35
51 52 50 42 36 31 23 15 12 13 25 36 43 48 60 77 80 79 75 67 59 51 48 48 46 43 40 37 34 33 36 40 38 35 35 38 36 32 30 29 29 29 28 26 26 27 27 28 28 30 33 36 40 43
50 51 48 40 33 31 24 16 12 14 23 34 43 50 62 76 78 76 72 65 57 55 50 50 51 49 46 43 40 36 32 32 36 37 44 48 40 40 41 39 37 36 35 34 34 35 35 35 36 37 40 42 45 47
49 50 48 41 31 27 23 16 14 16 23 34 45 50 58 68 70 68 68 62 57 55 59 61 57 56 53 49 45 41 33 32 32 35 42 43 38 44 49 47 47 46 44 43 41 40 40 41 42 42 44 47 47 36
48 49 47 42 31 26 21 17 13 18 23 31 41 48 54 58 64 68 69 70 72 70 71 69 65 59 56 55 49 41 38 38 37 40 39 33 37 37 39 47 59 56 51 48 46 45 44 43 44 47 49 41 32 26
48 48 47 41 31 25 22 17 14 16 22 27 33 42 48 58 66 71 75 78 78 77 75 73 67 63 58 54 49 44 44 41 47 45 35 30 29 30 38 40 41 49 55 51 48 47 46 46 47 40 34 30 29 29
47 48 48 41 34 25 23 20 17 15 20 24 27 32 45 56 65 75 81 84 84 83 80 75 69 63 59 53 51 45 44 51 52 43 37 31 30 30 32 33 33 35 41 45 46 48 47 40 35 33 32 33 35 36
44 48 49 41 34 27 22 20 19 17 15 20 26 32 43 52 65 75 84 87 88 85 81 77 73 68 65 59 53 51 54 54 49 45 40 36 35 33 28 26 28 32 36 38 38 35 33 33 34 36 38 40 41 43
44 47 50 43 34 28 26 21 18 18 17 19 29 35 40 53 63 72 82 87 87 88 85 82 79 75 69 63 62 62 61 54 50 49 45 43 42 40 36 33 31 30 31 31 32 33 35 37 39 42 44 47 49 51
42 47 51 46 38 30 27 25 20 18 19 23 29 40 44 53 63 70 76 82 86 89 90 88 83 77 74 73 71 69 65 59 56 54 53 50 49 47 44 42 41 40 40 40 40 42 43 45 47 49 52 53 55 58
40 45 50 47 39 29 26 26 23 21 21 25 30 40 49 53 61 67 71 76 84 89 91 89 85 85 84 80 77 75 71 66 63 62 60 58 57 56 53 52 51 50 50 50 50 51 52 53 55 56 58 61 63 65
41 46 49 47 41 32 27 25 26 25 24 26 33 38 48 57 62 66 69 73 79 83 87 91 91 89 90 87 83 80 78 75 72 70 69 66 64 63 61 60 59 58 58 58 59 59 60 61 63 64 66 69 70 72
43 48 51 48 42 38 32 27 26 28 27 30 33 40 47 56 63 68 71 73 75 78 82 87 89 90 91 91 89 86 83 81 79 78 76 74 73 72 70 68 67 66 67 67 67 67 68 69 70 72 74 75 76 78
43 49 51 48 43 39 35 30 29 29 31 31 35 40 47 54 62 67 70 71 72 74 78 82 85 87 88 88 88 88 88 86 84 83 82 81 80 79 78 76 76 75 75 75 74 75 75 76 77 79 80 82 83 84
46 52 51 49 42 39 35 33 31 31 32 34 36 41 46 53 60 67 68 70 71 75 77 78 80 82 84 86 88 89 88 87 87 86 86 87 87 86 86 85 84 83 82 82 82 83 83 84 84 85 86 88 90 91
49 53 52 48 41 40 38 34 33 32 33 35 38 40 44 50 55 61 68 71 69 72 77 79 80 81 83 85 85 84 85 87 88 88 88 89 90 89 89 88 88 88 88 88 89 89 88 88 89 90 92 93 94 95
52 54 53 47 43 41 38 36 34 33 33 34 36 38 43 46 52 57 64 68 70 73 73 75 79 81 82 82 84 86 86 86 87 89 91 92 93 93 92 92 92 91 91 93 92 90 90 92 93 93 93 92 91 91
55 56 52 46 41 38 38 37 35 34 33 32 35 37 39 43 46 52 58 64 70 73 71 73 76 77 79 80 82 83 83 84 84 85 86 86 86 87 88 89 91 92 93 91 89 88 89 89 88 87 88 89 88 87
57 56 52 46 41 38 39 38 34 32 32 32 33 35 38 40 43 47 53 59 61 68 72 74 76 75 76 78 79 81 83 83 83 83 83 83 83 84 84 83 83 84 82 80 79 80 80 81 82 84 85 85 85 85
58 54 48 43 41 40 39 38 34 32 32 32 32 34 36 38 41 45 49 53 56 63 70 73 75 75 75 77 79 80 81 82 83 83 83 84 84 84 84 83 82 80 79 80 80 80 80 80 80 80 81 81 81 81
54 51 46 44 43 41 39 38 34 32 32 31 31 32 34 36 37 41 46 50 54 58 63 68 72 74 75 77 79 82 83 83 83 83 84 84 83 84 84 84 83 83 83 82 82 81 81 80 80 80 80 80 80 80
52 48 47 46 44 40 38 38 34 32 32 30 30 30 32 34 36 39 43 46 50 54 58 62 64 66 69 72 77 80 82 83 84 85 85 84 83 83 83 84 84 84 83 83 83 83 83 82 82 81 80 80 79 76
48 50 50 47 43 38 37 36 35 32 30 29 28 30 30 32 34 37 40 43 47 51 53 55 57 59 61 64 68 72 75 77 79 80 81 81 81 82 82 81 81 81 81 80 79 78 78 76 75 73 71 69 68 66
48 49 47 44 40 36 34 34 34 31 28 26 26 27 29 31 32 35 38 40 43 45 47 49 51 53 56 59 60 62 64 67 69 70 70 70 71 72 73 74 73 73 73 74 74 73 72 69 66 65 64 62 58 54

GFSWCAN_250_spd_027.txt.gz
Wind_Speed
100 88 80 76 72 70 64 54 47 34 25 16 11 15 19 27 33 42 52 58 61 56 51 46 41 36 31 25 23 20 16 16 15 20 30 29 19 10 14 9 37 32 35 35 34 35 36 29 29 29 17 20 25 29
94 82 77 73 69 68 61 51 44 32 22 15 14 19 21 28 39 45 56 58 59 56 51 47 42 36 30 23 24 20 18 17 16 18 24 20 19 9 8 5 12 16 26 19 12 23 15 23 18 16 16 16 19 27
88 77 74 70 68 64 57 48 40 28 20 16 19 23 25 31 44 53 59 59 56 55 49 46 40 34 29 25 26 22 18 16 15 13 16 17 15 10 11 10 10 15 18 16 17 17 18 17 16 13 14 15 17 20
82 73 70 68 65 62 54 45 38 26 19 17 20 23 28 37 54 59 61 58 57 54 49 44 38 34 30 25 26 24 21 17 16 13 13 15 14 13 14 14 14 15 14 15 16 17 17 16 14 15 16 17 19 20
76 68 67 64 62 58 50 43 35 24 18 18 21 26 32 44 59 63 64 60 56 52 48 43 40 37 33 28 24 23 20 17 15 15 15 14 15 15 15 10 7 10 12 13 14 12 13 14 15 16 17 18 17 21
71 65 63 62 61 53 46 40 32 22 18 18 22 28 38 49 59 65 66 61 57 52 49 45 42 41 36 31 26 22 25 22 19 18 17 15 14 14 13 9 12 10 10 10 9 9 8 8 9 11 13 15 17 18
68 62 60 60 60 51 43 37 29 20 17 18 23 30 41 55 64 71 68 64 58 52 48 44 44 41 38 33 29 24 21 21 21 20 21 19 19 18 15 12 10 9 8 9 9 9 7 7 8 10 11 13 17 20
64 58 55 57 59 49 40 34 28 19 15 17 25 33 42 59 66 70 66 64 61 56 49 45 43 41 38 35 32 28 25 22 22 24 24 25 24 21 19 15 14 14 13 13 12 10 8 7 7 7 7 8 11 13
61 54 51 54 58 50 40 32 24 17 12 16 26 35 47 58 71 73 66 67 62 56 50 46 41 39 40 39 35 32 29 26 24 21 20 20 20 22 22 20 20 20 19 18 15 13 11 10 8 8 10 12 14 16
57 51 47 50 55 50 39 32 23 15 10 16 25 35 43 56 65 74 71 68 63 57 53 48 43 41 35 39 40 35 34 31 28 25 21 19 14 13 16 16 16 17 16 16 16 16 15 14 15 15 15 15 17 20
53 49 44 45 51 49 37 31 24 15 9 12 22 31 40 51 61 73 72 67 63 58 54 50 47 43 41 37 35 39 41 35 33 32 29 25 22 19 20 21 20 20 19 20 21 20 19 19 18 19 20 23 25 27
50 47 42 41 47 47 38 30 23 16 10 12 23 33 40 47 56 63 71 68 63 61 57 54 52 49 44 41 39 34 36 41 40 34 34 33 28 27 27 28 29 27 26 26 27 27 26 26 27 27 28 31 33 35
47 44 42 36 43 42 40 30 24 16 12 12 20 29 37 43 48 53 70 68 64 64 63 60 56 53 50 47 41 36 36 37 38 42 43 35 33 34 34 34 34 34 34 33 32 32 33 35 36 35 37 38 39 40
46 42 40 34 38 38 36 31 24 17 13 12 17 27 35 37 39 58 70 73 76 74 72 69 62 56 53 51 46 41 35 34 36 37 35 36 37 38 38 38 39 40 41 43 43 44 45 46 45 44 44 43 42 42
45 40 37 34 35 36 34 30 25 22 15 12 15 22 29 36 41 51 72 81 80 78 76 72 66 63 61 56 51 46 43 41 44 39 35 32 31 32 33 35 37 39 39 39 43 48 52 55 53 50 48 45 44 47
45 42 37 33 33 36 34 29 25 22 17 12 14 19 26 42 45 52 71 83 83 83 80 76 71 67 63 58 54 51 47 50 50 38 34 33 33 33 32 31 31 30 30 31 35 38 45 51 48 49 48 46 47 48
42 42 38 33 31 35 35 31 24 22 21 15 17 23 31 43 50 54 67 83 87 87 83 79 75 73 67 60 56 54 55 57 51 44 40 39 37 37 35 34 33 32 30 30 31 32 32 34 37 41 44 46 43 37
40 39 38 35 31 33 34 34 29 23 21 21 19 24 37 44 50 56 63 77 87 88 87 83 80 75 69 65 64 64 60 55 50 47 47 45 44 42 40 38 37 36 33 33 31 26 26 29 31 32 33 34 36 38
39 39 38 34 32 32 34 36 34 30 24 22 23 25 33 45 52 57 63 70 81 89 89 87 82 78 75 74 73 69 66 60 55 53 52 51 49 46 45 44 43 40 38 37 36 35 33 32 33 35 37 39 42 45
37 38 38 35 32 32 34 35 34 32 30 26 26 27 33 43 53 60 63 67 75 81 89 88 84 85 84 82 79 75 72 68 62 59 57 54 53 53 51 50 49 47 46 44 42 42 42 43 44 45 47 48 51 53
36 38 36 33 34 32 33 35 34 34 32 30 29 30 32 39 49 59 66 69 74 77 83 84 87 90 89 89 88 83 78 74 70 67 64 62 60 60 58 57 56 54 52 52 52 52 52 52 52 53 54 56 58 60
38 39 36 33 33 33 36 38 37 36 34 33 32 32 34 38 45 54 65 72 74 73 77 80 82 87 90 91 92 88 84 81 79 76 72 70 69 68 67 66 64 62 61 61 60 60 60 60 60 61 63 65 66 67
41 40 36 36 35 35 37 41 40 38 37 36 35 34 35 38 42 49 58 65 72 75 74 75 78 81 85 89 92 91 88 87 85 82 80 78 76 74 74 73 73 71 71 70 69 68 69 69 70 70 72 73 74 75
42 42 37 37 39 38 39 41 42 40 40 39 37 36 36 37 40 45 49 57 64 70 76 78 80 82 83 85 87 88 88 88 88 86 85 84 83 82 82 81 80 79 78 77 77 77 77 77 78 80 80 80 83 84
43 40 37 39 41 40 41 43 43 42 40 40 38 38 38 38 39 42 45 51 59 66 71 78 81 82 83 84 84 84 84 85 86 86 85 86 84 83 83 84 84 84 84 83 83 83 84 85 86 87 85 88 89 89
42 38 40 43 43 43 44 44 45 43 40 39 38 38 38 38 38 40 44 49 53 60 67 71 76 81 83 83 83 83 81 82 82 82 82 83 84 84 85 85 85 85 85 85 85 86 87 89 90 87 88 89 90 90
43 41 41 42 42 44 45 44 45 44 41 38 38 38 38 38 37 39 41 45 50 54 63 67 72 79 82 83 83 83 82 80 80 80 80 81 82 83 83 83 84 84 84 84 86 88 90 88 88 89 90 91 90 88
44 44 45 45 45 47 47 47 46 44 41 39 38 37 37 37 36 37 38 41 46 51 56 62 68 72 76 80 81 81 81 80 80 80 80 81 81 81 82 82 82 83 85 87 87 85 84 83 83 83 83 83 83 82
46 45 45 46 48 49 49 48 46 44 41 38 37 37 36 35 35 36 37 39 43 48 52 57 63 65 69 73 77 80 80 80 80 80 81 82 82 82 82 83 84 84 84 84 82 80 79 79 79 80 81 81 79 78
45 45 46 48 50 50 49 47 46 44 41 38 36 35 35 34 34 35 37 38 40 45 49 51 54 59 63 67 73 77 79 80 81 82 83 83 84 85 86 86 85 84 83 81 80 80 80 80 80 79 78 78 76 75
44 45 47 50 51 51 49 47 45 43 40 38 35 34 33 32 32 33 34 36 38 40 44 48 50 51 57 64 67 71 75 78 81 82 82 83 83 84 85 85 85 85 84 85 85 84 83 83 83 81 80 79 77 74
45 47 49 51 50 49 47 45 45 43 40 37 34 32 31 30 29 30 32 33 35 37 40 43 46 49 54 60 63 65 68 71 75 77 79 81 81 82 83 83 82 81 81 82 82 81 81 81 80 79 76 73 71 69
47 48 50 49 48 47 44 43 43 42 40 36 33 29 29 28 27 28 30 31 33 34 37 39 41 44 48 53 56 57 58 60 63 67 71 74 76 77 77 77 78 77 77 78 78 76 75 74 73 71 69 65 62 61

GFSWCAN_250_spd_030.txt.gz
Wind_Speed
108 106 101 93 87 85 80 70 67 55 48 36 24 16 8 10 14 19 27 39 48 46 51 50 47 42 37 33 26 24 23 18 21 30 27 26 30 23 27 21 24 34 31 34 28 25 25 22 19 18 10 5 3 8
106 104 98 89 83 81 77 68 62 52 46 34 22 14 11 13 17 23 32 45 49 52 51 49 44 39 34 30 27 25 24 18 23 33 35 26 26 16 17 30 18 24 31 29 28 28 22 20 16 13 14 8 11 5
105 101 93 83 78 76 71 66 60 47 42 32 20 14 14 15 21 29 38 45 53 53 52 47 42 36 32 28 29 24 23 22 21 25 31 26 20 16 11 11 26 17 23 19 26 25 20 22 20 14 11 9 10 4
102 97 87 79 75 72 67 62 57 45 39 29 19 14 17 20 25 32 43 50 52 53 50 47 40 36 31 29 28 25 20 19 19 21 21 22 20 21 13 11 16 15 8 12 19 19 18 19 16 10 5 5 9 7
98 92 81 75 72 69 64 58 53 44 35 27 19 15 19 23 29 40 48 54 54 51 48 43 39 35 29 25 25 24 21 18 15 16 18 19 18 19 14 11 11 9 9 14 14 15 15 14 11 11 9 6 6 7
93 86 76 70 69 67 60 55 49 41 33 25 17 17 22 27 34 47 58 57 55 51 45 41 41 38 31 26 26 23 20 16 15 16 20 23 19 16 15 11 11 11 12 14 12 12 9 5 5 7 9 9 9 10
88 80 71 65 66 64 57 54 45 37 29 22 14 16 25 30 42 55 63 60 57 52 47 42 40 40 35 30 26 24 22 21 20 16 12 12 13 12 11 9 9 11 11 8 7 6 4 4 4 4 5 7 9 10
82 76 66 61 61 60 54 51 43 35 27 18 12 17 28 36 46 58 61 58 58 53 46 42 41 39 39 33 30 27 26 23 21 19 18 15 12 10 9 8 7 8 9 8 6 6 5 4 3 4 3 4 5 6
75 70 62 58 57 56 51 47 42 33 26 17 11 17 29 37 44 58 61 58 58 54 48 45 42 37 38 36 32 29 26 25 23 20 19 17 13 12 9 9 9 9 10 9 8 9 9 9 8 8 9 7 6 7
70 64 58 54 53 52 49 45 38 32 24 16 10 16 30 35 43 54 60 62 60 55 51 47 44 39 37 37 35 32 29 27 25 21 19 17 14 12 13 16 15 13 13 16 14 12 9 9 9 10 9 10 11 13
64 59 55 50 47 47 46 43 37 30 24 15 7 16 29 34 39 45 57 62 61 57 55 50 46 45 39 40 39 37 33 30 27 26 24 20 18 18 16 14 15 14 15 16 13 12 13 14 14 15 15 16 18 20
59 55 51 47 42 42 42 43 37 30 24 17 8 14 25 32 33 34 47 60 62 61 59 54 51 50 46 40 39 37 38 35 33 29 28 26 24 22 21 21 21 19 17 18 17 18 19 20 22 23 23 24 25 26
53 51 48 44 38 37 36 40 39 28 22 17 9 8 17 25 25 27 53 67 67 69 68 64 59 55 51 46 39 35 37 39 37 36 34 28 28 28 27 26 24 25 25 25 24 24 26 29 29 30 30 31 34 35
51 48 44 41 36 33 30 35 37 31 22 16 11 12 14 20 27 38 56 70 77 75 72 67 62 59 55 49 43 40 35 32 36 38 36 34 34 33 33 31 30 30 31 31 31 32 33 34 37 38 40 42 44 45
49 45 42 38 34 30 25 29 32 32 26 18 13 13 16 24 34 38 51 72 80 79 74 71 66 63 58 50 46 41 39 38 39 36 34 33 34 35 35 35 35 35 34 35 35 34 35 36 39 42 44 47 50 51
46 43 40 36 32 28 24 23 28 28 27 23 16 14 20 29 37 42 53 64 73 81 79 73 69 65 61 54 51 49 48 50 48 37 36 35 33 33 32 32 32 31 31 32 32 32 34 36 38 42 46 49 50 50
43 42 38 36 33 29 23 20 23 27 24 23 19 15 22 31 39 46 52 59 62 69 80 79 75 72 67 62 58 57 59 59 53 43 39 38 38 38 38 38 38 37 36 35 33 33 35 33 32 31 32 35 35 35
41 39 37 36 34 31 24 21 19 24 26 23 20 19 20 29 38 47 55 60 63 65 68 78 83 78 71 68 69 68 63 58 53 48 46 46 45 44 44 43 42 41 40 39 38 38 37 34 32 30 30 28 27 28
38 38 36 37 36 33 28 25 22 22 25 28 25 22 23 26 34 42 52 62 65 67 67 70 78 84 80 76 76 73 69 63 57 55 53 52 50 49 49 47 45 44 43 42 42 42 40 38 36 36 35 34 34 34
37 37 36 39 37 35 32 26 25 23 25 27 30 28 25 27 31 38 45 54 66 69 69 67 68 76 84 87 83 79 75 71 67 63 60 56 55 54 52 52 50 49 48 47 45 44 43 43 43 43 42 42 43 43
35 35 35 39 40 35 32 29 29 26 26 30 33 33 31 30 32 36 42 49 56 65 68 67 69 73 79 87 90 88 83 79 75 71 68 65 62 59 57 56 55 54 52 51 51 50 49 49 49 49 50 50 51 52
35 34 35 38 39 36 33 31 31 29 28 31 34 38 38 34 34 38 42 46 50 55 61 68 72 73 76 83 87 90 90 88 83 79 76 73 70 66 64 62 61 60 59 58 58 57 58 58 57 57 58 59 60 61
36 33 34 39 39 34 34 34 35 33 30 33 36 40 42 41 39 38 41 46 47 51 55 61 71 74 76 77 81 88 93 91 89 86 82 79 77 75 73 71 69 67 66 66 66 65 65 65 65 66 67 68 69 70
35 34 36 40 41 36 35 36 36 34 34 36 38 42 45 45 44 41 41 44 47 50 52 54 61 70 75 77 77 81 87 91 93 91 88 85 83 81 80 78 78 76 74 74 74 74 73 73 74 74 75 76 78 78
33 35 39 42 41 39 38 39 37 36 36 38 42 46 47 46 45 43 41 42 44 48 49 50 54 62 69 75 79 79 81 85 89 91 91 90 88 84 82 82 80 78 78 78 79 79 79 79 80 80 81 84 86 84
34 37 43 42 42 41 40 39 38 38 40 43 46 49 47 45 44 43 41 42 43 45 47 48 52 59 65 70 77 79 80 79 83 84 86 87 87 86 84 83 81 80 80 80 80 79 79 80 80 81 84 87 85 83
39 39 41 42 42 41 41 40 38 39 43 48 51 48 44 43 43 42 41 42 42 42 44 46 50 55 60 65 71 77 78 78 80 80 81 80 80 81 81 82 82 82 82 82 80 80 80 80 82 84 86 85 84 83
40 42 42 41 41 41 41 39 39 40 46 51 52 46 42 42 43 43 42 41 39 39 40 42 47 52 57 61 67 73 76 77 76 78 78 78 77 76 77 77 78 79 79 79 80 81 82 83 84 84 82 79 79 80
41 41 42 41 41 40 39 38 39 44 48 53 49 43 43 42 43 42 40 38 37 36 37 39 41 46 52 57 61 66 70 72 74 77 77 79 79 78 76 76 76 76 77 77 78 78 80 81 79 78 77 77 77 78
42 41 41 41 40 38 38 40 43 47 51 52 48 45 44 44 42 39 37 36 35 33 34 36 38 41 46 52 56 59 64 66 68 73 76 78 78 77 77 76 75 76 77 77 77 78 77 76 76 76 76 77 77 76
40 41 41 41 39 38 40 43 47 50 53 51 48 46 44 42 39 35 32 32 32 31 32 34 36 39 42 46 50 52 57 60 63 67 71 74 75 76 77 77 77 76 75 75 75 75 76 76 76 76 75 74 74 72
41 41 41 40 39 40 42 46 50 52 51 50 48 46 42 38 35 32 29 29 30 30 29 31 34 37 40 43 46 49 51 52 55 61 66 67 71 74 74 74 74 75 75 75 75 74 74 75 74 74 74 74 73 68
41 40 38 38 39 41 44 48 50 50 50 50 47 44 40 35 32 29 27 26 26 27 27 28 31 34 37 39 41 44 45 48 51 55 58 62 66 68 71 71 72 73 72 72 73 73 73 73 73 72 71 69 66 65

GFSWCAN_250_spd_033.txt.gz
Wind_Speed
110 108 103 93 90 85 84 81 77 69 65 57 46 34 21 14 9 9 12 17 21 27 31 35 35 36 37 40 39 35 32 29 26 29 30 29 25 44 44 36 24 23 26 22 16 12 11 11 6 3 5 6 9 15
104 102 96 89 85 81 81 78 72 66 62 53 42 31 20 12 9 9 13 18 24 30 35 38 41 44 41 38 35 31 26 22 27 34 35 31 30 41 43 32 21 14 23 18 16 15 13 15 10 11 9 7 6 8
97 96 89 84 83 78 77 74 68 63 59 49 39 28 18 12 11 12 17 22 29 33 39 44 45 41 39 34 29 23 22 21 31 39 37 34 27 30 34 32 26 13 12 21 18 12 14 15 16 17 17 12 2 2
91 88 83 80 81 76 74 70 66 61 58 45 36 26 16 12 14 18 22 25 33 39 44 45 44 41 36 31 26 21 21 24 36 34 34 31 29 27 23 32 21 19 18 11 19 26 23 26 24 14 9 9 12 11
87 82 78 78 79 73 70 67 62 57 54 42 33 23 13 12 17 21 23 29 38 42 43 43 41 40 33 28 22 22 22 25 35 35 34 29 31 30 26 25 20 12 17 26 21 17 14 10 6 10 6 4 13 16
81 78 74 76 76 70 67 64 60 55 50 37 29 19 11 13 20 24 26 35 41 44 43 43 39 37 33 26 20 22 25 25 28 29 30 27 28 24 23 25 21 20 19 20 17 11 10 7 4 5 7 6 8 10
76 77 70 75 74 67 63 61 57 53 47 35 26 17 10 17 25 31 37 39 42 43 44 41 37 36 33 28 26 26 28 29 28 28 29 28 27 24 22 21 18 18 14 14 8 6 6 6 6 4 5 7 7 7
73 74 69 73 72 63 59 58 55 50 45 32 23 14 9 20 27 32 39 41 44 42 43 41 38 36 35 30 28 27 25 24 22 21 23 22 19 18 18 18 15 15 13 11 11 8 5 4 6 6 6 6 5 7
73 71 70 70 68 59 55 55 52 48 42 29 20 11 10 20 26 29 41 46 47 46 45 42 39 37 37 34 30 30 27 23 22 22 23 23 21 19 18 15 12 10 11 10 7 5 5 6 6 6 6 6 5 5
70 67 68 68 65 55 51 51 49 45 40 28 19 11 9 18 24 31 38 47 49 49 47 45 42 40 39 37 34 32 30 28 25 24 24 21 17 13 11 11 12 13 12 12 10 7 11 12 12 11 11 9 8 8
69 66 65 66 61 50 47 48 45 42 36 26 17 11 7 15 23 27 33 47 51 52 49 47 46 42 41 39 37 34 33 31 29 28 26 23 22 20 18 17 16 15 15 14 12 14 17 17 17 15 14 14 14 15
65 64 63 64 56 46 44 44 42 38 35 25 17 10 4 11 20 25 34 44 55 56 53 52 49 46 42 42 39 36 34 33 31 29 27 26 27 25 25 23 21 20 18 17 18 20 19 19 18 17 17 18 19 21
62 60 62 59 51 44 39 39 38 33 29 28 17 10 5 9 16 21 32 51 57 59 54 54 53 48 45 41 40 39 37 36 34 33 29 28 28 28 26 24 24 24 25 23 20 20 21 20 20 21 23 25 27 28
57 57 60 53 45 41 36 34 34 31 26 23 18 12 5 13 16 23 37 51 52 55 57 55 58 55 50 46 43 42 39 37 37 35 33 32 31 30 28 27 26 25 24 23 23 22 22 23 24 26 28 31 33 36
53 56 55 44 41 38 35 31 30 28 24 21 21 13 9 13 23 27 36 53 52 54 58 58 56 58 54 50 46 43 44 44 46 42 38 36 36 36 34 33 32 30 29 29 29 29 29 30 31 34 35 34 34 35
51 53 49 38 38 36 34 29 27 26 24 19 17 20 14 13 17 32 39 51 50 53 56 58 57 57 57 56 52 50 48 50 48 41 39 41 42 41 40 39 38 37 36 36 36 37 37 36 34 31 29 29 30 33
50 49 43 35 34 35 32 30 25 23 24 23 17 16 16 16 17 21 37 49 50 52 56 58 64 61 56 57 58 58 60 60 48 40 40 42 42 40 39 38 38 37 37 36 35 33 31 31 30 30 30 31 33 33
48 44 36 34 31 35 33 30 25 23 24 25 22 18 17 17 17 21 26 37 52 54 55 54 56 65 67 64 66 69 65 62 55 50 47 46 44 44 45 44 43 41 39 38 36 36 36 36 36 37 37 38 38 37
45 38 34 33 31 33 36 33 26 24 24 27 27 23 20 18 19 21 23 28 36 46 54 57 54 58 68 72 75 73 70 68 65 61 56 55 53 50 49 48 48 47 46 44 44 44 44 44 44 44 43 42 42 42
40 34 34 33 33 33 36 33 31 28 26 26 29 29 26 23 23 21 23 28 32 37 40 43 48 56 64 69 78 81 81 76 72 68 66 62 59 57 57 55 54 53 52 50 49 48 47 47 46 46 46 46 46 46
38 34 34 36 36 34 35 35 35 30 28 28 30 32 31 29 28 28 28 27 31 36 39 39 43 49 58 68 71 77 80 81 82 80 75 71 68 65 62 61 60 59 57 56 54 52 50 49 50 49 50 50 50 51
36 34 35 36 37 37 36 35 36 33 30 30 32 33 33 32 33 33 34 35 35 35 37 41 44 47 50 57 68 75 76 78 79 82 83 82 79 73 71 70 67 65 62 60 59 57 56 56 55 56 56 56 57 58
35 35 35 36 36 37 38 38 38 34 31 33 33 34 35 35 37 37 39 40 39 40 40 40 44 47 51 51 55 64 72 77 79 80 82 85 85 84 81 77 73 70 68 67 65 64 63 63 62 62 62 62 62 64
34 33 36 39 38 37 37 39 41 37 34 33 34 35 36 36 38 40 43 44 45 45 46 44 43 46 50 52 51 54 61 68 77 80 81 83 85 86 85 83 81 79 76 73 72 71 70 70 70 70 70 70 70 72
35 35 37 40 38 37 37 40 39 37 34 34 35 36 37 38 40 44 47 47 46 46 48 46 43 44 47 50 51 52 55 62 67 73 79 79 81 84 84 83 83 82 81 80 79 78 77 76 75 75 75 75 77 79
35 38 38 38 37 37 38 40 39 37 36 35 37 37 37 38 43 47 50 49 47 46 45 43 42 42 44 46 50 52 53 54 59 64 69 75 77 79 81 82 83 83 81 81 81 81 80 81 81 80 79 79 80 83
36 36 39 38 36 37 40 40 38 38 37 39 40 39 37 40 45 49 49 47 44 41 41 41 40 40 41 45 47 50 52 53 55 60 65 68 72 76 77 79 82 82 82 82 82 82 82 81 79 78 78 79 81 81
35 37 38 34 34 37 38 38 39 38 38 40 40 39 40 42 47 48 45 41 39 39 38 37 38 38 39 42 46 49 52 53 55 57 61 67 70 73 75 74 75 77 78 79 80 79 79 79 80 81 82 82 82 82
35 34 32 33 35 37 38 38 38 38 38 39 39 40 43 46 46 42 40 39 38 37 35 34 34 35 37 40 43 48 50 53 55 57 58 62 64 69 71 72 73 72 74 75 75 75 75 76 77 77 76 76 75 75
32 29 32 34 36 38 38 37 38 38 38 39 40 42 45 46 43 41 39 38 37 35 34 33 33 34 36 38 40 44 47 50 52 55 56 59 59 64 67 69 70 70 71 71 71 72 73 74 74 72 71 70 70 70
29 30 33 35 37 37 36 36 37 38 37 38 41 44 46 45 41 39 39 37 35 34 33 31 31 32 33 35 37 39 42 44 46 49 52 54 56 58 62 65 66 67 68 69 71 70 69 68 68 68 68 67 67 67
31 33 35 37 36 35 34 36 36 35 36 40 43 47 46 43 41 40 39 36 33 32 30 29 28 29 30 32 34 36 38 40 42 44 46 49 52 53 56 61 64 66 68 68 67 68 68 67 65 65 64 63 63 63
32 33 35 35 34 33 34 34 34 35 39 43 46 48 44 43 42 39 38 35 31 28 28 27 25 26 28 29 31 32 35 37 39 40 43 45 45 47 50 55 58 60 62 64 65 66 66 65 64 62 63 64 62 59

GFSWCAN_250_spd_036.txt.gz
Wind_Speed
90 87 85 85 85 81 76 70 68 64 66 63 56 49 38 25 13 6 7 7 11 14 19 22 23 27 31 36 40 43 44 43 42 38 38 38 34 29 27 29 33 28 23 18 17 16 11 8 7 7 8 14 15 21
85 82 80 83 81 77 72 66 65 59 61 60 52 45 36 24 12 7 6 9 12 15 18 20 23 27 30 32 34 35 36 36 35 35 35 33 29 28 30 33 35 31 24 15 14 11 12 10 9 9 10 14 14 10
79 77 77 78 77 73 69 63 62 56 57 57 49 42 32 21 12 8 9 10 13 15 19 21 25 28 32 34 34 33 32 32 32 33 32 29 34 34 34 35 35 25 17 22 19 18 17 15 18 17 15 13 15 12
76 77 74 74 72 70 66 62 59 53 53 52 48 38 30 18 12 11 10 12 15 17 23 25 30 36 36 35 34 31 30 30 30 32 36 37 38 38 37 36 33 24 20 12 9 21 20 27 27 17 10 5 10 12
73 74 71 73 69 68 63 60 57 51 50 47 44 35 26 15 12 11 12 16 20 25 29 33 39 36 35 33 30 28 28 24 27 30 36 41 40 41 40 34 36 26 21 20 18 16 28 21 18 14 10 4 9 15
73 72 67 68 67 66 62 58 56 50 49 45 40 32 23 13 11 13 16 22 25 28 32 40 40 36 31 29 23 21 19 20 30 36 41 37 37 35 36 35 37 22 23 14 17 23 15 10 9 7 5 3 5 9
70 69 68 65 66 65 60 57 54 50 49 43 38 28 21 11 11 15 21 25 26 32 38 42 37 33 31 28 22 19 19 24 34 38 37 35 36 32 31 28 23 21 24 26 26 14 11 9 9 9 7 7 7 8
67 66 66 65 66 63 57 55 54 49 47 41 34 26 17 8 10 15 20 27 28 34 41 42 38 34 34 29 26 23 23 26 33 36 36 31 32 31 28 31 27 25 27 25 18 15 13 13 11 10 7 7 8 8
67 65 66 64 65 61 55 52 53 48 45 38 32 24 14 5 8 12 21 31 32 35 40 42 39 38 37 33 31 27 26 28 32 33 34 33 32 25 29 32 28 26 23 20 19 17 12 9 10 10 8 7 5 4
68 67 65 63 62 58 53 48 52 47 42 36 30 21 11 1 7 14 23 30 33 35 39 42 40 38 39 37 33 30 29 29 30 30 30 28 26 26 27 21 20 20 21 23 18 12 10 8 8 11 11 11 11 10
64 64 64 61 58 54 50 45 48 45 40 32 29 19 10 3 9 13 21 30 36 37 39 43 42 40 39 37 35 33 31 30 29 29 30 32 31 29 26 23 21 22 20 16 14 14 12 13 14 16 16 15 15 13
61 62 61 59 55 51 48 44 43 42 37 32 27 18 9 6 12 15 24 30 32 36 41 44 45 42 39 37 34 33 32 31 31 32 33 34 32 32 30 28 24 20 20 19 18 17 17 21 21 22 21 19 18 18
58 59 60 55 51 48 46 43 38 38 32 28 23 18 7 6 14 17 24 30 29 32 40 45 47 44 41 39 37 35 34 33 32 32 33 35 33 32 30 30 29 27 25 22 22 22 24 26 27 28 26 23 22 22
53 58 59 52 48 45 43 43 36 33 31 26 21 17 8 7 17 24 31 29 30 28 37 44 48 48 45 44 42 41 38 37 36 36 35 35 34 33 33 30 30 29 29 29 30 29 27 27 27 27 26 26 26 25
54 58 55 49 46 42 40 42 37 29 27 26 22 18 12 6 14 22 29 33 32 29 34 40 46 50 51 48 46 46 45 43 42 40 38 37 36 35 34 33 31 29 28 29 29 28 28 27 28 28 29 29 30 32
55 54 54 48 44 39 38 38 38 30 24 24 23 21 16 10 9 16 25 33 33 32 36 39 45 48 51 54 53 52 51 54 51 47 43 40 38 37 36 36 36 36 35 34 33 33 33 34 34 33 33 34 35 33
53 53 49 45 40 36 34 36 36 33 23 24 23 21 21 18 12 12 16 24 30 34 35 38 42 46 52 55 57 59 60 58 54 49 47 46 45 44 44 43 42 41 41 41 41 40 41 40 38 39 38 36 33 32
50 50 45 41 38 36 33 32 34 34 26 23 24 23 22 22 20 16 16 19 22 26 31 33 39 44 48 53 59 65 65 64 59 56 54 53 53 54 52 52 51 51 50 47 45 43 42 41 39 37 35 34 34 34
48 46 43 39 37 36 33 31 31 33 30 25 25 25 25 25 27 25 20 20 20 21 23 25 29 35 45 55 61 63 66 67 67 65 61 58 56 54 54 53 52 51 50 49 47 45 44 43 42 41 41 41 41 42
46 44 40 38 36 33 33 32 29 32 31 28 27 26 28 28 30 32 31 25 23 23 21 21 25 32 43 50 55 61 65 64 66 68 68 68 65 62 60 59 58 57 56 54 51 50 49 48 47 47 46 46 47 48
44 40 38 36 34 33 31 32 30 32 33 31 29 26 28 31 30 33 36 36 32 28 25 25 25 25 30 37 43 55 62 65 67 69 70 71 70 69 68 68 65 63 60 58 57 56 54 53 53 53 53 52 52 52
41 38 36 34 34 31 30 31 32 31 33 34 32 29 28 31 32 33 36 40 39 36 35 33 31 30 32 34 38 44 49 58 64 68 72 75 75 74 73 74 73 71 69 65 62 60 57 57 57 56 57 56 55 55
39 36 33 32 32 32 32 32 32 32 34 35 35 33 32 32 34 36 37 37 42 44 42 41 41 40 37 36 40 43 47 52 56 60 68 73 76 79 81 81 80 78 75 73 69 66 65 65 64 62 62 61 61 61
36 29 30 31 34 32 32 33 32 32 35 34 36 35 34 33 35 37 40 38 41 45 47 48 48 48 46 44 43 46 50 52 54 58 58 65 73 76 79 82 85 85 83 80 78 76 75 73 71 70 69 68 67 67
30 28 30 34 35 34 34 33 32 34 36 36 35 33 34 35 36 39 41 42 43 46 50 53 52 53 51 50 53 53 50 54 56 54 57 60 63 72 75 77 80 83 84 84 83 83 82 80 79 78 76 74 74 74
29 31 34 36 35 34 36 34 34 36 36 36 36 34 34 36 36 38 41 43 45 47 50 52 53 52 55 58 56 53 49 52 56 54 54 57 59 62 69 74 76 78 79 80 80 81 83 83 82 82 80 79 78 79
32 35 37 33 33 35 34 35 36 35 36 37 36 34 35 35 37 40 43 45 47 47 47 49 52 56 55 53 51 47 46 48 52 52 52 54 57 59 62 66 71 72 75 77 78 78 78 77 77 78 79 79 78 79
34 33 32 34 36 35 34 35 35 36 37 37 36 35 35 36 38 41 43 45 44 45 47 51 54 50 48 48 47 46 45 48 50 50 51 52 54 56 59 59 62 66 69 72 74 75 75 74 74 74 73 73 76 77
31 31 34 35 34 34 33 33 35 36 37 36 35 35 37 39 41 43 44 44 44 47 49 46 45 45 44 44 45 45 44 46 49 50 50 51 51 53 55 57 58 60 63 67 69 71 72 72 72 71 73 75 77 78
31 33 35 34 32 31 32 35 37 38 36 34 33 35 38 40 41 42 42 42 42 42 41 41 41 41 40 39 40 40 41 42 44 46 47 48 49 51 53 53 56 57 59 63 63 64 65 67 69 71 74 76 73 71
34 35 32 31 32 32 35 38 38 36 32 32 33 36 40 42 40 39 40 39 39 38 38 38 38 37 36 35 35 36 36 37 39 41 43 45 46 49 50 52 55 56 57 58 60 62 62 64 66 69 72 68 66 66
33 32 32 32 32 35 37 37 36 34 31 33 34 37 39 39 39 39 38 36 35 36 35 35 34 33 32 32 32 31 31 33 36 37 39 41 44 46 48 51 53 54 55 56 58 61 62 63 62 60 59 58 59 60
33 32 31 32 34 35 35 33 32 32 32 34 34 36 37 37 38 38 36 34 35 35 34 32 30 28 27 27 28 28 28 29 31 33 34 36 39 41 44 47 49 49 51 54 56 57 57 56 56 57 56 55 52 51

GFSWCAN_250_spd_039.txt.gz
Wind_Speed
91 86 77 69 67 68 67 68 65 66 64 66 55 47 43 42 34 24 19 12 8 10 14 20 25 30 38 46 53 59 59 54 48 45 41 38 35 29 25 20 17 23 24 23 19 16 13 10 14 15 14 15 13 20
83 79 71 66 63 67 64 66 63 62 59 58 53 44 40 39 33 25 18 12 10 12 13 17 21 24 30 38 43 49 56 54 49 45 41 37 37 30 25 22 23 23 27 28 14 13 14 18 20 16 13 18 17 17
77 73 67 64 62 62 63 64 60 59 56 53 47 41 39 35 29 23 17 14 11 11 13 18 21 23 26 31 36 43 47 50 48 48 42 41 35 30 29 27 27 28 24 22 19 13 15 16 17 19 25 19 17 11
73 66 65 62 59 59 62 61 58 56 52 51 44 38 36 30 25 20 14 14 13 14 15 21 24 24 26 28 32 36 43 45 46 43 41 38 34 31 30 29 33 29 23 16 13 15 14 21 19 19 20 14 14 11
70 64 63 58 57 58 59 60 58 53 49 47 40 35 33 27 22 17 13 14 15 17 20 23 26 27 29 31 32 32 32 33 36 39 37 33 31 31 31 33 31 31 31 25 17 17 15 20 19 15 12 7 11 12
64 62 60 56 55 58 57 59 57 51 47 44 36 31 28 22 18 14 13 15 17 19 24 26 27 28 28 28 27 27 28 31 33 32 32 29 27 32 33 35 35 32 26 26 17 12 16 23 18 14 10 6 4 5
60 60 58 54 52 56 58 58 54 50 46 42 32 30 24 18 13 13 15 16 20 23 28 30 31 30 29 26 25 27 27 26 27 29 30 32 35 35 37 37 32 30 23 20 23 21 24 23 17 16 11 8 7 7
59 58 57 52 51 54 56 56 52 49 45 41 30 29 25 16 10 9 11 16 23 28 32 34 33 33 29 27 27 26 23 21 23 26 27 34 38 39 38 33 36 29 27 27 20 23 22 17 16 15 11 9 9 9
56 55 55 50 50 51 52 53 50 47 44 39 30 30 24 16 8 4 12 18 25 30 34 36 33 30 29 28 26 23 20 16 21 24 30 32 35 38 36 35 33 31 29 28 28 24 18 16 17 15 12 8 7 5
53 53 50 47 49 49 49 49 47 43 44 36 31 28 24 13 6 7 12 19 24 31 35 38 34 31 30 29 27 23 20 18 28 29 31 32 32 32 38 38 38 35 33 31 24 19 18 18 14 13 14 12 11 9
52 51 48 47 47 46 48 46 46 40 41 33 30 27 25 15 6 6 11 15 25 30 36 39 38 34 33 32 29 26 23 21 27 30 30 31 29 29 31 34 34 31 25 26 24 23 23 19 15 14 15 14 15 16
51 49 43 47 47 47 44 44 44 38 37 33 27 25 23 18 10 11 11 13 23 31 36 41 40 38 37 37 33 32 28 27 28 30 32 33 32 31 31 30 29 29 28 24 24 24 23 21 19 18 18 19 20 20
48 47 46 44 44 48 43 43 44 38 32 32 24 24 18 18 14 15 16 16 20 33 37 41 43 42 40 41 39 36 34 32 32 32 33 36 36 34 33 34 33 32 29 28 28 27 26 26 25 24 26 26 27 27
44 45 45 43 45 46 44 42 42 40 29 28 24 20 17 16 15 15 17 20 24 30 37 40 44 46 44 42 42 41 39 38 38 36 36 37 38 38 37 37 36 35 33 31 30 29 29 29 29 29 29 30 31 31
43 44 46 42 44 48 47 43 39 38 34 25 23 21 17 15 15 15 16 17 21 27 33 40 43 46 48 47 45 45 44 43 42 40 39 41 41 40 39 39 38 37 36 35 34 34 34 32 32 32 32 33 34 33
44 43 45 46 46 49 48 47 38 35 36 28 20 21 21 17 16 16 16 18 21 24 29 34 40 46 49 51 51 49 49 48 46 44 42 42 42 43 44 44 43 42 39 37 36 35 34 33 33 34 35 35 35 33
46 46 45 46 49 51 49 46 38 33 34 33 24 20 22 23 20 19 18 18 20 23 30 34 35 41 48 53 57 57 59 56 52 49 47 46 45 46 46 47 46 44 43 43 42 41 40 39 38 38 38 39 39 40
47 51 49 50 53 52 48 44 38 34 35 32 29 23 22 24 25 24 23 21 20 21 23 29 38 41 43 47 57 62 65 63 59 57 55 53 52 51 50 50 50 50 50 48 47 46 46 45 45 44 45 45 46 45
51 52 50 52 52 49 46 41 38 36 33 31 30 28 25 25 28 27 27 27 26 23 21 24 28 37 46 55 60 62 67 69 68 67 64 62 60 59 58 57 56 56 56 54 53 51 50 50 50 51 49 46 45 43
53 51 49 50 49 48 45 40 38 36 33 31 32 31 30 27 28 31 31 31 30 29 27 25 25 30 36 45 53 61 66 67 71 71 71 70 68 66 65 64 64 63 62 60 59 58 57 56 53 51 49 48 48 48
50 49 47 47 46 45 43 41 38 35 33 33 32 33 33 33 31 32 34 34 33 32 32 32 31 30 31 35 40 48 54 59 66 71 74 73 72 73 73 71 70 68 66 65 63 61 59 59 58 56 55 53 52 52
50 47 46 46 44 44 42 41 38 35 35 36 34 36 36 35 35 35 34 36 36 35 36 35 35 35 36 35 35 36 40 46 52 56 60 66 75 75 75 76 76 76 75 74 72 69 65 64 63 62 59 57 57 58
49 47 46 44 43 43 42 39 37 36 35 37 37 37 38 38 37 37 37 37 38 40 40 39 38 39 39 40 41 40 40 40 42 46 50 52 55 62 72 78 80 80 79 79 79 76 73 72 70 69 68 66 64 63
48 46 44 42 42 43 42 38 37 36 37 37 38 38 39 39 40 38 38 36 39 42 42 43 43 43 43 43 44 45 45 45 45 45 47 49 50 52 56 63 69 74 82 84 81 79 77 76 76 75 75 74 73 70
46 44 42 43 42 43 39 36 36 37 37 36 38 39 41 42 40 40 39 36 39 41 44 45 46 46 46 46 47 47 47 49 49 50 49 47 49 50 51 55 61 64 70 75 82 84 83 80 79 79 79 79 78 78
42 39 41 42 43 39 35 35 38 38 38 38 39 41 42 42 40 40 41 39 40 43 45 47 48 47 46 47 48 47 48 49 52 54 55 54 56 58 57 54 57 63 67 69 71 74 79 81 81 80 80 80 80 81
38 40 41 41 40 37 38 39 39 38 39 40 43 43 43 42 41 40 40 41 43 45 47 48 47 47 47 46 48 49 49 49 53 57 58 55 56 58 59 55 58 62 65 65 67 68 71 77 80 79 79 78 78 79
40 41 42 39 38 38 38 39 38 37 39 41 42 43 42 42 41 40 40 43 45 46 46 45 46 47 46 47 48 51 53 57 57 57 56 53 52 54 55 54 56 60 62 63 64 66 68 71 75 77 78 78 77 77
42 40 39 38 37 37 39 39 38 39 41 42 42 43 43 42 39 37 41 45 45 45 44 43 44 46 47 51 54 56 55 53 53 51 52 51 50 51 50 51 52 56 58 60 61 64 65 65 68 71 74 75 75 75
38 36 36 37 39 39 39 38 39 40 40 41 42 43 42 41 36 38 42 44 44 43 42 41 42 46 50 53 53 51 50 49 50 49 49 49 48 47 47 49 51 55 57 57 58 60 60 58 60 65 68 70 72 74
35 34 37 39 39 39 39 39 40 40 40 41 42 42 40 38 38 40 43 43 42 41 39 41 46 49 47 47 48 46 45 45 44 43 42 42 42 42 43 45 50 52 54 53 52 53 54 55 57 59 62 65 68 70
35 37 39 40 39 38 39 39 39 40 40 41 40 38 37 38 41 41 40 41 38 37 40 43 44 44 44 44 43 42 40 39 37 36 35 34 36 38 39 41 44 48 49 50 53 54 53 52 53 55 57 61 63 61
39 41 40 39 39 39 39 39 39 40 40 39 36 34 37 39 38 39 40 38 36 37 39 40 40 39 39 38 37 36 34 32 30 29 29 29 30 32 34 37 41 44 46 49 51 52 51 52 53 53 53 53 53 53

GFSWCAN_250_spd_042.txt.gz
Wind_Speed
89 86 81 79 76 70 64 61 60 61 61 62 64 63 57 52 45 37 28 16 12 10 15 19 24 34 43 48 50 50 47 44 42 40 36 32 29 27 25 23 19 15 13 19 19 15 16 14 15 17 14 12 21 27
84 80 75 74 72 65 61 57 58 59 58 59 58 56 56 51 45 38 29 17 12 12 14 18 22 30 37 46 50 51 50 48 45 42 38 37 34 30 27 23 19 13 17 24 19 19 11 12 16 15 14 21 22 19
79 74 71 69 66 62 58 54 56 58 55 57 56 52 51 49 44 38 28 18 12 14 14 16 18 24 29 38 46 51 53 51 47 45 41 38 37 31 28 26 22 17 19 24 20 13 16 14 14 16 16 19 16 20
73 69 67 65 62 59 56 52 55 58 55 54 52 51 47 46 42 35 26 18 13 13 15 16 17 20 24 29 35 41 50 52 50 47 43 41 38 34 31 29 24 21 22 24 22 16 17 12 15 17 22 14 13 18
68 64 64 61 59 57 53 50 53 57 54 53 49 47 44 42 38 29 21 15 13 15 17 17 17 19 21 23 27 31 35 42 52 49 45 43 40 35 32 29 26 24 28 26 22 18 15 14 17 21 17 16 8 11
63 62 62 59 55 54 51 47 52 56 55 52 48 45 40 37 30 23 16 12 13 15 17 16 19 22 22 23 26 27 28 31 37 48 48 45 42 37 34 34 30 27 31 29 25 22 18 14 17 24 15 15 13 7
58 59 60 55 52 50 49 45 51 55 54 49 46 42 36 31 23 14 9 8 11 16 19 21 23 24 24 25 25 25 25 28 32 40 44 42 40 39 39 35 28 32 34 31 28 23 17 18 20 19 17 16 15 12
57 59 56 54 50 47 45 43 49 51 52 46 42 37 30 25 15 8 4 7 10 17 21 24 25 26 26 27 26 26 26 28 29 31 33 32 33 37 38 28 34 37 32 32 27 22 18 21 24 17 16 14 16 11
56 59 52 52 48 45 42 42 45 49 50 45 39 32 26 21 14 5 3 6 10 18 23 25 26 27 28 26 25 24 24 23 23 24 27 31 34 38 28 33 37 33 31 30 24 24 25 25 20 18 13 16 13 9
56 55 49 49 47 43 41 41 42 46 48 42 38 30 24 21 14 5 2 4 11 20 26 27 30 30 28 26 23 22 22 22 21 23 26 31 33 32 36 36 35 28 29 31 30 29 28 21 21 19 16 16 15 12
53 54 47 46 46 41 40 40 38 41 45 37 31 29 22 20 14 8 3 5 11 20 26 30 33 31 28 26 24 22 21 19 16 20 23 23 25 32 32 30 29 31 34 32 32 32 24 24 23 21 18 17 16 14
53 53 45 44 45 41 39 38 35 36 41 36 28 25 21 18 14 9 5 8 14 22 28 34 35 33 31 29 27 25 23 20 19 24 27 27 28 29 31 31 33 35 35 34 33 32 28 27 26 25 23 20 18 16
53 52 46 43 43 40 40 36 32 33 35 32 26 24 22 18 14 10 7 12 17 25 28 34 37 35 34 33 30 29 27 24 24 25 30 31 32 32 31 33 37 36 34 34 32 32 30 28 29 29 27 26 24 24
51 51 48 44 42 41 39 37 31 31 31 29 27 24 21 19 16 11 7 8 17 22 29 32 39 40 38 36 34 34 32 30 29 28 29 30 31 32 32 30 31 31 31 32 32 32 31 33 31 29 30 29 27 27
51 51 48 45 42 40 39 38 32 30 28 28 25 25 24 17 19 14 10 8 13 18 26 34 38 43 43 40 39 39 38 36 36 34 33 33 33 34 34 33 33 34 33 33 33 32 32 33 34 33 32 31 31 31
53 52 48 45 42 41 40 38 34 31 28 29 25 28 23 23 17 19 14 11 10 18 22 26 32 39 43 45 45 43 44 45 42 39 38 38 37 37 38 39 38 37 36 36 37 36 36 35 35 35 35 34 34 34
54 52 48 44 42 40 39 38 36 30 33 31 29 29 25 24 24 21 19 17 16 14 18 25 32 37 38 42 47 51 52 50 48 46 45 44 43 43 44 44 45 44 43 43 42 41 39 38 40 41 40 38 37 37
54 52 47 44 44 40 38 38 35 35 37 34 31 30 30 26 24 27 24 20 20 20 20 20 25 32 43 47 47 54 58 58 56 54 52 51 49 49 49 49 51 51 50 49 49 48 47 47 46 44 43 43 43 42
53 49 46 45 44 40 39 38 36 36 37 37 34 32 31 31 27 28 29 27 24 24 25 27 25 26 32 40 52 60 63 64 65 64 62 60 58 56 55 54 54 55 56 56 55 55 54 54 52 50 49 49 49 48
53 49 46 45 45 42 42 43 40 39 39 38 36 34 32 33 33 32 30 31 32 29 27 29 30 32 30 32 38 46 55 63 69 69 68 70 68 66 64 63 61 60 59 59 58 57 57 57 55 55 54 54 54 53
51 48 46 45 45 44 44 44 43 40 40 39 37 35 33 34 37 36 35 33 32 33 34 32 32 32 36 37 36 37 41 48 54 61 68 74 74 75 74 71 70 69 67 66 66 65 63 62 60 61 61 61 61 60
50 49 46 47 47 44 42 44 42 41 40 40 38 35 35 38 40 39 38 36 34 33 37 37 36 35 34 36 41 42 42 41 43 48 52 57 63 72 81 79 78 78 77 76 76 74 73 72 69 68 68 66 65 65
48 46 45 47 44 42 43 43 43 41 39 39 38 36 37 39 41 41 40 40 37 38 38 39 40 40 38 37 37 39 44 47 47 47 46 46 49 52 55 65 76 83 85 84 84 84 82 80 78 76 73 72 71 71
47 45 46 44 42 42 44 44 43 41 38 39 39 38 38 40 42 42 42 41 41 41 41 41 41 43 43 42 40 39 40 42 46 50 50 50 49 48 45 47 51 58 68 75 79 83 85 86 86 84 83 80 77 77
46 44 42 43 44 45 44 44 42 40 40 38 38 38 39 40 42 43 45 43 44 42 42 42 42 43 44 45 43 42 41 42 44 45 44 45 50 53 51 49 47 47 49 52 54 58 62 66 71 76 80 83 84 84
43 41 42 44 45 44 43 43 42 41 39 38 38 40 41 41 43 45 46 46 45 42 43 44 42 44 45 45 44 44 43 43 45 46 45 45 47 49 51 51 51 52 50 50 51 50 50 50 53 56 60 65 70 75
40 43 45 46 45 43 42 41 39 39 39 39 41 40 41 42 45 46 47 49 47 45 45 44 43 44 45 44 44 44 44 44 46 49 50 50 48 48 50 52 53 54 53 53 53 53 53 52 54 54 56 58 62 64
43 46 45 43 41 39 38 38 39 40 40 41 41 42 42 45 46 45 47 47 46 45 43 42 43 45 45 45 44 45 44 45 49 51 52 51 48 48 49 52 54 54 55 54 54 54 55 56 58 60 60 60 62 63
44 42 39 38 36 37 39 39 41 42 41 41 43 43 43 45 46 46 46 46 45 44 42 41 43 45 45 45 44 45 47 49 50 50 50 52 51 48 49 49 49 49 50 51 53 53 57 59 61 61 60 61 62 63
41 38 37 37 38 39 41 42 42 41 41 40 40 43 45 46 46 44 45 44 44 41 40 43 43 45 44 44 47 47 44 48 54 54 54 52 48 46 46 48 48 48 48 49 51 54 55 55 57 59 61 59 60 62
36 35 37 39 41 41 40 40 40 40 39 41 43 44 44 46 45 44 41 40 40 40 42 42 43 43 43 43 44 48 51 49 53 51 47 46 46 46 46 46 45 45 44 45 48 49 50 51 55 59 58 57 59 60
36 39 39 39 39 40 41 41 41 41 41 42 43 44 45 46 44 41 35 35 38 41 41 41 40 40 41 42 46 50 53 51 48 46 45 44 42 40 40 39 39 39 39 40 45 47 49 51 55 55 54 55 57 59
37 37 39 40 40 40 40 40 40 41 41 42 42 43 44 43 40 36 33 36 38 38 39 39 38 38 40 45 49 48 48 47 45 43 39 35 33 33 33 33 34 35 36 38 41 44 46 48 50 50 51 53 53 52

GFSWCAN_250_spd_045.txt.gz
Wind_Speed
92 89 87 82 79 77 74 68 65 57 57 60 62 63 62 60 60 54 46 38 33 25 17 18 20 27 39 40 42 41 38 38 37 36 34 31 27 24 22 20 17 15 16 13 14 19 22 25 18 17 16 19 20 22
89 86 82 78 75 74 71 64 61 54 54 57 59 61 58 58 56 53 48 40 34 25 19 19 23 25 33 38 42 44 41 39 38 37 36 33 28 23 24 22 20 19 17 14 15 20 21 17 17 16 12 16 19 22
84 82 78 74 71 71 66 62 58 53 53 55 57 58 56 54 53 49 45 41 34 24 20 19 22 23 27 35 37 43 45 41 39 38 36 33 29 28 28 24 22 20 17 14 17 23 21 16 11 8 9 16 17 17
80 78 73 70 67 68 62 60 55 52 52 53 57 56 54 52 49 45 42 38 30 23 20 19 21 24 26 31 38 41 41 45 42 39 38 36 33 31 31 27 25 22 19 16 18 23 20 16 11 10 14 14 18 14
76 73 69 65 64 66 60 57 53 51 51 53 55 55 53 50 44 40 37 32 24 20 18 18 21 23 25 27 31 37 42 42 44 42 41 39 37 34 32 30 30 25 21 20 22 23 21 16 12 14 16 14 16 11
71 68 64 62 63 62 58 55 51 49 49 51 55 54 51 47 41 37 34 26 18 15 16 18 22 24 23 24 27 30 35 43 50 47 47 44 41 38 37 37 31 27 25 26 26 25 19 18 15 19 21 16 15 12
65 63 60 60 62 59 54 53 50 48 47 50 52 51 50 45 39 35 27 18 12 12 15 19 21 22 22 23 24 27 31 34 40 49 50 46 44 43 43 41 33 29 30 29 26 29 27 22 18 19 23 15 15 14
61 61 56 58 60 55 50 50 48 46 46 47 47 48 45 40 34 27 19 12 8 10 14 18 20 22 23 23 23 24 27 29 32 39 49 52 49 50 48 35 35 37 36 33 32 33 29 20 18 21 23 13 14 12
61 57 54 55 59 51 47 47 46 46 46 44 45 43 38 34 28 22 14 9 7 8 13 17 19 21 22 22 21 22 24 27 30 34 37 42 48 50 43 39 40 40 38 35 35 34 29 23 24 25 20 15 15 14
58 54 53 52 55 50 45 45 44 45 44 41 43 42 35 28 23 19 14 9 8 11 12 15 18 22 23 24 25 25 25 27 28 29 30 31 34 35 39 41 40 37 36 32 32 31 28 25 30 24 20 17 17 17
55 53 52 51 52 49 44 42 43 42 39 38 38 38 32 27 19 17 13 9 8 10 11 16 22 26 28 27 26 26 25 23 21 22 24 25 28 30 31 34 32 31 28 28 32 31 30 28 30 24 23 19 19 20
55 52 51 51 51 48 43 40 40 39 36 33 34 32 28 22 17 15 12 9 10 12 14 19 24 28 31 30 26 25 22 22 23 22 24 26 29 32 34 33 34 32 27 28 30 28 31 31 28 25 25 23 23 23
55 53 51 50 50 47 44 38 38 37 35 31 32 32 29 22 13 11 11 9 10 13 16 20 26 30 31 30 28 25 22 21 20 20 21 22 26 30 32 33 35 35 31 30 30 32 34 32 29 28 29 28 27 25
54 53 51 51 51 46 45 39 37 35 35 32 30 28 26 23 16 10 10 11 12 13 19 24 28 32 32 31 29 26 24 22 22 21 21 24 25 27 31 34 35 34 35 35 34 35 34 29 28 29 29 29 28 26
55 53 51 52 52 48 45 39 36 34 34 31 31 28 26 20 19 14 10 11 13 14 18 24 28 33 35 34 32 30 28 26 26 24 22 23 26 29 32 34 34 36 36 35 34 32 29 29 30 31 30 29 30 30
56 55 52 52 52 50 47 41 37 35 33 32 29 30 27 21 18 16 16 13 13 15 16 22 29 34 36 39 38 36 36 35 32 31 30 28 27 28 31 34 36 37 36 34 35 34 33 32 32 31 31 32 33 33
57 58 54 53 52 51 46 43 38 33 32 32 31 30 28 22 19 18 17 17 18 19 19 18 25 33 39 42 44 46 47 42 40 39 38 37 36 36 35 36 35 36 36 37 38 39 38 37 35 36 36 37 39 40
58 58 55 54 52 50 44 42 37 34 36 36 31 30 27 24 22 22 22 20 19 20 24 25 21 24 32 41 50 50 51 52 50 47 45 45 44 42 42 42 42 41 42 42 42 42 42 42 41 41 41 42 44 43
58 57 55 53 51 47 44 41 37 36 37 36 34 31 29 27 26 23 27 26 23 23 24 27 29 27 25 29 39 48 52 55 56 57 56 55 53 51 51 50 49 49 49 48 48 49 50 49 48 48 48 48 50 49
55 56 54 52 49 48 45 42 40 39 40 39 38 34 33 31 29 27 28 32 29 27 28 28 28 30 31 34 33 33 36 46 54 59 61 63 63 63 62 60 59 58 57 56 56 55 56 56 56 56 56 56 56 57
55 54 53 50 48 45 43 42 42 41 43 44 41 37 36 34 33 32 32 33 33 31 30 31 31 32 33 34 36 39 40 39 37 40 44 53 63 71 71 69 69 69 67 66 65 64 63 62 62 62 62 62 62 62
54 54 53 49 46 44 41 41 41 41 43 43 39 37 36 34 34 35 34 35 36 35 36 33 33 34 35 36 38 38 41 43 45 45 44 42 41 43 51 62 72 75 76 75 75 74 72 70 68 67 67 67 67 67
53 53 51 47 43 40 41 41 42 44 42 41 39 38 36 35 34 35 36 38 36 38 40 37 36 38 38 36 37 39 40 42 43 45 46 48 49 47 44 42 43 50 59 70 77 81 80 77 77 76 74 73 73 73
52 51 47 42 42 42 42 44 45 43 40 40 40 37 35 35 35 36 39 39 37 40 41 39 39 40 39 38 37 38 39 41 43 44 46 46 47 47 47 47 47 47 45 46 50 58 65 72 75 79 81 81 81 81
49 47 42 42 42 43 45 47 45 42 41 40 38 35 36 37 36 37 39 40 38 41 41 41 42 41 39 38 39 39 39 41 43 45 42 44 45 46 46 47 47 45 46 49 48 48 49 51 56 60 63 65 69 75
46 42 41 44 44 45 46 45 42 41 39 37 37 38 37 36 37 38 41 40 42 42 42 42 43 42 40 41 41 39 39 41 43 44 41 41 42 44 45 47 48 49 46 48 49 52 52 52 53 52 49 48 50 52
41 42 43 45 45 44 44 43 43 39 37 37 38 38 36 36 38 40 41 42 43 42 42 43 42 42 41 40 38 38 39 40 41 43 43 42 41 42 45 49 51 48 45 48 50 51 54 56 56 55 55 52 51 51
41 45 47 44 44 44 43 41 39 37 37 39 38 35 34 38 39 39 42 43 42 42 43 43 41 42 42 39 38 38 38 37 39 41 43 44 43 43 44 48 50 50 49 48 48 49 51 54 57 59 59 58 56 56
46 47 44 42 42 42 40 38 37 37 36 35 36 37 38 38 38 41 42 42 43 44 44 42 43 43 40 39 39 38 36 36 39 44 45 45 44 43 45 47 46 46 47 47 47 48 50 50 50 53 57 58 59 58
50 46 44 43 42 40 37 36 35 35 36 38 38 38 37 37 39 40 41 41 43 45 42 42 43 40 39 40 40 37 36 39 41 44 48 48 44 40 42 47 48 45 45 44 44 46 48 50 53 56 57 57 58 56
46 42 41 39 37 35 34 34 36 38 38 38 37 37 36 37 37 38 40 41 42 40 40 40 38 37 38 39 39 40 39 38 41 42 44 46 47 45 42 41 41 41 41 41 43 44 45 48 50 53 55 56 59 56
36 37 35 34 33 33 35 39 39 38 37 36 36 36 38 38 38 37 36 38 39 39 37 35 34 36 37 37 38 39 42 42 42 42 42 42 40 40 39 39 40 39 39 38 39 40 41 42 45 48 51 54 56 55
36 34 36 37 37 38 39 38 38 37 36 36 36 37 37 37 35 35 34 35 35 35 33 33 35 36 37 38 38 40 40 41 43 44 43 40 39 39 38 37 35 33 32 32 32 33 34 35 38 41 44 46 48 50

GFSWCAN_250_spd_048.txt.gz
Wind_Speed
99 96 95 91 87 84 80 76 74 67 63 59 57 58 60 59 57 54 54 49 41 29 24 24 24 26 30 39 38 39 36 36 38 39 38 35 33 31 27 24 23 21 19 17 13 12 15 22 26 26 23 17 19 21
96 93 89 85 80 77 74 73 70 64 60 55 55 56 57 56 52 52 53 50 41 32 26 22 23 27 29 30 39 36 38 37 36 37 38 36 36 32 29 27 25 23 21 18 16 15 18 21 27 28 24 21 21 22
89 87 82 79 75 73 70 71 67 60 56 52 53 56 56 51 47 49 49 45 40 33 26 20 22 25 29 32 36 41 40 38 38 38 37 37 36 33 30 28 27 25 22 19 16 15 21 22 23 25 24 16 18 23
85 82 78 75 73 70 67 68 65 57 53 50 51 54 54 47 47 47 45 40 35 30 24 18 20 24 27 31 35 41 43 42 40 40 40 39 37 35 31 28 29 26 24 20 16 17 21 25 25 24 19 16 15 16
83 79 75 72 70 66 65 66 62 55 50 49 51 54 52 46 47 44 39 33 28 23 18 16 19 24 27 31 34 38 45 46 44 42 42 41 40 37 32 31 31 27 23 21 17 17 17 22 25 20 19 19 16 17
79 75 72 69 68 64 63 64 59 52 47 49 48 54 53 47 47 41 37 31 25 18 14 15 18 23 26 29 33 36 40 45 49 45 43 43 41 39 38 34 29 29 27 24 22 18 18 21 25 21 19 17 17 15
73 71 69 66 66 63 62 63 56 50 45 46 45 51 53 50 48 42 36 30 22 14 10 13 16 18 24 28 32 36 39 45 48 48 47 44 44 42 42 33 28 28 30 29 25 22 19 21 23 22 21 20 20 15
71 68 67 65 62 61 60 60 54 48 44 44 42 48 49 46 45 39 34 26 19 11 9 11 14 19 23 25 29 32 34 37 42 48 47 48 46 46 41 32 33 34 34 32 28 27 24 24 27 26 25 23 20 16
70 66 64 61 59 58 59 57 53 46 43 42 39 45 44 40 37 34 29 23 17 10 8 9 12 16 17 21 23 27 30 33 37 42 48 51 50 49 43 40 40 39 37 35 33 32 29 29 31 31 27 26 22 18
67 64 61 58 57 55 56 55 52 46 42 41 40 42 43 39 35 31 28 24 18 12 8 8 10 13 16 18 22 25 27 30 33 36 40 44 51 52 46 45 45 42 40 40 37 36 35 33 32 32 30 30 25 20
63 61 58 55 56 53 54 53 52 46 42 39 38 40 40 38 33 30 27 22 17 12 8 8 9 14 17 20 23 25 26 26 27 29 33 36 41 47 48 49 48 46 44 42 41 40 38 34 35 35 30 28 28 23
61 58 55 53 55 52 52 52 50 45 42 39 36 35 35 35 32 26 25 21 15 11 8 7 9 13 15 22 24 26 25 23 23 24 26 27 30 33 37 40 43 44 44 43 41 38 34 36 38 37 34 31 28 25
58 55 53 52 53 51 51 50 48 46 43 39 35 31 29 31 29 24 22 19 15 13 10 9 11 13 16 20 24 25 25 23 21 21 20 21 25 27 29 33 36 38 39 39 33 30 34 36 36 36 35 33 26 27
55 53 52 50 51 51 49 49 47 46 45 38 34 30 26 26 26 24 22 18 16 12 11 12 15 17 19 22 24 26 23 23 22 19 19 22 25 27 31 34 35 35 34 35 35 33 37 37 37 38 36 33 28 26
54 53 51 51 51 51 51 50 47 46 45 38 33 30 28 25 22 24 23 19 16 15 12 14 17 21 23 25 26 28 28 26 24 21 19 18 22 24 28 32 36 38 39 40 38 37 40 41 39 36 33 32 30 28
52 52 51 50 51 52 52 50 46 45 43 39 34 30 29 28 24 22 24 23 17 16 16 15 19 23 26 31 33 33 34 33 29 28 26 24 21 24 28 29 31 35 38 39 37 37 38 36 35 35 34 32 30 29
49 49 49 51 52 53 52 51 46 47 43 39 35 33 31 29 27 24 23 24 21 18 19 19 18 22 27 29 33 37 38 36 36 35 33 31 29 28 26 28 33 37 38 39 40 40 39 39 39 40 39 37 36 35
48 49 51 51 52 53 53 50 49 48 45 40 36 36 32 30 29 27 27 24 22 21 21 22 22 22 24 30 36 36 37 40 42 43 41 39 38 37 37 36 36 35 37 41 43 43 42 40 41 42 41 41 41 40
49 50 51 53 53 54 54 52 52 49 45 40 37 34 31 32 31 30 29 28 24 23 22 24 25 25 26 28 30 33 37 40 42 45 47 49 48 47 47 45 45 44 44 43 43 42 42 43 44 43 43 44 45 44
49 51 52 53 53 53 51 51 48 44 42 40 39 38 37 37 35 33 32 32 30 28 26 25 26 28 29 30 31 32 33 35 37 41 47 51 53 55 56 54 54 54 53 53 52 51 50 50 49 49 50 50 50 50
48 50 51 53 54 52 49 48 46 45 44 43 41 41 41 39 39 39 36 35 35 34 30 29 28 29 29 30 31 34 35 36 37 39 39 39 44 50 54 59 62 63 63 61 60 59 59 59 58 57 57 57 57 58
48 49 51 51 51 51 50 48 45 44 44 44 43 42 42 41 41 39 35 36 39 35 32 32 33 32 30 31 32 33 34 36 39 41 42 41 41 44 46 46 50 55 59 63 67 70 69 67 65 66 65 65 65 66
49 47 47 46 47 48 50 46 46 45 44 45 44 43 43 41 39 38 36 39 40 33 33 34 35 36 36 34 33 34 34 36 38 39 40 43 45 45 44 44 47 49 50 50 53 56 60 64 68 71 73 73 73 72
47 45 43 44 46 47 47 47 46 44 45 46 43 42 41 39 38 36 38 40 36 35 35 36 37 39 39 38 34 35 36 36 37 39 40 41 44 46 47 47 46 45 46 47 50 54 55 54 51 53 56 61 65 68
46 44 42 45 46 47 46 45 43 44 45 44 42 39 39 37 37 37 39 40 36 36 36 37 38 39 41 39 37 37 38 37 38 37 36 40 42 45 46 47 48 46 46 48 47 47 49 53 56 56 54 52 51 50
43 41 43 46 47 46 45 43 42 43 44 42 39 38 37 36 36 38 41 38 36 36 37 38 38 40 42 41 38 37 38 38 39 38 38 40 41 44 46 47 46 43 43 46 47 48 48 49 51 53 55 56 56 55
43 45 47 47 47 45 45 44 43 42 40 39 38 37 36 36 36 38 39 38 38 37 38 39 40 41 42 41 39 38 38 38 37 38 41 41 40 42 43 46 46 44 43 44 47 49 50 50 51 52 54 55 55 57
46 49 50 47 46 45 43 43 43 40 39 39 37 36 35 37 37 37 39 38 37 38 39 40 41 41 40 41 40 39 37 36 38 40 42 42 40 39 40 43 46 46 45 44 45 48 50 50 50 51 53 54 54 56
51 52 50 48 45 44 45 43 42 41 37 36 36 35 38 37 37 37 38 39 39 40 40 40 39 38 38 37 36 36 35 35 38 41 41 42 40 37 39 42 45 47 46 44 43 46 47 49 49 49 50 52 53 54
53 50 46 44 44 45 44 41 38 37 36 37 36 37 38 36 36 38 39 38 38 40 39 36 35 36 35 34 33 33 33 36 38 38 39 41 42 41 39 39 41 44 45 44 42 42 45 47 49 50 49 50 49 49
53 49 49 46 44 42 39 35 34 36 37 37 37 37 36 36 36 37 37 37 37 36 35 35 34 32 33 33 32 34 36 36 36 37 39 42 43 43 42 41 41 42 42 43 44 44 45 47 48 49 49 51 52 53
47 44 41 41 39 35 34 35 36 38 37 36 36 36 36 35 34 34 34 35 35 34 33 31 30 30 30 32 35 37 37 36 34 36 39 41 42 43 43 42 40 39 39 39 40 40 41 43 43 43 45 46 48 50
30 33 35 35 36 37 38 37 37 37 36 36 36 36 34 33 32 31 31 33 32 30 28 28 28 30 32 33 35 36 35 35 37 39 40 39 40 40 37 35 35 35 35 34 33 32 32 32 34 35 38 41 43 45

GFSWCAN_250_spd_051.txt.gz
Wind_Speed
97 95 94 90 87 83 79 74 71 69 65 63 61 57 56 56 54 52 51 48 44 38 30 22 24 25 25 27 34 36 35 35 36 37 36 33 31 30 28 26 25 21 19 19 20 21 17 13 17 23 26 28 24 23
94 90 89 86 83 79 77 72 68 67 62 60 59 55 55 54 52 50 46 47 45 45 38 28 26 29 27 30 36 41 40 36 37 38 38 37 35 32 30 28 25 24 22 20 22 20 16 14 16 24 28 28 27 28
90 87 86 85 81 77 74 71 66 64 60 59 57 55 54 53 49 47 43 43 43 42 38 33 30 30 28 30 35 38 39 40 40 39 41 40 38 35 32 30 29 27 25 23 23 19 15 15 17 20 30 28 29 29
89 86 84 82 79 75 71 69 63 61 58 58 55 54 52 51 46 42 42 41 40 37 33 30 29 27 26 29 32 39 43 42 41 43 42 43 41 38 35 34 31 29 27 26 23 19 17 16 20 20 23 24 22 24
87 84 82 80 76 73 70 67 63 61 58 55 54 54 51 48 43 41 40 37 33 31 27 25 24 22 24 28 33 38 40 44 44 44 42 43 42 41 40 38 33 29 26 27 22 22 18 14 17 21 24 25 24 25
84 82 81 79 74 71 69 65 62 60 56 54 53 53 49 48 42 40 40 35 33 28 23 20 19 22 22 25 30 36 42 46 48 46 44 43 42 42 43 38 31 31 30 31 27 21 17 15 15 19 24 26 22 23
82 79 79 77 72 70 67 64 61 58 54 52 51 52 46 47 43 41 39 37 31 26 21 15 14 16 18 23 29 36 41 45 48 48 46 43 44 44 42 35 34 32 33 31 27 23 21 19 17 18 21 24 23 24
80 75 74 71 69 67 65 63 59 56 52 50 50 50 46 46 42 39 38 36 28 23 18 12 10 13 18 22 26 30 36 40 44 48 47 46 45 43 40 35 38 35 34 32 28 26 24 22 21 19 19 24 26 24
77 73 70 66 65 63 61 60 57 53 49 48 48 46 44 45 42 38 36 32 26 22 17 12 10 11 12 15 19 25 31 36 41 44 46 46 47 43 42 38 40 40 37 35 32 30 27 27 25 25 24 22 27 29
74 70 66 62 61 59 57 57 56 50 47 46 46 43 41 43 40 38 35 30 23 21 15 10 8 8 12 16 20 24 27 32 35 38 42 44 47 47 46 42 45 45 43 39 35 33 32 32 32 30 29 27 29 31
70 66 63 58 57 55 54 53 52 49 45 44 44 41 39 40 38 36 32 26 22 18 16 11 6 7 11 15 18 20 24 27 31 33 35 39 45 49 48 48 48 46 43 41 39 38 37 36 36 33 33 33 31 33
65 62 60 56 54 53 52 50 50 46 44 43 42 39 36 36 37 33 29 26 22 18 15 12 8 6 9 12 15 18 21 22 24 25 27 31 37 43 47 50 50 49 48 46 45 43 42 42 40 39 38 37 33 35
62 60 57 54 52 51 50 49 48 46 43 41 40 38 34 32 35 32 29 25 22 19 15 11 10 9 11 12 12 15 18 19 19 19 20 21 25 31 36 42 50 53 52 49 48 46 44 45 47 46 43 37 34 37
59 56 53 51 50 50 49 48 47 45 42 42 39 36 32 28 30 31 28 24 22 20 17 14 11 11 12 12 14 15 17 19 20 19 19 19 21 22 25 30 35 40 45 51 53 53 51 50 47 44 42 38 37 40
55 52 51 49 50 50 48 47 47 45 43 41 39 36 33 28 27 28 28 26 22 20 19 18 15 13 13 16 18 21 22 22 22 22 21 21 20 21 22 25 29 33 37 42 45 46 45 44 43 40 40 40 42 43
52 50 48 47 48 48 47 46 47 45 44 42 40 37 33 29 25 26 25 24 24 21 21 20 19 17 15 16 20 22 25 26 26 26 25 23 22 22 22 23 25 31 39 40 40 41 41 42 44 44 43 43 43 43
49 47 46 46 47 47 45 46 46 46 43 43 41 38 35 29 26 23 26 24 23 24 22 22 21 21 20 18 20 21 21 22 28 29 30 29 28 27 25 25 27 28 29 35 42 44 44 44 46 43 43 44 44 42
47 46 45 44 45 45 45 46 46 45 45 45 40 39 36 30 27 24 26 26 25 23 24 24 23 24 23 25 23 20 22 27 31 34 35 35 34 33 33 32 31 31 32 35 37 38 39 42 42 43 43 43 44 44
45 44 45 44 44 45 47 47 47 46 46 45 42 39 37 32 28 26 26 27 26 27 26 24 25 26 25 26 25 25 25 26 28 32 35 37 39 40 40 40 41 41 41 40 41 41 43 44 46 47 49 50 50 50
45 44 43 42 43 46 47 48 48 48 46 44 42 42 41 34 30 30 29 31 30 30 30 28 25 27 28 27 27 26 27 29 30 30 32 35 39 41 45 46 46 47 48 49 49 50 50 49 49 49 49 50 49 48
46 44 43 42 44 45 47 50 50 51 49 46 45 42 40 35 36 35 34 33 33 36 34 32 31 31 30 29 28 30 31 31 32 33 34 36 36 36 38 42 45 50 52 53 53 55 57 57 56 57 58 58 57 56
47 46 44 43 45 46 47 49 49 48 48 48 46 43 40 40 40 39 37 37 39 39 37 34 33 34 33 32 31 31 30 32 34 35 36 36 37 39 41 43 44 45 46 47 51 55 56 59 59 60 62 63 63 63
47 46 46 45 44 45 47 48 46 45 48 46 43 42 42 42 41 40 37 40 44 41 36 35 35 36 36 34 34 34 34 33 34 35 36 37 38 39 40 42 45 47 49 49 53 54 54 52 52 54 54 56 60 62
46 48 47 47 47 47 46 45 44 46 46 44 42 42 43 43 41 39 40 45 43 38 37 36 35 37 37 37 37 38 37 37 37 36 38 40 40 39 40 42 44 44 47 50 51 53 54 54 54 54 53 54 54 52
46 45 46 48 48 48 47 46 45 45 44 42 41 42 44 41 41 41 44 45 40 39 37 35 36 39 38 37 38 40 40 40 40 38 37 41 42 41 41 43 43 43 44 49 51 50 49 51 53 55 55 54 53 53
45 43 46 50 48 49 48 47 45 45 44 42 43 43 42 40 41 43 46 40 39 39 37 35 37 39 39 39 41 42 42 42 41 40 39 40 41 41 41 42 45 45 46 48 50 50 49 49 49 51 53 54 54 53
41 45 49 52 53 51 48 46 45 45 45 44 43 40 39 40 43 43 41 39 38 37 37 38 38 39 41 41 42 43 43 43 43 42 42 40 40 40 40 44 48 47 46 44 45 47 49 48 48 47 49 50 51 51
43 48 56 56 53 52 48 47 46 44 43 42 39 36 36 38 38 37 38 38 37 37 38 39 40 40 40 41 42 43 43 42 43 43 42 41 40 39 42 46 47 47 46 46 45 43 42 43 45 47 47 48 50 50
53 56 59 56 57 53 50 49 46 43 39 39 38 36 38 37 35 35 36 37 38 39 40 41 40 40 40 42 42 42 40 40 41 41 41 41 42 44 45 46 44 43 44 46 44 41 42 44 46 48 49 49 49 49
57 57 51 55 55 53 52 46 44 39 38 38 37 37 36 33 33 35 36 37 39 40 40 40 40 40 40 39 39 38 39 40 39 39 40 44 46 45 42 39 39 40 42 43 44 43 43 47 46 45 47 48 47 46
37 30 26 38 47 44 44 43 40 38 37 37 38 39 35 33 35 36 36 37 39 40 39 38 37 36 36 36 38 37 35 37 39 41 43 45 43 41 40 39 38 38 39 40 41 41 40 43 46 47 48 50 50 49
28 31 33 29 35 36 35 35 36 36 37 39 38 35 34 35 35 35 36 37 37 36 35 33 33 34 35 35 35 35 36 38 40 41 41 39 38 39 39 39 39 39 38 38 40 42 43 44 46 47 47 48 48 47
31 27 26 26 27 32 36 34 34 37 37 36 34 34 34 34 35 34 34 36 33 31 31 32 33 33 33 33 35 37 38 38 37 35 34 35 36 36 37 38 36 36 39 40 40 41 42 42 43 42 43 43 43 43

GFSWCAN_250_spd_054.txt.gz
Wind_Speed
102 100 99 98 96 91 87 82 78 74 71 69 63 58 55 54 54 50 47 46 44 41 37 33 26 22 27 27 24 26 28 28 28 25 27 29 28 25 23 25 26 25 25 24 22 21 21 21 21 21 23 27 29 27
101 101 100 95 92 88 84 80 77 74 70 68 63 58 54 52 52 48 44 45 45 45 40 38 34 23 26 33 31 28 33 33 32 30 32 31 30 27 27 26 26 24 23 20 20 21 21 19 19 18 23 28 28 26
100 98 95 91 87 84 81 79 78 74 70 66 62 57 55 52 49 46 42 44 44 46 46 43 39 31 29 34 34 33 35 38 35 34 36 36 34 31 31 29 27 25 22 20 19 19 21 21 17 18 22 26 29 26
96 92 89 87 84 80 79 76 75 72 68 64 60 56 53 50 47 41 41 42 41 42 42 43 43 38 33 32 33 33 35 40 39 39 38 40 38 37 34 32 29 27 23 21 19 21 23 21 17 16 18 21 24 28
89 86 86 85 83 80 76 73 71 67 64 61 59 55 52 49 44 40 39 39 38 38 38 36 34 32 30 29 28 30 33 39 41 40 42 42 44 42 39 35 30 30 28 27 25 25 26 22 16 14 18 19 20 23
83 82 82 82 81 79 73 70 66 62 60 58 56 54 50 47 42 40 38 36 36 35 32 30 27 25 23 23 24 28 32 37 44 43 42 44 46 45 43 39 35 36 33 31 27 25 25 23 21 17 18 21 23 24
78 78 78 77 79 73 69 66 62 59 57 55 53 51 48 44 40 39 37 35 35 33 30 26 22 17 16 16 20 25 30 37 43 46 45 43 45 46 44 44 40 38 37 35 31 29 28 27 25 19 17 16 18 21
75 75 73 74 74 69 65 64 59 56 54 51 50 49 47 41 37 36 34 33 32 30 27 22 17 14 13 12 15 21 27 33 40 45 47 45 42 44 47 42 42 41 40 38 34 31 32 31 27 24 20 16 15 20
73 75 70 72 70 65 63 62 56 54 51 49 48 47 47 40 34 34 32 30 29 27 24 19 16 12 11 10 13 18 23 28 34 41 45 44 44 44 45 40 42 42 42 41 38 34 33 33 29 27 24 22 19 18
72 73 71 70 67 62 61 58 54 53 49 47 46 45 44 39 33 31 31 28 26 25 21 17 14 11 10 12 16 19 21 26 30 34 38 43 46 45 45 40 40 43 44 42 40 35 34 34 32 30 27 26 25 23
69 70 69 68 63 61 58 55 52 51 47 44 45 43 41 39 33 29 29 25 23 22 18 15 12 11 10 11 13 16 19 22 25 28 33 37 42 45 45 42 43 44 46 42 40 38 38 36 34 32 30 29 30 29
68 69 68 63 59 57 55 52 50 49 45 42 42 41 39 37 34 28 26 24 21 20 16 14 12 10 9 10 11 12 15 18 21 24 27 30 34 40 45 48 49 49 47 44 43 44 42 42 40 37 35 35 35 34
67 68 65 59 56 54 52 49 47 46 43 41 40 38 37 35 32 30 26 23 20 17 14 12 11 10 9 9 11 12 14 15 17 20 22 26 29 32 37 44 50 51 51 49 46 45 44 45 44 42 42 42 41 40
65 64 58 54 52 50 49 45 45 44 41 40 37 37 35 34 30 28 28 24 20 16 15 12 11 10 10 10 12 13 14 15 16 19 21 23 25 28 31 35 39 46 51 52 51 50 50 50 49 48 47 48 47 46
61 55 52 51 48 48 46 44 44 41 41 38 36 36 35 33 29 25 25 26 23 18 15 13 12 11 10 11 14 15 18 17 17 20 23 23 24 26 27 29 31 33 38 44 50 54 55 55 54 52 51 51 51 52
53 51 48 46 45 44 44 43 43 41 41 36 36 37 34 33 29 24 22 23 24 20 17 15 14 13 13 12 13 14 16 18 19 20 21 23 24 26 26 27 28 29 30 32 35 39 45 50 53 55 55 55 55 55
48 45 44 43 43 43 43 43 42 42 39 37 38 37 35 33 29 26 21 22 22 20 21 18 16 15 16 17 17 16 15 11 14 21 24 26 26 26 25 25 25 26 28 29 33 37 38 41 44 47 49 50 49 49
45 43 43 43 43 43 42 41 41 40 40 40 40 37 36 33 29 26 25 22 21 21 19 18 19 19 19 19 19 18 18 19 24 27 28 29 30 31 31 31 30 30 30 30 31 31 33 39 44 46 46 47 48 48
43 43 42 42 42 42 41 41 41 41 42 42 39 39 37 35 31 30 26 24 21 22 23 21 19 22 21 20 21 22 23 23 24 27 29 30 31 32 34 36 36 35 36 36 36 36 37 38 39 41 43 44 46 46
45 44 42 41 41 42 43 43 42 42 43 44 42 40 38 35 33 31 29 26 23 23 26 26 22 24 23 22 24 24 25 27 27 28 29 30 31 33 35 36 38 39 40 42 43 44 44 44 45 46 47 48 48 49
44 43 43 42 43 43 42 42 42 43 45 44 42 40 40 37 35 31 29 25 26 29 29 27 25 27 30 27 25 26 27 28 29 31 32 32 34 35 35 35 36 38 40 43 45 47 48 49 51 53 54 55 55 56
44 44 44 43 43 43 42 41 41 42 43 43 41 41 39 38 35 33 30 27 32 33 30 27 27 29 32 32 32 30 28 29 30 32 34 35 36 36 37 39 39 41 42 43 44 45 45 47 49 51 54 56 59 61
46 45 45 44 43 44 44 43 43 43 43 42 42 41 40 37 36 34 31 35 37 35 28 30 30 31 34 35 34 34 33 32 33 34 34 36 37 38 40 41 42 43 45 46 48 48 49 50 51 52 53 53 54 55
46 46 46 45 45 46 44 44 43 43 44 44 43 43 41 39 35 33 36 38 35 33 34 35 35 33 35 37 37 36 36 35 36 37 37 37 39 40 40 42 44 46 48 49 48 49 51 52 53 54 54 54 54 54
45 44 45 47 48 48 46 46 46 46 46 45 45 44 43 38 37 38 40 39 36 36 37 37 37 37 37 38 39 39 38 38 40 39 39 40 40 40 41 42 43 44 46 48 49 50 50 50 51 53 56 57 56 54
44 45 49 51 49 48 47 47 47 47 47 46 45 42 40 38 37 40 40 38 37 38 40 40 39 40 39 40 39 38 40 42 42 42 42 43 42 42 42 41 42 42 46 47 48 50 51 52 53 53 54 54 53 53
44 51 52 52 51 48 49 48 48 49 48 47 45 42 41 39 40 40 40 39 38 39 39 40 39 39 39 39 39 41 42 43 43 44 44 43 44 44 44 44 44 44 44 46 47 49 52 54 54 53 53 52 51 50
48 52 55 50 48 50 51 51 49 48 48 47 44 42 41 42 41 39 40 41 40 40 39 39 40 39 38 39 41 42 41 42 43 44 45 44 43 43 44 44 45 45 47 48 49 51 51 50 49 50 51 51 49 45
48 50 50 53 55 56 55 55 54 52 49 45 44 43 43 42 39 39 40 40 40 39 39 39 39 39 40 40 40 41 42 42 43 44 44 43 42 43 43 44 45 46 49 51 50 48 47 48 48 47 45 45 45 44
57 58 56 54 52 55 58 56 57 54 48 45 44 44 42 40 38 41 41 41 39 39 39 38 38 38 39 38 39 40 41 42 42 42 42 42 43 44 44 44 45 46 47 47 47 47 45 46 46 46 45 44 45 46
50 44 43 16 33 26 33 41 50 44 41 45 45 43 41 39 41 42 41 38 38 38 37 36 37 36 36 37 37 38 40 40 40 40 42 44 45 44 44 44 42 43 43 44 43 43 44 45 45 48 49 48 47 46
29 31 32 35 19 12 15 16 26 38 39 42 42 40 38 38 40 40 38 35 37 37 35 34 35 35 35 35 36 36 36 37 39 40 42 43 43 42 42 41 41 41 40 41 41 42 43 44 44 45 46 46 45 45
18 23 29 32 37 28 15 14 23 34 40 40 39 38 37 36 36 35 32 36 36 34 33 33 33 33 34 34 34 34 36 37 39 40 39 39 39 39 39 39 39 39 39 41 42 43 43 44 42 41 40 40 40 39

GFSWCAN_250_spd_057.txt.gz
Wind_Speed
118 115 111 105 98 94 91 91 88 84 80 74 69 67 62 56 52 50 47 46 41 43 38 35 35 33 30 29 30 29 23 23 24 21 18 19 21 22 24 23 22 22 22 21 21 20 21 22 22 22 22 22 22 25
119 114 105 99 91 88 86 86 84 82 76 72 67 64 60 55 50 48 45 44 40 42 39 36 38 36 33 30 30 33 33 28 25 27 23 20 24 27 26 25 24 23 22 20 21 23 23 22 21 20 20 21 24 29
114 106 98 92 85 80 81 81 79 79 74 71 65 60 57 53 49 47 43 41 40 40 41 37 39 38 39 36 30 33 37 34 31 29 30 25 29 31 27 23 23 22 24 26 26 24 22 22 20 21 22 23 26 28
103 100 94 87 80 77 77 77 76 76 72 68 63 57 53 50 48 46 42 40 40 38 39 40 40 41 42 39 36 34 35 35 33 32 35 31 32 34 29 26 25 27 28 27 25 24 24 23 23 21 20 22 23 25
99 96 93 83 77 74 74 75 74 73 68 64 60 54 51 49 46 43 40 39 39 38 37 37 39 41 41 39 38 35 33 32 33 35 37 37 37 39 34 32 32 32 30 28 25 24 22 22 22 21 21 20 21 24
95 91 88 79 73 70 70 69 72 70 64 61 57 52 51 47 44 41 37 39 38 36 34 35 35 36 35 36 33 29 28 28 31 35 39 43 38 40 38 39 37 35 32 29 27 25 22 22 23 25 21 19 20 21
90 82 80 72 68 68 67 67 68 66 61 59 55 51 50 46 42 40 37 38 37 35 33 32 32 31 28 27 23 22 22 23 28 33 40 46 41 41 44 45 41 39 36 33 30 29 26 25 26 27 24 22 20 20
91 79 72 70 69 66 67 67 65 64 60 57 52 49 48 44 40 38 36 36 36 34 31 31 28 26 23 21 18 16 18 20 25 32 39 45 43 43 49 47 44 43 40 37 35 35 31 28 26 29 27 24 20 18
93 83 78 76 69 65 66 65 63 61 57 54 49 47 47 43 38 36 35 33 34 32 30 28 25 22 18 16 15 14 14 17 20 28 37 43 46 48 46 41 47 48 44 42 38 37 36 32 29 31 31 29 25 23
88 80 74 72 67 65 66 64 59 57 55 51 46 45 44 41 37 34 32 31 31 29 27 24 21 19 15 12 11 13 15 16 20 25 32 42 46 46 44 41 42 45 47 47 43 40 40 36 33 31 34 33 31 29
86 77 74 70 62 65 66 60 57 54 51 46 42 42 41 40 36 32 29 28 28 26 24 21 18 17 13 11 10 11 14 16 18 23 28 35 39 42 44 42 41 43 45 46 46 44 44 41 39 35 36 37 35 33
81 76 70 64 62 66 65 57 55 51 48 43 40 40 39 38 35 31 28 25 25 22 20 17 15 13 11 10 10 12 14 17 20 23 25 27 32 37 42 46 45 44 44 45 44 44 44 43 42 41 38 40 39 38
72 68 65 63 62 64 60 55 52 48 46 41 37 38 38 37 34 29 27 23 22 20 17 15 13 12 9 8 9 12 16 17 19 22 24 27 30 33 37 42 47 48 48 45 46 46 46 46 44 43 43 44 43 42
67 62 58 59 62 61 56 51 47 44 42 37 36 36 36 37 34 29 26 22 19 17 15 14 12 10 9 8 8 12 14 17 19 19 21 23 27 30 33 38 42 47 50 52 52 49 48 47 46 48 49 49 48 47
58 55 53 57 62 54 49 46 43 41 37 35 35 35 38 35 32 30 26 23 18 17 15 13 11 11 9 9 8 9 14 16 18 19 20 21 23 25 28 31 34 38 43 48 52 53 53 52 51 50 50 49 49 49
47 47 50 59 54 45 42 41 40 36 35 35 34 37 37 32 32 30 25 23 19 17 16 14 12 11 10 9 8 10 10 9 15 18 21 21 22 23 24 26 28 30 32 36 40 45 50 55 57 56 55 55 54 54
43 46 53 52 42 39 39 38 36 35 33 35 37 39 36 34 33 30 26 21 20 19 17 16 15 13 12 10 9 8 9 11 15 17 20 23 23 22 22 23 25 27 29 30 31 34 36 41 46 51 55 58 59 60
43 47 47 40 37 38 38 36 36 36 37 40 39 38 36 34 33 32 29 24 20 20 19 19 18 15 15 13 12 13 12 13 18 22 24 25 27 27 28 28 28 27 27 28 30 31 34 37 39 41 42 43 45 48
43 44 40 37 37 37 37 37 38 38 40 40 38 37 37 35 35 34 32 26 23 20 21 22 21 20 18 17 16 15 15 15 17 20 23 25 27 29 31 32 33 33 33 32 32 32 32 34 36 37 39 41 43 46
42 40 39 39 39 39 40 38 37 39 40 41 38 39 39 37 36 36 32 27 27 26 27 28 21 23 23 21 20 21 19 18 19 20 21 24 27 28 30 33 36 38 39 40 40 40 40 40 40 40 41 41 41 42
41 42 42 41 40 39 39 38 38 40 40 41 40 40 39 39 39 38 35 30 29 33 35 27 22 25 28 25 24 24 24 22 22 23 24 26 28 29 31 33 34 35 36 39 41 43 45 46 47 48 49 50 51 51
44 44 43 41 40 40 39 39 39 39 40 41 41 41 41 41 41 39 37 33 36 39 35 25 24 26 29 28 28 27 26 25 24 24 25 28 31 32 33 34 36 38 39 40 41 42 42 43 44 46 48 51 53 54
45 44 43 43 42 41 40 40 40 41 42 42 42 43 43 42 41 40 39 41 41 39 28 27 29 29 31 31 31 29 28 29 29 29 30 31 31 33 35 36 37 39 40 42 43 44 45 46 47 48 49 50 50 50
44 43 42 43 42 43 42 42 42 43 42 43 43 43 43 43 41 41 41 40 38 37 32 33 33 32 31 31 31 31 32 32 32 32 34 35 36 37 36 38 38 39 40 42 44 45 45 46 47 49 49 50 51 52
42 43 45 45 45 45 45 44 44 44 44 45 44 43 43 42 42 41 39 38 35 33 33 34 34 35 35 34 34 34 35 35 36 36 37 38 39 39 39 40 40 40 41 42 41 43 44 46 47 49 50 52 53 54
43 45 47 47 47 46 45 45 45 45 46 46 45 45 44 43 42 41 40 39 37 36 37 37 37 38 37 37 37 38 38 39 39 38 38 40 40 41 41 40 41 41 43 43 43 43 44 45 47 48 49 51 53 54
45 49 51 50 50 49 48 48 48 48 48 48 46 47 45 44 43 42 41 39 37 36 38 39 39 39 39 39 39 39 40 40 40 39 39 40 40 40 42 43 42 42 43 44 45 45 45 46 47 49 51 51 51 51
49 51 52 52 50 49 49 50 51 52 52 50 46 46 45 44 44 42 41 40 39 39 40 40 40 40 39 40 40 40 40 40 40 40 40 39 38 41 43 42 42 43 44 44 45 46 47 47 48 48 48 50 50 48
49 49 51 52 51 51 50 51 50 49 51 49 48 45 46 46 43 40 40 41 41 40 40 40 40 40 40 39 40 40 39 40 40 41 40 41 39 39 41 41 42 44 45 47 47 47 46 45 44 45 45 47 48 47
49 50 48 47 44 42 44 45 47 48 48 47 46 47 46 47 44 41 42 43 41 39 40 41 39 38 38 38 39 39 39 40 40 41 41 41 40 40 40 41 42 42 43 45 44 42 41 43 45 45 45 46 45 45
46 47 47 47 45 44 44 46 48 50 50 49 47 45 48 47 43 41 43 44 41 39 39 38 37 36 36 37 37 38 39 40 39 40 41 41 41 40 39 39 40 41 40 41 41 42 43 43 43 43 44 44 44 44
29 29 22 30 29 24 18 17 20 28 35 42 39 41 45 46 47 46 45 41 39 39 39 38 34 33 35 35 36 36 36 38 39 40 40 40 39 39 40 40 39 38 39 41 41 42 41 42 42 42 43 43 43 43
20 25 25 27 33 35 32 30 15 11 19 28 36 41 46 48 50 49 40 37 39 39 36 32 33 33 34 34 34 34 36 37 38 38 37 37 38 38 37 37 37 38 38 39 40 41 41 42 42 42 41 41 40 37

GFSWCAN_250_spd_060.txt.gz
Wind_Speed
108 95 95 97 101 95 102 86 88 80 73 72 75 74 71 69 67 58 54 50 45 46 39 40 39 37 34 30 29 31 27 22 21 19 19 20 17 19 19 19 19 20 20 21 21 20 22 25 27 28 29 29 28 28
104 102 90 101 98 95 81 88 87 77 68 70 73 73 70 66 62 59 53 49 44 45 42 41 39 36 34 33 31 29 31 30 25 23 22 24 24 22 23 25 23 22 22 23 26 27 27 28 27 28 29 29 27 28
113 96 91 95 90 87 82 86 86 73 68 70 71 71 70 65 60 58 52 47 44 44 44 42 39 34 36 34 32 33 30 30 32 29 26 27 30 27 26 27 28 25 24 24 25 25 25 25 27 26 26 25 25 25
120 107 91 99 96 83 79 77 79 68 66 69 70 69 68 63 59 56 50 45 43 43 44 43 40 36 36 35 36 37 33 28 30 35 31 31 32 32 30 31 31 29 28 27 27 26 25 26 26 25 24 22 22 22
121 107 102 117 86 90 85 81 79 60 63 68 68 67 66 62 58 53 49 45 43 43 41 42 40 37 36 36 38 37 35 32 30 35 35 32 35 36 37 36 35 30 29 30 29 29 28 26 25 24 22 22 21 21
119 122 117 104 105 93 95 84 74 66 67 69 67 66 65 61 56 50 47 44 44 43 41 40 37 36 35 35 38 37 34 32 32 33 34 34 36 42 43 43 36 32 32 33 33 30 29 27 25 25 24 22 21 20
135 127 124 111 100 106 94 89 83 71 73 68 65 64 63 60 53 47 45 42 43 42 40 38 35 32 32 32 34 34 31 29 29 29 32 34 39 46 48 50 39 37 39 37 34 31 29 29 27 25 24 24 22 21
153 149 121 120 119 109 101 91 80 75 73 66 65 63 61 58 51 44 43 42 42 40 38 35 34 31 28 29 30 29 27 26 26 28 30 32 37 46 51 53 42 41 42 41 38 35 32 30 27 25 24 26 26 24
164 149 131 127 116 107 93 91 79 73 69 64 65 62 59 54 46 42 40 40 41 38 36 35 32 28 28 27 24 23 21 22 23 24 25 30 40 52 55 49 48 45 45 44 41 38 35 33 32 29 27 27 29 29
159 153 128 119 110 100 89 82 75 71 66 63 64 59 56 50 44 41 38 38 39 35 33 31 28 25 25 23 20 18 17 17 18 20 25 31 38 50 50 49 51 49 48 47 44 42 40 37 36 35 33 31 29 33
158 149 134 110 102 91 80 76 72 70 63 63 59 55 50 46 42 39 37 36 36 34 31 28 26 23 21 20 18 16 15 16 17 19 23 28 35 43 49 49 50 53 52 50 48 46 45 43 40 38 38 37 35 34
140 128 108 92 84 80 76 72 67 63 60 59 54 50 45 43 41 37 36 34 32 29 27 26 24 21 19 19 16 14 14 15 17 19 22 25 29 36 43 49 50 49 50 51 52 53 51 48 46 44 42 41 41 38
120 107 93 78 72 70 66 64 62 56 57 52 49 46 42 41 39 36 35 33 29 27 25 24 22 18 18 17 15 13 12 15 16 19 22 25 28 33 38 42 45 48 48 48 50 52 52 51 51 51 49 46 46 45
103 82 73 69 68 63 61 59 56 55 53 49 44 41 37 40 39 36 33 31 28 24 23 22 21 17 17 15 15 12 12 13 15 17 21 23 26 30 34 38 42 45 48 50 50 49 48 48 49 49 50 49 49 49
78 70 65 62 61 58 56 55 52 51 51 46 41 37 38 42 38 36 33 31 27 23 22 21 20 17 17 16 14 14 11 10 12 14 18 21 25 27 30 33 37 40 43 46 49 52 52 51 49 50 51 52 52 52
66 63 59 57 55 54 55 50 47 48 47 41 37 40 43 40 37 36 33 29 26 23 21 21 19 18 17 16 15 12 9 11 13 15 16 17 20 22 22 24 26 30 34 37 41 45 49 53 55 55 54 54 55 55
59 56 53 51 50 50 50 48 44 43 41 40 42 43 44 40 38 36 33 29 26 25 23 23 20 18 18 17 16 16 16 17 18 18 19 18 17 21 21 21 22 23 24 26 29 32 36 41 45 50 54 56 58 58
49 47 46 47 48 50 51 45 41 42 43 42 42 43 43 38 37 35 32 29 27 26 24 24 22 19 18 18 18 17 17 18 17 15 15 18 21 23 24 25 26 26 24 23 25 27 28 30 32 35 38 42 47 52
43 43 44 46 48 50 48 40 40 42 43 42 43 43 40 35 35 34 33 31 29 26 25 24 24 20 19 18 18 18 18 19 19 17 18 19 21 23 25 27 28 28 28 29 29 29 30 30 31 32 35 37 40 42
41 43 45 47 47 46 38 36 39 42 42 42 41 40 38 35 35 35 34 33 30 28 28 30 20 18 22 22 20 20 19 19 18 20 20 20 21 22 25 27 29 31 33 35 35 36 37 38 38 38 38 38 39 40
42 43 44 45 45 38 35 38 40 42 42 41 39 38 38 37 37 36 36 35 34 35 36 32 20 23 30 28 23 24 23 22 21 21 23 23 22 23 25 26 28 30 32 34 36 38 40 42 44 45 47 47 48 49
42 43 44 45 40 37 40 42 42 42 41 40 40 39 40 40 38 38 40 39 42 43 40 31 26 29 33 34 29 28 26 24 24 24 23 24 26 26 27 28 29 31 32 33 34 35 37 39 41 42 44 45 47 49
43 45 45 41 38 40 40 40 41 40 40 42 42 41 41 42 40 39 41 43 44 42 40 36 35 34 34 32 29 29 27 27 29 29 28 29 30 31 30 31 32 33 35 36 36 37 38 39 39 41 43 44 45 47
45 44 40 39 40 42 41 40 40 40 41 42 42 42 43 44 42 41 41 43 44 43 42 37 35 36 35 33 31 31 32 31 30 31 32 33 33 33 34 35 34 35 36 37 38 39 39 41 42 42 43 44 45 46
43 42 42 43 43 43 42 41 41 42 42 43 44 44 43 42 42 43 43 43 43 43 41 38 35 36 38 37 35 34 36 37 37 38 38 38 38 37 38 39 38 37 40 39 39 39 40 41 41 42 44 45 45 46
43 43 44 44 44 44 43 43 43 43 44 45 45 44 43 42 41 42 43 43 43 43 42 39 37 36 37 39 39 38 39 40 41 42 42 42 41 40 40 40 40 40 42 42 41 40 40 41 42 43 44 45 46 48
43 44 44 44 45 46 46 45 45 45 45 46 46 45 44 44 44 44 44 43 42 41 41 41 40 38 38 38 38 39 41 43 44 44 44 44 42 41 40 41 41 40 41 42 42 41 41 42 43 44 46 46 46 47
46 48 48 47 47 45 45 45 44 45 46 45 44 45 45 44 44 44 44 43 43 43 43 42 42 41 40 40 41 42 44 45 46 46 45 43 40 39 39 41 41 41 41 41 42 43 44 45 46 46 46 47 46 43
49 50 48 44 40 40 42 44 44 44 44 43 44 45 47 47 45 45 44 43 42 42 41 41 41 40 40 40 42 44 45 46 46 45 42 40 37 38 39 40 40 41 43 43 43 44 45 45 44 44 44 44 43 42
44 45 44 42 41 42 43 42 42 41 42 43 45 47 49 50 47 46 46 46 45 43 41 40 40 40 40 42 44 44 43 42 42 41 39 37 36 36 37 39 41 42 43 44 44 44 44 44 44 43 41 41 41 41
42 41 40 39 39 38 39 40 41 41 41 42 43 44 46 47 47 46 48 49 46 45 42 41 41 42 41 42 41 40 40 39 39 38 37 36 36 37 37 37 39 41 43 43 43 43 43 42 40 40 40 40 39 39
38 41 43 42 41 37 37 35 38 39 38 41 40 45 45 44 46 47 49 46 45 44 43 43 45 42 41 38 37 37 36 36 36 36 36 36 36 37 37 38 39 39 39 39 40 40 39 39 39 38 38 37 37 37
39 39 37 34 31 29 23 22 30 32 34 35 38 37 40 41 42 49 51 42 39 41 44 46 42 38 37 36 35 34 34 33 33 34 34 35 36 37 38 38 37 37 37 36 36 37 38 37 36 35 35 37 38 38

GFSWCAN_250_spd_063.txt.gz
Wind_Speed
106 105 99 95 97 89 92 90 88 85 85 89 86 96 75 73 79 76 64 64 60 58 53 53 46 45 42 37 32 35 32 27 24 22 20 21 22 22 19 17 18 18 20 23 24 25 31 36 37 37 39 39 39 37
109 111 105 106 102 99 88 105 89 90 75 89 84 84 73 72 72 83 68 63 59 58 51 52 48 42 42 39 36 34 33 29 28 24 24 23 25 26 24 24 23 22 22 22 24 27 31 30 32 34 34 35 36 35
117 114 113 112 113 111 94 109 105 82 84 91 83 88 78 75 75 74 68 62 57 55 52 52 47 41 42 40 35 35 35 32 30 29 27 27 28 29 30 29 29 28 26 27 26 27 27 27 29 31 32 32 34 34
121 120 119 120 115 123 110 100 116 104 101 89 96 84 83 80 78 68 63 60 55 51 53 50 47 42 40 39 36 37 35 34 32 31 31 31 31 33 34 34 34 34 32 30 32 31 30 29 30 30 30 30 30 30
126 124 124 126 128 127 122 112 113 108 106 106 98 82 82 84 76 69 62 57 55 50 51 50 46 41 40 39 38 37 37 37 36 33 30 32 36 35 36 38 38 37 35 35 32 33 32 31 32 30 30 30 31 31
131 131 130 128 131 134 112 119 116 111 119 115 101 93 89 79 73 67 62 55 54 49 49 49 46 41 38 39 37 36 39 37 36 33 33 32 39 38 37 42 41 40 38 36 34 35 34 33 33 32 32 31 30 28
136 137 137 135 131 127 129 125 128 128 122 110 107 93 80 74 71 67 61 54 51 48 48 46 44 40 38 37 34 36 40 34 38 35 33 34 36 38 40 46 44 42 40 38 36 36 36 34 34 31 30 30 29 27
142 141 140 142 136 117 134 130 139 132 127 117 110 91 78 72 67 66 59 52 48 46 45 46 43 39 34 34 34 35 36 35 35 33 32 33 33 34 42 54 44 43 44 40 37 37 36 37 34 32 30 30 30 29
143 146 147 140 145 134 132 137 131 125 110 109 95 88 79 69 65 63 56 50 46 44 43 43 41 38 35 32 30 30 30 31 31 30 31 28 30 36 48 42 42 45 47 42 40 40 40 37 35 34 32 32 31 31
149 150 150 154 141 136 135 134 133 116 110 99 87 79 71 64 60 57 50 45 43 42 43 42 39 35 31 30 28 27 27 27 26 25 25 28 33 36 40 39 42 48 49 45 45 45 43 41 39 37 35 34 32 30
154 158 145 156 143 144 139 124 108 95 90 78 70 67 60 56 53 48 42 41 41 41 41 40 37 33 30 27 26 24 24 22 22 21 23 25 28 32 35 39 45 51 53 49 49 50 48 45 43 41 39 37 35 33
160 156 148 136 129 127 115 105 91 79 70 66 61 57 52 49 45 40 39 41 39 39 40 37 35 32 29 26 24 22 21 20 19 19 20 22 24 27 31 37 44 49 53 53 51 53 52 49 47 45 43 42 40 39
147 144 134 122 111 104 95 82 70 67 62 58 55 51 47 43 39 41 41 39 37 37 37 34 32 28 26 24 23 21 20 18 17 16 16 18 22 25 27 33 40 49 53 56 55 54 54 53 51 49 48 47 45 44
140 116 107 103 93 86 78 69 64 60 55 54 50 48 43 41 42 42 38 37 38 38 35 32 29 25 25 23 22 20 18 16 14 14 14 17 20 23 25 29 34 44 51 53 56 56 55 54 54 53 52 52 51 50
107 107 100 86 78 72 67 63 57 54 51 48 46 44 42 43 43 38 37 37 39 36 32 30 27 24 24 23 21 19 17 16 16 16 17 18 20 23 24 27 32 38 45 51 52 53 55 56 57 57 57 57 57 57
99 92 84 73 69 67 61 54 51 49 46 45 45 42 40 42 41 38 37 39 38 35 31 29 26 24 24 22 21 19 18 19 19 17 17 18 18 21 24 27 28 32 37 43 47 50 52 54 54 55 54 54 55 55
85 81 73 67 64 58 53 50 47 44 44 44 40 36 37 40 39 37 40 39 36 33 30 28 26 25 23 23 20 20 22 21 19 18 19 19 20 20 21 25 28 30 33 36 39 42 45 47 50 53 55 56 56 56
75 69 65 62 56 51 49 47 45 42 43 38 33 35 39 40 39 39 40 38 33 31 31 28 25 24 25 23 21 20 21 21 22 20 18 15 18 21 23 24 26 26 29 30 30 32 34 36 38 40 43 47 50 53
66 62 58 53 49 49 48 46 44 41 37 33 33 36 40 41 41 38 37 35 34 31 30 28 27 25 24 24 22 22 22 21 21 20 20 20 20 21 22 22 23 25 27 29 32 33 32 32 32 33 34 35 37 39
57 52 48 47 47 48 47 46 43 38 34 34 35 39 41 40 39 38 37 35 34 32 32 32 28 23 27 27 26 23 22 22 22 21 21 21 22 23 24 24 24 24 25 26 28 30 33 35 35 37 37 37 37 38
46 44 45 46 46 46 46 46 43 37 34 37 39 41 42 41 38 37 36 35 35 36 39 38 23 27 32 30 27 25 23 22 21 21 22 24 22 22 24 26 27 27 27 28 30 31 33 35 37 38 40 41 42 44
42 43 43 44 44 44 45 46 42 35 36 40 42 43 41 40 38 38 39 37 40 42 43 36 26 30 35 34 31 28 27 23 23 24 24 24 25 26 26 27 28 29 30 31 32 33 34 36 37 38 39 40 41 42
42 42 43 44 44 46 47 44 38 36 38 41 42 41 41 41 40 39 40 43 45 43 41 39 37 37 38 38 34 30 28 27 28 28 28 27 28 29 29 29 30 31 32 32 32 34 36 37 38 39 41 42 42 42
43 44 45 45 48 48 45 40 35 36 40 42 42 41 41 42 42 41 44 45 45 45 45 44 42 41 39 37 38 37 34 32 33 33 33 33 33 33 34 34 34 35 35 35 36 36 36 37 39 40 41 42 44 44
46 46 47 49 49 45 40 36 35 37 39 41 42 42 42 42 42 43 44 46 47 46 46 46 45 43 41 42 41 42 39 36 36 37 36 36 37 38 38 39 39 39 40 40 40 40 39 39 40 41 42 43 44 44
48 48 48 48 44 38 35 34 36 38 41 42 42 42 42 43 43 45 45 45 46 47 48 48 46 45 44 43 42 40 40 41 40 39 39 40 41 42 43 45 46 45 45 44 43 42 42 42 42 43 43 43 44 45
47 46 44 41 39 38 39 40 38 38 39 40 41 42 44 46 46 46 47 46 46 46 47 48 48 47 46 44 44 44 43 42 42 42 43 44 44 44 46 49 50 49 47 45 44 44 44 44 43 44 44 45 46 47
45 42 41 40 36 33 33 36 39 41 43 43 45 46 47 47 48 47 47 46 46 46 47 47 45 45 43 43 43 43 43 42 43 43 44 45 45 47 48 49 49 48 46 45 44 44 44 44 44 45 46 46 46 46
40 39 38 36 37 39 42 43 44 46 44 43 45 45 46 47 48 48 48 48 47 47 47 46 45 43 43 43 43 43 43 43 44 45 46 47 48 47 47 46 47 46 45 44 43 43 43 44 45 46 46 46 46 45
40 42 40 38 38 41 42 43 43 43 42 43 44 44 46 46 46 47 49 49 49 48 47 46 44 42 41 41 41 42 42 43 44 46 47 47 47 45 44 44 44 44 43 42 41 42 42 44 45 45 44 42 41 42
38 36 34 34 36 38 40 42 42 42 41 42 42 44 46 47 47 48 50 50 48 47 46 44 41 41 40 40 41 40 41 42 44 45 45 44 42 40 40 40 41 42 42 42 42 42 43 43 42 42 41 41 41 41
36 36 35 35 36 36 37 38 40 41 42 41 41 43 45 45 47 47 49 46 44 40 37 36 38 39 40 43 43 42 42 42 43 42 41 39 39 38 38 39 38 38 39 41 41 41 41 41 41 40 41 40 40 40
36 38 36 33 29 27 26 27 29 32 37 40 40 40 42 43 43 48 47 39 34 33 33 34 38 41 45 47 44 40 42 41 41 39 38 37 37 38 37 36 37 37 37 37 38 39 39 38 38 39 38 37 36 37

GFSWCAN_250_spd_066.txt.gz
Wind_Speed
102 104 106 105 105 100 101 102 102 97 95 99 101 97 90 93 94 102 100 86 73 68 68 60 54 48 45 43 40 39 37 35 31 28 26 21 20 21 21 20 21 19 18 19 22 22 26 28 29 31 33 37 40 39
104 105 108 109 106 105 106 107 108 105 99 100 104 98 101 90 92 107 95 68 59 64 62 55 51 46 44 42 41 37 36 36 31 30 29 25 23 22 23 24 23 22 21 20 22 23 26 27 31 32 34 35 38 41
107 110 110 110 111 110 111 111 109 109 108 109 106 114 105 104 101 106 95 74 63 58 60 49 48 45 42 40 38 37 37 36 33 32 29 27 27 26 26 27 24 26 25 26 23 25 27 29 31 34 36 38 36 37
109 112 113 113 114 116 117 116 114 113 111 117 114 116 108 103 106 113 97 80 66 56 55 48 45 43 41 38 38 37 35 35 34 33 31 29 28 31 30 29 29 31 30 27 27 26 26 30 33 35 35 36 36 38
115 116 117 119 119 121 123 123 117 115 120 112 114 118 109 100 107 100 100 88 70 60 51 47 42 40 39 37 37 36 34 35 34 33 33 31 30 32 31 34 36 33 32 33 31 32 29 29 29 30 33 34 34 33
118 122 123 125 124 128 131 128 121 114 116 119 111 114 108 113 110 94 103 85 70 59 50 45 40 37 37 34 35 35 33 36 34 34 33 29 32 31 32 38 41 36 37 36 35 38 36 36 34 32 29 28 28 29
125 126 125 129 130 135 136 135 118 122 118 115 115 111 110 106 98 94 78 75 65 57 46 43 38 36 34 34 34 33 32 36 34 31 33 31 32 31 33 41 44 40 39 39 40 41 41 41 40 35 34 31 29 29
126 130 130 132 135 138 139 137 122 123 118 115 110 119 107 110 99 93 79 61 57 52 44 41 36 33 30 32 32 30 31 34 31 29 34 34 33 32 33 48 44 37 43 41 43 42 43 45 41 39 36 35 34 34
132 135 133 134 136 134 142 139 126 125 121 122 114 107 117 106 105 104 71 57 50 48 43 38 34 31 28 30 30 30 30 31 31 31 33 34 32 32 43 46 37 36 44 44 44 41 44 46 44 42 38 36 36 34
138 138 137 137 137 142 141 138 132 116 126 111 104 104 95 103 108 85 71 55 47 45 41 35 32 30 29 26 25 26 27 28 30 29 30 29 32 37 37 39 34 33 38 43 42 42 44 46 44 42 38 38 37 35
139 140 143 143 143 146 141 137 125 124 111 107 118 107 99 100 82 67 66 52 45 43 40 34 30 30 29 26 23 21 22 24 25 25 26 29 29 26 31 32 28 30 36 40 43 42 45 45 42 40 41 40 38 35
142 146 150 150 151 151 139 128 123 116 117 108 100 89 85 74 62 60 59 52 43 41 38 32 30 29 28 25 20 20 21 22 21 21 22 21 22 21 22 23 25 26 33 39 42 42 44 42 41 42 43 41 39 37
150 151 152 155 153 140 127 126 121 100 107 109 90 80 66 59 58 58 57 49 40 40 37 33 29 27 25 23 20 19 19 19 19 19 19 19 18 19 19 19 21 24 30 38 41 42 43 42 43 45 45 43 42 42
154 150 156 152 144 123 114 109 101 101 97 80 81 67 61 56 55 56 53 43 39 40 35 31 28 26 24 21 19 19 18 18 18 18 18 18 17 17 17 17 19 23 29 38 41 42 44 44 45 47 47 47 47 46
153 153 156 146 128 100 104 96 100 98 85 70 63 61 57 52 53 51 45 40 39 38 34 30 27 24 22 20 19 19 18 18 19 19 18 18 17 17 16 17 19 23 28 35 42 45 47 48 48 50 52 52 52 51
155 155 153 127 113 104 98 102 93 79 66 58 56 53 51 48 48 45 41 37 37 36 31 28 25 23 22 21 20 19 19 20 19 18 16 17 17 17 18 18 20 22 25 31 39 46 49 50 52 53 52 53 53 54
146 139 119 113 114 97 106 95 80 69 60 55 51 50 46 44 42 39 38 34 35 34 30 26 24 23 22 21 20 18 20 19 17 18 17 16 18 18 19 21 21 22 24 27 32 41 47 49 51 52 54 56 57 58
119 109 113 99 97 105 93 83 68 59 54 48 46 44 41 39 38 36 33 33 33 32 28 26 24 24 21 19 20 22 21 19 20 19 17 16 13 16 20 20 20 22 24 27 29 33 38 43 48 51 53 55 56 57
110 110 105 99 91 83 73 64 59 53 48 44 41 39 37 36 36 32 31 33 32 32 27 26 25 25 20 20 22 21 22 21 20 19 18 17 17 19 18 20 20 20 22 25 26 29 33 38 40 42 44 46 48 49
95 96 88 81 73 67 60 56 53 50 46 42 39 36 34 33 35 32 32 33 33 30 27 29 32 24 23 24 22 24 24 23 21 21 21 20 18 18 19 21 22 22 22 22 24 26 28 29 32 34 36 37 38 38
78 74 71 65 61 56 53 52 51 47 43 39 36 35 33 33 35 33 33 33 32 31 34 34 30 25 26 28 27 24 24 24 22 22 21 20 21 20 19 21 22 23 23 23 25 27 29 31 32 34 35 37 38 39
64 62 60 57 53 50 50 50 46 43 40 36 34 35 34 35 36 34 33 34 36 36 37 35 29 29 32 33 29 27 27 25 22 22 23 22 21 22 23 24 24 25 25 25 26 27 29 30 32 34 35 36 38 40
57 55 54 51 49 48 47 45 42 42 40 37 34 34 36 38 37 36 36 37 38 36 36 35 33 34 35 35 33 30 29 29 28 27 26 26 25 25 25 25 25 26 26 26 27 28 29 30 32 34 35 37 38 40
52 50 48 47 46 45 44 43 44 44 41 35 34 36 37 38 38 37 37 38 39 40 39 40 40 39 40 39 40 36 33 32 32 31 31 30 30 29 28 29 29 29 29 29 30 31 31 32 33 34 36 37 38 39
48 46 45 46 46 45 45 46 45 41 39 35 36 37 38 39 39 39 39 39 41 42 43 42 43 43 42 42 43 42 39 37 36 37 37 36 36 36 35 35 35 35 36 36 36 37 38 38 39 40 40 40 41 42
44 44 44 44 44 45 46 46 42 36 34 34 36 39 41 43 43 43 42 41 42 44 45 45 44 46 46 46 45 44 43 42 41 39 37 38 38 38 39 40 40 40 41 42 43 43 43 43 44 45 44 42 42 44
41 42 42 44 45 46 45 43 40 37 38 38 40 42 44 44 44 43 43 43 44 45 45 46 46 45 46 46 47 46 46 45 45 41 40 39 38 39 41 42 43 44 45 45 45 46 48 49 48 45 43 43 44 45
41 43 43 44 44 43 43 41 39 37 37 39 41 43 42 43 44 44 44 45 45 45 46 46 47 46 45 45 45 45 45 45 44 45 43 41 40 41 42 43 44 45 45 46 48 48 48 48 45 43 43 45 44 44
39 40 43 42 42 41 40 39 37 37 37 39 41 42 44 45 45 46 46 46 46 46 46 46 45 44 45 44 43 42 42 43 43 43 42 41 40 41 42 44 46 47 48 49 48 45 44 43 42 43 44 45 45 45
40 43 41 38 37 38 39 38 39 41 42 43 43 44 47 47 46 47 48 47 47 45 43 42 41 41 40 41 41 42 42 43 43 43 44 44 44 43 44 47 48 48 47 46 44 44 43 43 43 43 42 43 43 44
41 39 36 35 36 37 38 39 40 40 41 42 43 43 44 44 44 46 48 48 44 42 41 39 38 38 40 41 41 41 41 41 42 43 44 44 44 45 45 46 46 45 44 44 43 43 43 43 42 41 41 42 43 45
36 34 33 33 34 35 37 38 39 40 40 41 41 41 41 39 40 42 45 42 39 36 35 35 38 40 40 41 41 40 39 39 39 40 42 43 42 41 40 39 39 39 40 40 41 41 42 40 40 42 44 45 45 45
30 32 33 35 35 34 34 34 34 35 36 37 38 36 37 35 37 44 42 31 29 35 37 37 39 42 42 42 41 41 40 40 39 39 41 40 38 37 36 36 36 37 37 38 38 37 37 39 40 42 43 43 42 42

GFSWCAN_250_spd_069.txt.gz
Wind_Speed
87 91 91 93 95 96 99 100 101 102 103 102 99 98 99 98 96 97 95 96 94 96 94 85 79 66 52 46 42 38 30 31 28 24 23 23 21 20 21 20 17 17 19 18 21 22 25 25 28 30 31 32 33 33
91 93 94 95 95 97 102 105 106 106 105 104 103 103 102 103 102 99 101 98 92 99 99 86 69 60 50 43 41 38 31 30 28 24 25 24 24 23 21 22 20 19 21 20 20 21 22 23 25 28 31 31 32 35
92 92 94 96 97 100 105 108 109 109 109 108 106 106 106 103 98 99 110 101 95 92 97 90 65 51 42 37 37 38 32 26 26 24 25 23 23 23 23 23 23 22 21 21 21 21 20 22 24 28 29 30 31 35
93 95 96 99 101 106 110 111 113 113 110 111 110 109 107 103 103 111 107 99 98 90 91 83 61 44 38 34 35 35 30 25 26 24 24 24 26 26 26 27 25 25 25 23 24 25 25 26 26 26 30 31 32 35
97 100 100 102 107 110 112 115 117 114 113 114 115 114 111 110 111 111 108 108 96 95 83 68 54 42 36 31 32 32 29 25 25 24 24 25 26 26 26 29 31 27 26 28 26 29 30 28 27 28 30 32 34 35
100 103 106 109 112 113 115 116 118 118 120 115 118 117 111 113 116 119 107 109 101 93 80 63 50 40 35 30 31 31 27 25 26 25 26 25 26 26 26 34 33 31 29 30 31 30 33 34 34 31 29 31 35 35
104 105 108 111 113 112 115 117 117 120 121 116 117 116 115 116 117 109 113 104 95 83 69 58 50 40 34 31 30 29 26 27 24 25 25 24 25 23 28 36 39 29 32 35 35 34 36 39 39 37 34 31 30 31
106 107 110 112 114 114 116 119 120 124 123 123 119 122 117 122 110 119 120 108 99 87 69 54 47 39 35 31 29 27 26 25 26 26 23 24 25 22 28 42 41 30 32 39 39 42 40 43 43 42 40 37 32 30
109 111 112 113 115 117 118 119 122 125 129 125 117 117 123 115 120 124 109 103 91 87 72 51 44 38 35 31 29 27 26 25 26 25 21 25 25 25 38 40 36 29 30 37 43 47 44 42 45 44 43 41 37 34
114 117 117 115 119 121 122 125 127 128 128 124 117 125 126 126 111 110 105 95 85 80 71 52 41 36 32 29 28 28 25 23 25 25 23 24 27 32 34 36 32 34 32 34 40 44 45 40 44 44 42 42 41 36
116 118 119 120 123 125 127 129 130 131 132 121 129 124 117 110 108 112 108 83 81 69 64 54 40 35 30 26 24 26 26 24 25 26 25 25 28 29 30 32 32 32 31 33 37 39 41 38 41 42 42 41 40 39
120 122 123 127 126 126 132 133 135 133 127 129 129 125 123 102 120 110 96 91 69 61 57 51 40 34 30 26 24 23 25 26 25 26 26 23 23 27 28 28 27 26 26 27 29 33 34 35 38 41 42 41 40 42
124 124 125 126 126 131 132 135 139 139 128 131 129 112 104 113 96 83 79 72 62 56 51 46 38 32 29 26 24 22 23 24 23 22 22 23 23 24 25 26 27 26 26 26 27 26 27 32 37 39 41 42 39 40
128 129 129 131 136 137 140 143 141 135 128 120 127 110 109 89 101 86 67 60 56 51 46 42 35 30 28 26 23 20 22 22 21 20 20 18 19 21 22 22 22 22 22 23 24 24 26 33 36 39 41 40 38 39
135 131 131 135 143 145 145 142 135 131 125 112 113 100 97 100 79 65 56 53 50 47 41 37 32 27 28 26 22 21 21 20 20 17 15 15 16 17 18 19 20 19 17 19 22 24 26 32 36 39 41 40 39 40
136 137 140 144 143 146 147 138 126 126 119 112 106 98 92 82 65 55 52 48 46 42 38 34 29 26 26 24 20 20 19 19 18 15 14 14 14 16 16 18 18 18 17 18 21 24 28 32 35 40 41 41 40 42
140 143 150 143 147 150 139 134 120 115 117 112 109 103 85 72 60 53 49 44 41 38 34 30 27 26 25 21 19 20 20 20 17 16 14 13 13 13 15 16 18 19 18 19 22 26 29 33 35 38 43 44 44 46
145 149 148 151 147 143 133 131 125 119 106 98 104 87 73 64 57 49 42 37 37 33 29 27 26 25 23 20 20 22 22 19 18 17 15 14 14 14 14 17 17 17 19 19 21 24 29 34 39 42 43 45 48 50
150 151 147 143 135 135 129 123 109 111 107 106 83 76 64 58 50 42 37 35 32 30 28 26 26 27 25 23 23 24 23 21 20 18 16 14 16 17 17 16 16 17 17 17 19 21 24 27 31 36 41 45 47 49
149 144 133 130 122 117 114 117 116 109 90 75 71 64 56 49 43 36 33 32 31 29 28 29 32 28 26 26 27 26 25 23 22 19 17 17 20 18 16 17 19 18 18 19 19 19 21 24 25 27 29 33 37 41
133 124 121 113 113 116 113 97 84 76 72 66 62 54 47 42 37 33 32 32 32 32 32 32 30 28 28 29 30 29 26 22 22 22 21 19 18 19 19 19 20 20 19 19 20 20 22 24 26 27 28 30 32 34
107 107 107 105 101 94 86 79 72 68 63 59 53 47 41 37 35 33 33 34 33 32 32 30 30 31 31 30 32 31 28 27 26 24 22 21 21 21 21 21 20 20 19 20 21 21 22 23 24 26 28 30 32 34
91 87 85 82 77 73 71 66 62 60 56 52 47 41 37 37 35 32 34 34 34 35 36 34 35 37 35 34 35 33 32 32 29 26 24 23 24 22 22 22 23 22 21 22 23 23 24 25 26 27 28 30 31 33
76 73 69 66 64 61 59 56 55 53 50 46 43 39 37 35 32 33 36 35 34 35 37 37 38 39 40 38 38 38 37 34 32 30 29 28 27 26 24 24 24 24 24 24 24 24 25 26 27 28 30 31 33 33
63 61 59 58 55 54 52 51 49 48 47 45 42 37 35 34 34 34 36 36 36 37 39 39 38 40 41 41 40 41 39 36 34 32 32 31 30 29 29 29 28 27 28 28 29 29 29 31 33 34 35 37 39 40
54 53 51 50 50 48 47 46 45 44 44 43 38 34 32 33 34 35 37 37 37 38 39 39 40 41 42 43 43 43 43 41 40 40 38 36 36 35 34 34 34 34 34 35 35 35 36 38 39 40 41 43 43 43
46 45 45 45 44 43 42 42 42 42 41 38 34 32 33 33 34 36 38 38 38 39 39 41 42 42 42 42 42 43 44 44 43 42 40 39 39 39 38 38 37 36 37 37 38 39 41 42 43 45 46 45 46 46
41 41 42 43 43 43 42 40 39 38 36 35 33 31 33 35 36 37 40 41 41 42 43 42 41 41 43 44 43 44 44 43 44 45 45 45 43 41 41 41 40 40 39 39 40 42 43 45 46 47 47 48 46 46
38 40 41 42 41 39 37 37 36 36 37 37 34 32 34 36 39 41 43 43 43 44 43 42 42 43 42 43 43 43 44 45 44 43 44 43 41 41 43 41 40 40 41 42 43 44 45 47 48 48 48 46 45 43
38 39 38 36 35 36 36 36 37 38 38 38 37 36 38 40 40 42 43 44 43 41 40 40 39 39 40 42 43 42 44 44 42 42 41 40 41 41 42 43 43 43 43 44 45 46 46 47 46 46 45 43 43 45
37 35 34 34 34 34 34 34 35 35 35 35 35 37 38 39 40 40 42 40 37 36 35 35 36 37 40 41 42 42 42 41 41 39 39 39 39 38 39 40 42 42 43 43 43 44 44 44 43 41 41 41 41 42
30 30 30 30 29 29 30 31 32 33 35 35 34 35 35 33 33 35 32 27 28 31 34 36 38 41 41 43 42 42 40 38 38 39 39 39 39 39 40 40 39 41 41 42 42 41 39 39 38 40 40 40 41 43
26 27 28 28 28 28 28 29 30 30 30 31 31 32 30 28 30 33 30 29 30 36 37 37 38 37 35 35 35 35 35 34 34 36 38 39 39 40 41 38 37 37 38 38 37 37 37 37 37 37 39 41 41 42

GFSWCAN_250_spd_072.txt.gz
Wind_Speed
67 67 68 73 75 77 79 82 82 84 86 88 92 93 96 96 99 99 99 97 99 104 109 105 93 106 93 88 76 64 49 38 31 30 28 23 21 22 23 21 22 22 21 21 21 19 19 22 27 30 31 32 32 35
69 71 74 77 80 79 81 83 85 87 89 92 95 98 99 100 101 101 102 100 101 105 112 109 91 96 85 81 70 57 46 35 29 29 26 25 22 20 21 24 23 23 23 22 21 19 19 18 22 25 29 32 32 32
75 76 77 81 83 82 84 86 87 89 91 95 97 99 101 103 102 102 101 104 106 103 102 110 100 99 84 76 64 50 40 29 27 27 24 24 23 23 24 23 24 25 23 23 22 22 20 20 20 22 24 29 32 31
76 78 80 83 84 86 88 88 90 92 96 97 100 101 105 105 106 105 102 107 104 107 100 103 92 94 83 70 56 45 35 30 29 29 25 24 26 24 25 25 25 24 25 24 25 25 24 23 19 21 23 24 29 31
81 81 83 86 86 91 91 93 95 97 99 101 105 106 106 106 108 105 107 111 107 106 100 99 96 89 79 64 51 40 33 31 31 28 26 25 27 27 25 26 28 25 23 26 25 27 26 25 24 24 24 25 26 30
81 83 89 88 89 92 93 96 97 100 104 106 107 108 108 109 110 108 104 111 109 104 103 98 95 89 80 58 47 39 33 34 32 27 27 27 30 26 24 28 29 27 25 25 28 28 29 29 28 27 27 27 28 30
87 87 91 94 94 95 98 100 103 105 107 108 112 114 112 112 112 109 107 108 102 107 103 92 90 87 75 54 43 37 33 33 31 25 25 31 28 25 27 32 35 27 27 28 32 31 32 31 32 32 32 32 31 30
90 90 90 95 100 99 100 105 108 109 111 112 115 117 117 116 114 113 112 115 105 102 99 95 90 83 67 48 40 36 34 31 29 26 26 29 24 24 28 40 36 23 29 30 31 34 35 36 36 35 36 37 36 34
94 93 94 101 103 103 105 110 112 112 113 117 117 120 119 121 119 117 117 115 109 111 99 105 88 79 61 45 37 34 32 29 28 27 25 24 23 23 39 38 33 26 27 31 32 37 41 41 39 40 40 41 41 39
98 98 102 105 106 109 111 113 113 115 118 118 120 123 124 120 119 118 119 109 112 107 113 99 87 73 56 43 35 31 31 27 26 27 25 26 32 37 40 33 30 27 27 31 35 40 42 43 43 47 48 40 41 42
106 106 106 108 110 112 115 114 116 119 119 120 123 126 123 120 121 125 124 117 123 111 108 90 77 62 51 40 34 30 28 25 25 27 28 32 34 31 29 30 32 31 34 37 36 37 40 43 45 47 47 38 41 43
111 110 110 110 112 114 116 116 120 120 122 125 127 129 112 124 126 125 126 121 103 110 104 90 65 53 43 36 33 30 26 24 25 27 28 28 27 29 31 32 34 33 33 34 35 35 35 39 40 41 42 36 39 41
113 113 113 113 115 117 117 120 123 125 128 130 129 130 130 126 125 118 122 105 97 107 88 71 55 47 37 33 30 28 25 23 24 25 26 28 29 30 30 30 32 32 33 33 33 34 34 34 33 32 33 35 39 38
115 115 114 118 122 122 124 126 130 131 132 134 131 126 128 126 120 121 106 102 91 90 81 53 47 42 33 29 28 26 24 23 24 26 28 28 28 28 28 28 29 29 27 27 29 30 30 29 29 29 29 33 36 36
117 117 121 126 124 126 128 131 132 132 134 134 132 127 123 124 119 122 100 91 90 82 56 48 44 38 31 27 27 25 22 22 25 26 25 25 26 27 25 24 25 24 25 26 27 25 24 25 25 26 28 31 34 35
123 123 126 127 126 129 134 134 134 133 134 136 133 121 123 119 112 102 84 78 91 64 49 42 40 34 29 26 25 22 22 23 26 25 24 26 25 23 22 23 23 23 21 21 22 20 19 20 21 24 27 30 32 34
125 126 130 131 130 131 133 136 136 136 136 121 111 122 124 113 108 99 85 84 64 54 47 39 37 32 28 26 24 23 24 25 24 23 24 26 25 23 22 22 21 20 19 20 20 20 19 19 21 23 27 31 33 35
129 126 129 133 134 137 137 137 136 137 132 129 132 131 127 110 103 101 97 63 58 51 44 37 36 31 27 26 24 25 26 27 25 24 23 23 22 22 22 20 19 19 17 18 20 20 21 23 24 27 30 32 34 37
129 128 133 134 137 137 139 141 140 135 132 133 132 131 110 114 100 110 85 60 53 48 40 35 34 32 30 27 26 26 28 28 26 26 23 22 22 23 23 22 19 18 19 19 19 20 20 22 24 27 30 32 35 37
141 137 141 144 145 147 149 148 140 135 134 127 130 112 116 115 100 77 67 55 48 44 39 36 35 34 30 27 27 27 31 31 28 27 24 21 23 25 24 22 21 22 21 20 20 20 19 21 23 25 26 28 31 34
144 145 144 146 143 144 146 141 142 136 132 122 118 120 109 95 72 63 58 51 45 40 38 36 35 35 29 27 27 30 32 33 28 28 28 25 26 27 25 24 23 22 23 23 21 20 20 21 22 23 25 26 27 29
142 143 142 140 140 130 120 127 125 121 120 120 118 105 84 72 63 56 49 46 43 38 39 38 38 39 36 33 33 34 35 35 31 30 32 31 28 26 26 26 25 24 24 24 22 22 23 23 23 24 25 26 27 28
128 128 130 125 116 110 119 115 113 112 106 93 81 73 67 60 53 48 44 42 41 37 38 38 39 40 39 35 34 36 38 36 32 32 33 33 31 30 29 28 27 26 25 25 24 25 25 24 24 25 26 28 28 29
108 102 100 97 99 104 104 97 89 82 77 70 64 62 58 52 49 46 42 40 38 36 35 36 38 39 38 37 37 38 40 38 35 34 35 34 33 32 31 29 29 28 28 27 27 28 27 26 26 27 27 28 28 28
81 75 79 83 83 80 78 74 69 65 62 59 56 53 50 48 47 44 39 36 35 36 38 38 37 38 38 37 38 39 40 41 39 38 38 37 36 35 34 33 31 30 30 30 30 29 29 29 29 28 29 29 29 30
72 69 67 66 65 63 62 59 58 56 55 52 49 47 47 46 44 39 36 35 36 37 36 36 37 39 40 40 40 40 42 43 44 43 41 40 39 37 36 37 35 34 34 32 32 32 31 32 31 32 32 33 35 37
57 56 56 56 55 54 53 52 52 50 48 46 45 45 44 43 40 36 35 35 35 36 36 36 38 39 40 41 41 42 43 44 45 46 45 44 43 42 41 40 39 39 37 36 35 35 35 36 37 37 37 38 40 43
50 50 49 48 49 49 48 47 47 46 45 44 43 42 41 38 34 32 33 35 35 35 36 36 36 38 41 41 43 44 44 45 45 46 46 45 44 45 44 43 42 42 40 38 38 38 38 38 38 39 41 43 44 45
46 46 46 45 44 44 43 44 44 45 43 42 41 40 39 37 33 32 35 37 37 37 36 36 37 38 39 41 43 44 45 45 45 45 45 44 44 43 43 43 44 43 42 41 41 40 40 41 42 42 44 45 45 46
42 43 43 44 44 43 41 41 41 41 40 40 39 37 36 35 35 35 38 38 37 37 37 38 38 39 40 42 44 43 44 45 43 41 40 41 40 40 42 41 39 40 41 41 41 42 42 43 44 45 46 46 46 46
41 41 41 40 40 40 40 39 38 37 36 34 34 33 33 34 34 33 33 33 34 35 36 37 37 38 41 40 40 40 39 38 38 37 37 36 35 34 36 38 39 39 39 39 41 42 44 44 44 45 45 43 42 40
40 39 38 36 34 33 32 31 31 32 33 32 32 32 31 28 27 24 22 25 30 34 35 35 35 35 33 34 33 34 35 34 35 35 35 35 35 34 35 36 37 38 40 41 41 41 41 41 41 39 36 34 36 39
33 31 30 29 29 28 29 29 29 30 30 29 29 26 25 24 23 22 23 26 28 32 35 36 37 37 36 37 38 38 38 36 34 34 34 35 35 35 36 36 37 39 40 40 38 38 38 36 34 33 33 36 39 41

GFSWCAN_250_spd_075.txt.gz
Wind_Speed
62 59 56 56 59 61 62 58 59 64 66 68 72 73 75 77 79 82 84 87 93 99 103 105 96 99 101 99 100 90 79 67 49 40 32 23 24 25 30 28 25 26 24 23 23 24 23 26 25 26 29 33 34 35
64 63 61 60 61 61 59 61 66 69 71 73 75 76 78 80 81 84 86 89 92 98 104 106 100 101 109 100 99 92 77 62 46 39 33 24 21 23 31 29 26 28 24 23 25 24 22 24 24 24 25 29 31 34
61 61 59 59 61 62 62 68 71 74 74 75 79 81 82 82 86 88 91 93 95 97 100 105 106 113 107 99 89 86 71 57 45 39 32 26 24 24 26 32 27 26 28 26 26 25 23 23 24 24 23 26 28 30
63 62 61 64 67 68 69 71 74 76 78 80 82 86 86 86 89 90 94 96 100 102 101 106 104 106 105 102 88 81 68 51 43 38 33 28 28 26 28 29 28 27 29 28 28 26 25 24 23 24 23 23 25 27
67 67 68 69 71 72 72 72 75 77 79 83 86 90 92 89 94 94 96 102 104 105 105 109 109 104 104 92 81 71 59 46 41 36 32 29 28 30 30 31 31 32 29 29 29 28 28 24 24 24 24 23 21 23
73 71 74 73 73 74 76 77 77 77 85 86 88 89 93 96 100 99 99 105 107 107 112 114 104 109 99 90 79 74 53 41 38 35 32 28 28 28 30 34 33 30 29 29 28 31 29 27 27 26 25 24 24 23
76 74 74 74 73 74 77 81 80 83 87 89 89 91 95 99 105 105 105 106 108 108 112 116 106 102 94 87 75 74 51 40 36 34 33 27 26 25 31 37 33 27 29 29 29 31 30 27 29 29 28 28 27 27
78 76 76 73 77 79 82 82 86 89 92 93 94 95 98 102 106 110 111 111 113 114 121 112 101 102 91 91 76 63 49 40 36 33 30 26 24 28 34 41 32 27 30 32 32 33 32 32 31 30 30 31 31 31
80 80 81 79 82 85 87 89 90 93 96 95 97 100 102 106 110 113 114 115 115 118 119 103 113 102 94 89 81 61 45 38 34 30 25 27 28 33 45 36 34 23 28 33 32 33 33 34 34 34 33 33 35 36
83 80 81 78 81 94 95 94 95 97 98 99 101 105 106 110 113 116 118 118 117 114 123 105 102 97 92 93 85 60 42 38 34 29 26 29 33 37 36 35 33 26 27 31 34 35 35 37 38 38 38 38 38 38
82 86 83 85 90 93 93 93 99 100 102 102 104 108 112 114 117 119 120 118 120 117 117 108 99 95 104 86 72 55 41 36 34 30 28 29 30 30 33 33 31 29 27 28 33 36 37 38 39 41 42 43 44 44
91 90 92 96 101 101 102 104 104 104 106 107 109 113 116 119 120 122 120 123 118 124 114 96 100 96 100 77 54 46 37 34 33 31 28 28 25 29 32 31 28 26 28 32 35 37 39 39 41 43 44 46 48 48
94 99 100 100 103 106 108 109 108 107 110 112 115 118 120 122 123 121 122 120 125 120 115 104 88 100 87 69 48 41 35 33 29 28 29 28 28 30 31 29 30 31 33 36 37 38 40 39 40 42 43 44 43 42
99 102 106 107 108 109 110 114 112 112 114 117 120 122 125 125 123 123 124 124 120 118 114 89 96 113 85 58 46 38 35 32 29 26 28 28 28 28 28 29 29 30 32 35 35 36 37 37 37 36 36 36 36 36
106 108 110 112 112 111 112 116 116 116 119 122 125 127 127 124 120 127 123 117 120 118 112 111 86 82 82 53 43 37 36 32 30 28 27 27 26 27 28 28 27 29 30 32 32 32 33 32 32 31 31 30 29 28
109 111 116 114 115 115 117 121 119 122 125 127 132 130 129 124 128 124 124 123 121 117 117 102 78 98 60 47 41 36 35 33 31 29 27 25 25 26 26 27 28 29 29 29 29 29 29 30 29 28 26 26 25 24
112 117 119 116 120 122 124 123 125 126 129 131 132 128 133 129 128 127 129 123 120 116 110 85 84 59 44 40 39 35 34 33 32 28 27 25 26 25 24 27 28 29 28 27 28 27 27 25 24 22 21 23 24 24
118 121 122 122 125 126 126 127 128 130 130 134 134 131 128 118 121 119 126 129 127 113 103 90 67 50 43 38 38 34 32 33 32 28 27 27 26 25 25 26 27 27 26 25 25 24 24 23 23 22 22 23 25 26
123 125 126 126 126 126 128 128 128 129 131 133 131 128 124 127 134 134 122 121 115 105 80 66 53 45 40 35 35 34 34 35 34 30 30 30 28 26 25 26 27 27 25 24 25 24 24 24 23 22 23 24 26 28
125 127 127 127 128 128 128 128 131 130 129 131 133 130 124 127 122 123 127 113 103 86 63 52 45 41 38 35 34 33 35 38 36 32 31 31 31 28 27 28 28 27 26 25 25 24 25 25 24 24 25 25 27 28
127 128 126 125 129 132 133 133 141 141 132 128 129 117 123 123 115 117 111 94 77 63 54 47 41 39 38 36 36 36 39 39 38 35 32 31 32 32 31 30 29 27 26 26 28 28 25 25 26 26 26 27 29 29
131 133 131 132 136 138 138 137 135 138 132 132 123 119 113 117 115 103 86 70 61 55 49 43 38 37 37 36 37 39 40 41 41 39 35 33 32 33 34 35 33 30 29 30 29 27 28 28 27 27 27 27 27 27
132 133 134 132 135 138 134 131 126 124 121 120 110 111 109 96 83 73 67 58 53 48 42 39 38 38 38 37 38 39 41 43 44 43 40 36 34 33 34 34 33 33 32 32 32 31 32 30 30 29 29 29 30 29
121 121 120 120 118 118 116 110 108 104 102 104 101 91 79 73 67 61 56 52 48 43 38 36 38 37 39 39 37 35 38 42 44 45 43 40 37 37 37 35 35 33 33 34 34 34 33 32 33 32 31 31 31 31
106 104 101 100 101 97 94 92 89 88 83 78 73 70 65 62 58 54 52 48 43 39 36 35 38 38 37 39 40 39 39 41 44 46 45 43 41 41 40 39 37 35 36 34 35 36 35 35 34 33 33 32 33 33
83 82 82 81 80 76 75 73 71 68 65 63 62 60 57 55 53 50 46 42 39 36 32 34 39 38 38 41 43 42 41 42 43 45 46 45 43 43 43 41 39 38 37 35 35 36 37 37 35 34 33 34 35 36
64 62 63 63 61 60 61 59 59 59 58 57 54 54 52 50 46 43 41 38 35 33 33 36 40 42 42 43 43 44 44 44 44 45 46 46 45 44 44 43 41 42 40 39 37 37 37 36 36 36 35 36 36 36
48 51 53 52 52 53 54 54 53 53 52 50 50 48 45 42 39 38 38 37 35 34 35 38 41 43 44 44 44 45 46 46 46 46 45 47 46 45 44 43 43 43 42 40 40 39 38 38 38 38 38 37 36 38
48 49 49 48 48 49 49 48 48 48 46 45 42 40 39 37 36 38 38 37 36 36 38 41 43 45 46 45 47 47 48 48 49 47 45 45 45 45 44 41 41 41 41 40 40 39 39 38 39 39 39 39 39 41
47 46 46 46 45 44 44 44 43 41 38 37 36 36 36 36 37 37 36 35 36 38 41 44 45 45 47 45 45 44 44 44 44 44 43 41 41 42 43 40 39 38 38 37 38 38 38 38 40 41 42 43 44 45
45 45 43 41 40 39 37 36 34 34 34 34 34 35 36 37 36 35 33 34 36 38 40 41 43 43 43 43 42 41 40 40 42 40 40 40 39 38 37 38 37 36 36 37 37 37 38 39 40 41 42 43 44 45
38 37 37 36 34 34 32 32 32 33 34 36 36 35 34 34 32 30 28 32 35 35 35 37 40 41 40 40 39 39 39 37 36 37 37 38 37 37 38 38 39 39 39 39 39 40 41 42 42 42 42 42 42 41
34 32 31 30 30 29 30 30 32 34 35 35 34 32 30 28 28 27 25 26 30 36 38 38 38 37 34 33 34 35 36 37 35 37 38 38 40 40 40 41 41 41 41 40 40 41 41 41 39 37 36 36 34 34

GFSWCAN_250_spd_078.txt.gz
Wind_Speed
50 55 51 50 49 48 48 48 48 50 51 54 56 56 58 61 66 69 70 75 79 83 86 86 91 95 99 100 106 110 107 105 95 81 66 50 35 25 20 22 20 22 26 30 26 28 30 23 28 27 28 31 32 34
47 52 53 51 49 49 51 50 50 53 54 53 55 59 63 66 69 71 73 73 76 84 88 88 92 97 102 106 105 107 103 97 90 76 60 50 37 27 23 24 21 25 26 26 26 31 28 26 26 25 26 28 29 31
47 45 50 52 53 53 53 51 53 53 52 54 58 64 67 70 71 75 76 74 75 77 89 91 95 100 105 107 107 103 104 96 89 74 53 44 37 28 23 27 23 23 26 28 27 26 27 28 27 25 26 26 27 29
52 48 47 48 50 51 51 51 51 53 55 60 63 68 72 72 73 75 79 76 80 80 85 92 95 99 103 106 110 101 101 96 87 71 51 43 35 26 25 25 24 27 29 33 32 27 25 28 27 27 27 26 25 26
57 52 50 52 52 53 53 53 55 58 61 65 67 72 77 76 78 79 81 82 83 86 87 95 98 102 106 107 114 96 94 94 83 69 52 43 35 27 24 23 28 29 33 32 27 25 30 28 29 28 26 26 26 25
61 56 56 57 58 57 56 60 62 63 67 69 73 77 76 77 80 84 85 85 88 90 90 96 98 103 106 110 109 97 92 89 76 64 53 43 33 27 22 25 25 30 30 28 27 28 30 28 29 29 28 29 27 25
64 62 64 63 62 62 61 64 64 65 69 71 75 79 79 81 83 87 89 91 91 93 96 98 102 107 107 108 97 91 88 80 70 62 55 44 35 29 26 27 28 28 30 31 33 31 31 29 31 32 32 30 28 28
67 65 66 63 62 64 64 65 67 69 71 77 83 83 84 87 88 90 93 94 97 98 101 103 105 108 112 109 103 97 92 74 70 58 51 47 39 33 35 30 25 27 29 31 32 33 33 32 32 31 32 31 31 31
69 67 70 64 63 65 65 68 72 73 79 84 86 88 87 89 92 94 96 98 100 101 103 106 108 110 113 112 109 105 93 79 68 56 48 47 41 39 34 27 25 24 28 30 32 33 33 32 31 32 32 32 32 32
66 64 61 63 64 66 69 70 72 77 87 86 82 87 92 94 95 98 101 103 104 104 107 107 110 113 118 116 105 110 92 86 63 52 43 44 42 39 32 25 22 23 26 31 33 33 33 34 34 35 34 33 34 35
72 68 70 67 66 66 68 69 75 85 85 86 92 93 95 96 98 101 105 109 107 108 111 114 116 114 119 112 108 108 100 80 68 51 42 40 39 35 30 26 25 26 26 30 32 35 36 36 37 37 38 38 38 39
69 71 68 67 72 72 73 72 82 83 89 92 91 98 99 101 103 105 108 109 110 113 113 115 117 120 118 109 108 106 93 73 62 51 43 38 35 34 29 28 27 27 27 27 30 32 34 35 37 38 39 40 40 41
77 75 72 66 69 76 79 90 88 92 96 96 97 99 103 105 107 112 114 113 115 115 116 118 120 118 117 115 110 105 82 68 55 48 43 36 33 33 31 31 28 27 26 26 29 33 35 36 38 39 40 41 42 42
75 74 79 82 89 95 86 81 87 94 94 99 101 105 108 111 113 115 116 117 119 121 120 123 124 120 115 114 107 81 75 60 50 44 39 33 31 32 31 30 29 27 29 30 33 35 37 38 40 41 41 41 42 41
86 89 89 92 90 91 93 93 95 98 99 102 107 111 113 113 117 119 120 121 123 123 123 128 123 119 113 106 104 75 67 54 47 44 36 31 29 30 32 32 31 28 30 32 34 37 38 38 38 38 38 38 37 37
96 93 97 97 95 96 98 97 98 99 103 105 112 117 117 119 120 124 124 124 125 125 128 122 114 110 114 108 82 76 57 50 46 42 36 30 29 30 31 32 30 32 32 32 32 33 34 35 36 35 35 35 34 33
97 95 96 97 99 102 106 106 104 104 108 113 119 121 122 122 124 126 126 128 128 128 124 116 116 111 108 104 81 65 52 48 44 40 34 31 31 30 31 31 30 29 30 30 31 31 32 33 32 31 31 31 31 30
107 104 102 105 108 109 109 110 108 109 113 119 123 124 125 125 127 128 130 132 127 124 121 114 111 114 97 89 74 58 49 45 43 39 34 31 32 31 31 30 29 29 29 29 30 31 31 31 30 29 28 27 26 26
111 111 112 113 113 112 114 115 114 116 119 122 125 126 128 130 131 131 130 125 122 118 122 118 115 102 94 77 64 52 47 44 42 39 35 32 33 32 32 30 29 28 28 28 29 30 29 29 29 28 27 26 25 25
114 114 113 113 114 114 117 119 123 122 121 124 127 130 133 135 130 127 125 118 120 116 118 116 107 88 76 64 55 48 44 43 40 39 36 33 33 33 33 31 31 30 29 29 29 29 30 29 29 29 28 28 26 26
122 122 123 123 123 125 123 120 125 126 127 130 130 129 127 125 126 120 117 113 118 118 119 111 85 71 65 56 49 45 43 41 40 39 38 34 34 35 34 33 32 33 33 30 30 32 31 31 30 29 30 30 30 30
126 126 124 127 127 127 126 124 124 124 125 127 127 125 125 118 119 104 111 114 116 115 101 83 69 63 57 52 47 44 43 41 40 39 39 38 37 37 37 35 35 34 34 35 35 33 31 33 32 32 31 32 32 32
123 121 120 120 121 121 122 125 125 128 128 127 124 123 118 112 106 105 103 108 106 92 79 70 64 57 52 48 46 44 43 43 41 40 40 40 39 38 40 39 39 37 36 35 37 34 35 36 34 33 33 33 33 33
118 122 119 120 122 121 122 124 122 117 115 114 111 107 107 104 102 103 108 102 85 75 68 63 57 52 47 45 47 46 42 42 41 39 39 38 38 39 38 40 41 40 40 40 39 36 33 34 34 34 34 35 35 34
120 117 118 119 118 115 112 113 113 108 105 103 100 104 108 105 102 98 87 77 69 64 59 55 51 48 46 45 46 48 43 40 41 40 40 40 40 41 41 40 41 42 42 40 39 38 35 35 35 34 34 34 34 34
115 117 116 117 120 114 110 109 106 103 100 100 99 101 96 89 81 75 69 64 60 57 54 50 47 46 45 44 47 47 45 41 41 42 41 42 43 43 44 44 43 43 42 42 41 40 39 38 36 35 35 35 34 34
101 101 101 102 100 97 96 96 95 91 88 85 82 80 76 72 67 63 59 55 53 52 49 46 44 44 44 45 48 48 45 42 41 42 41 42 44 45 45 45 45 44 43 43 42 41 40 39 38 38 37 37 37 37
88 85 83 83 83 80 77 73 72 71 71 69 65 65 62 59 56 54 51 49 47 46 44 44 44 45 45 46 46 46 45 42 40 41 42 42 42 44 45 45 45 45 44 43 43 42 41 40 39 38 38 38 38 38
63 62 61 59 59 60 60 59 58 59 59 58 58 56 53 51 49 47 45 44 43 42 43 43 44 44 44 44 44 44 43 41 41 41 42 44 43 43 45 46 46 45 45 43 43 42 42 41 40 38 37 37 37 38
47 49 51 51 53 54 53 53 54 54 53 50 49 48 47 46 44 42 41 41 42 44 45 44 43 42 42 43 43 43 42 40 39 38 40 42 43 42 43 44 45 46 45 44 44 43 42 41 40 39 39 39 39 39
50 51 51 51 52 50 48 48 47 46 45 45 44 44 42 41 40 41 41 41 41 41 40 39 40 41 42 41 41 42 41 38 39 37 37 37 37 37 38 41 42 42 43 44 43 43 43 42 42 41 41 42 42 42
48 48 47 44 42 42 42 42 41 41 41 41 40 40 40 41 40 38 36 38 37 36 37 39 40 41 39 39 38 38 39 37 33 32 34 36 36 35 36 37 38 40 40 41 41 41 42 42 43 42 43 43 43 43
39 38 37 36 37 37 37 38 37 37 37 38 40 40 38 34 33 31 31 30 32 35 37 36 35 36 36 34 31 29 29 29 29 28 28 29 30 31 32 35 37 38 40 40 41 41 41 41 42 42 41 40 39 38

GFSWCAN_250_spd_081.txt.gz
Wind_Speed
55 46 42 39 41 45 46 45 43 41 41 41 41 41 43 48 53 54 53 54 58 59 64 67 72 78 81 87 90 92 95 103 107 109 92 82 70 56 41 31 22 20 21 26 26 25 29 19 22 24 25 28 30 32
54 47 43 38 36 39 45 44 42 40 41 40 39 42 45 51 54 55 53 57 60 63 68 69 75 80 83 88 93 96 101 105 109 107 101 82 72 58 39 31 22 18 24 24 25 29 27 23 26 25 26 28 29 30
55 50 45 41 36 38 43 45 43 42 42 43 43 45 47 51 54 56 54 57 61 66 70 76 78 83 87 88 92 97 99 104 104 110 105 86 75 59 41 28 21 19 24 26 28 26 27 24 23 26 27 29 29 29
56 51 47 43 39 37 39 43 45 44 43 43 43 46 48 52 58 58 58 60 61 65 74 78 81 84 89 92 95 97 103 104 112 112 103 87 74 59 42 33 23 20 28 30 30 28 26 26 25 30 29 29 28 28
58 54 50 46 43 40 40 40 39 38 40 42 45 48 51 56 63 62 64 64 65 68 73 78 81 86 91 94 100 101 104 106 113 110 101 83 69 61 43 34 31 22 27 30 29 21 28 29 29 29 27 27 27 27
59 56 54 51 47 45 45 44 42 42 45 46 49 52 55 60 66 65 65 68 71 73 76 78 83 88 93 95 100 102 106 105 114 104 95 83 69 63 46 36 29 28 28 31 26 27 31 30 30 27 26 26 27 26
60 58 57 53 52 48 47 48 46 46 47 49 53 57 57 66 65 68 70 71 73 75 78 81 85 91 95 98 101 104 107 111 111 102 88 80 69 62 47 30 19 23 25 31 29 29 28 31 30 29 28 26 26 24
60 61 59 57 54 53 51 50 50 51 52 57 57 57 63 68 69 72 75 75 77 77 81 85 89 95 96 102 104 107 110 114 116 98 83 79 66 57 45 29 21 18 19 27 29 29 29 32 30 30 30 30 28 27
61 62 59 58 56 53 51 51 52 54 57 55 55 58 69 72 72 71 75 78 80 82 85 87 93 95 99 105 107 110 112 118 117 108 83 78 71 56 43 32 23 20 19 20 28 29 29 29 30 32 31 30 30 29
62 62 59 56 54 54 56 56 56 58 58 54 56 67 72 72 74 75 78 82 84 84 90 92 96 97 103 106 109 112 114 119 117 98 76 70 64 56 41 34 24 19 19 21 26 28 28 29 31 32 33 32 33 34
63 61 60 58 57 57 57 58 59 57 53 57 61 70 75 77 79 79 78 84 85 89 93 97 99 102 107 109 112 115 114 121 116 87 79 63 58 54 40 34 26 21 20 24 26 28 30 30 32 33 33 33 33 33
65 65 62 61 62 61 61 60 57 57 62 66 74 77 80 82 80 80 84 90 91 92 96 100 102 106 110 114 114 117 121 118 116 81 73 65 56 50 43 33 27 24 20 23 27 29 29 30 33 34 34 34 35 35
67 65 65 66 63 63 63 61 63 58 67 75 79 81 78 82 82 87 93 94 94 96 100 104 106 109 112 115 118 119 124 123 102 82 67 60 55 45 41 34 28 26 22 23 27 29 30 33 34 36 36 37 37 39
66 63 67 67 65 65 63 61 59 72 79 79 79 81 79 83 87 91 89 95 100 102 105 107 110 111 116 117 121 124 124 106 86 73 66 60 51 43 40 34 29 27 25 24 26 29 32 34 37 37 37 39 40 41
71 72 70 68 62 66 69 75 79 82 80 82 81 81 87 90 93 95 97 102 104 106 108 111 112 115 118 122 124 124 111 99 78 69 63 59 50 42 39 34 31 29 28 27 30 32 35 37 39 39 38 39 40 39
71 71 72 68 76 84 85 82 77 79 83 82 87 93 95 95 96 99 103 105 108 109 112 115 118 118 122 124 127 119 102 87 76 71 64 58 49 42 37 34 31 31 32 32 30 31 34 36 37 37 38 38 39 38
77 80 81 87 94 96 89 83 82 78 81 85 90 94 97 97 100 102 105 110 110 112 115 120 121 122 125 129 122 109 86 83 72 73 65 58 49 42 37 33 31 32 32 31 30 31 32 34 35 35 36 36 36 35
97 99 97 92 87 90 86 81 85 89 90 96 96 96 100 104 105 106 108 112 115 117 120 121 122 126 132 127 110 98 91 75 74 66 61 56 49 42 37 33 32 31 31 31 31 30 31 31 31 31 31 31 31 31
94 90 91 92 92 89 88 90 93 99 101 104 105 104 106 109 110 112 115 117 118 120 122 124 127 130 129 117 106 90 88 78 69 61 56 55 48 41 37 34 32 32 30 31 30 30 30 30 29 29 29 29 30 29
94 94 95 99 101 99 97 97 99 103 106 110 111 110 109 111 115 118 120 120 121 125 128 131 133 123 112 105 98 91 80 71 63 57 53 52 48 41 37 35 33 34 32 32 31 31 31 31 30 30 30 29 29 29
104 103 102 99 101 100 101 104 104 102 106 110 114 115 117 119 121 122 122 123 127 132 132 136 117 107 105 100 97 87 75 67 61 54 51 49 46 41 38 36 36 34 35 34 34 33 33 32 32 31 30 29 30 29
106 108 107 107 110 108 108 112 113 112 113 116 118 117 119 122 123 126 128 130 133 136 126 110 106 107 101 101 88 79 70 63 57 53 50 48 44 43 41 38 37 37 37 35 36 36 34 35 35 33 32 32 32 32
112 112 112 112 112 113 116 117 117 118 120 122 122 122 125 128 130 131 131 135 132 115 106 108 109 108 99 91 82 72 66 59 55 52 50 47 45 43 42 40 39 38 39 37 37 37 36 37 35 34 34 35 34 33
119 118 117 116 115 117 118 119 119 121 122 126 129 129 131 133 136 135 130 117 109 107 111 111 106 102 93 81 72 66 61 57 54 52 51 48 45 43 42 41 40 39 39 37 37 38 37 37 37 36 34 33 33 33
126 124 122 122 122 122 123 126 128 130 132 133 133 133 133 131 124 117 112 109 111 115 112 98 88 80 77 71 65 61 58 54 52 53 49 45 43 43 42 41 41 42 41 40 39 39 39 39 38 38 37 36 36 35
129 129 128 128 130 131 130 131 131 132 132 130 125 121 116 112 109 110 112 114 103 97 91 82 76 70 67 64 60 57 55 51 51 51 48 46 43 43 44 44 43 44 44 43 43 42 42 42 42 39 37 37 37 38
125 127 128 126 124 123 120 118 116 114 113 110 107 105 107 110 112 108 104 99 90 84 77 70 66 65 63 60 58 56 53 50 49 48 49 46 43 42 44 46 45 44 44 44 44 43 42 42 43 42 40 39 40 39
102 102 102 101 99 99 101 103 103 105 106 105 104 105 107 106 101 93 87 81 75 68 63 61 60 59 57 57 56 54 51 49 48 47 47 47 43 42 43 45 44 44 43 43 43 43 43 42 42 42 42 41 40 39
95 96 97 98 98 98 100 102 102 102 99 96 94 93 90 84 80 75 71 66 62 60 58 56 56 56 55 55 54 52 49 48 46 46 45 46 44 40 42 42 42 43 43 41 41 42 42 42 42 42 42 42 42 41
82 81 82 85 87 87 86 83 79 77 79 81 81 78 74 70 66 62 59 57 56 55 54 55 55 53 52 51 48 46 46 46 46 45 46 44 41 38 34 36 40 39 39 39 39 39 40 40 40 40 41 41 42 42
69 70 70 70 70 69 67 66 68 70 71 70 68 65 62 60 57 53 52 53 53 53 51 49 49 48 46 46 46 46 45 42 40 39 38 38 36 33 31 31 34 37 37 35 36 36 36 36 36 37 37 38 39 41
57 57 57 58 59 61 63 64 65 63 62 61 60 57 54 52 50 49 49 49 46 43 43 44 46 47 44 41 39 37 35 34 32 29 28 30 32 32 30 31 31 32 33 33 32 32 34 34 33 33 34 35 36 38
58 58 58 58 59 59 59 57 56 54 52 51 49 48 47 46 45 43 40 38 38 41 45 45 42 38 35 35 33 30 29 27 26 25 24 24 26 27 28 27 27 28 29 31 30 29 29 30 31 31 31 33 34 35

GFSWCAN_250_spd_084.txt.gz
Wind_Speed
80 74 67 58 52 46 40 36 38 41 40 38 38 37 36 35 36 41 43 44 42 39 44 49 55 57 62 66 72 76 81 85 88 96 100 104 99 83 65 58 38 28 23 17 18 23 31 26 22 23 27 30 29 30
79 73 66 59 52 46 41 35 36 40 43 43 41 38 35 35 36 40 45 46 42 42 46 50 54 59 63 69 75 77 84 87 92 96 101 102 99 84 68 57 40 27 24 20 19 25 29 24 22 26 27 27 27 26
78 74 66 60 52 46 40 33 29 32 36 39 37 35 34 35 36 41 45 43 45 46 50 51 55 60 64 71 74 80 85 87 93 97 103 108 109 81 67 61 39 28 25 22 25 22 27 26 25 28 29 30 28 27
77 73 66 60 53 46 40 35 32 30 32 34 36 36 35 34 37 41 46 46 46 51 53 55 57 62 66 72 75 79 86 87 92 93 102 109 111 87 76 63 37 24 24 24 24 23 26 26 27 29 28 28 27 27
76 71 65 58 51 45 42 38 34 29 29 30 33 34 34 33 36 43 47 49 51 52 56 58 60 63 68 73 77 82 86 91 94 97 101 106 107 90 67 63 47 26 21 21 19 21 28 29 29 29 29 30 29 28
75 69 64 59 53 48 44 40 36 32 29 29 31 33 33 34 37 45 44 49 50 53 57 59 61 65 69 74 79 84 86 90 96 98 103 102 106 85 68 64 47 36 27 19 14 22 30 29 29 29 30 29 29 29
73 68 64 59 55 50 46 42 39 37 34 34 36 35 35 35 41 47 51 52 53 56 56 62 63 67 70 77 83 85 88 91 95 100 102 104 101 85 67 60 50 35 29 24 15 19 27 30 31 31 30 30 30 31
72 68 63 59 54 50 46 45 43 41 40 41 39 35 34 38 46 51 55 57 56 57 62 63 65 70 73 78 85 88 90 93 95 101 102 104 100 86 72 59 50 35 27 25 22 18 22 29 33 33 30 29 29 30
71 67 64 59 53 50 48 46 45 46 44 43 38 36 35 44 49 54 58 59 59 60 64 65 69 70 76 82 87 92 94 97 98 103 103 98 98 85 74 62 50 34 26 26 23 23 23 28 32 33 29 29 29 30
70 66 62 56 51 50 49 48 47 46 47 43 39 37 42 49 55 59 62 59 61 63 66 67 71 73 78 85 90 93 97 99 103 104 107 109 99 80 70 62 47 34 25 27 23 23 26 28 31 31 29 29 29 29
67 63 58 51 50 50 49 48 48 48 45 42 40 42 49 58 62 64 65 65 67 69 70 73 75 80 84 88 92 96 98 101 105 106 110 105 90 81 67 61 44 36 26 24 25 25 26 29 29 30 30 29 29 31
62 59 53 51 52 51 48 48 48 47 44 39 42 49 57 62 64 65 67 71 70 72 73 75 83 83 88 92 95 100 100 102 106 109 110 109 86 82 69 58 44 35 27 24 24 25 26 28 30 31 30 30 32 33
60 58 53 51 51 47 47 46 46 44 40 43 50 57 64 68 70 69 68 70 73 75 78 82 85 87 90 93 98 101 104 106 106 111 114 101 85 78 71 57 43 37 28 25 25 25 26 29 30 30 32 33 34 36
61 59 56 55 50 50 48 45 45 45 48 52 59 65 69 72 70 70 69 73 77 79 82 83 87 90 93 97 100 104 107 108 112 112 110 99 87 78 73 59 44 35 31 26 26 27 28 29 30 34 36 37 37 38
61 61 60 57 57 56 54 53 54 55 60 66 71 76 75 74 73 74 73 75 76 81 82 86 90 95 98 99 106 108 112 113 112 118 101 94 86 75 68 60 49 37 31 28 29 26 28 31 35 36 37 38 37 38
64 64 63 62 60 58 60 61 59 62 69 75 82 78 74 74 76 78 81 80 84 90 91 93 96 100 103 107 110 113 115 116 116 112 107 96 81 72 65 59 51 41 37 29 28 28 28 31 34 37 38 38 38 39
66 63 61 61 62 63 61 67 69 71 78 86 83 79 77 76 78 83 87 89 91 90 91 95 101 105 109 111 114 117 117 118 122 107 112 87 81 66 63 55 49 42 38 33 29 29 30 31 34 36 37 38 38 38
72 71 68 67 68 71 76 79 80 86 87 84 79 75 75 79 83 87 90 94 94 96 98 101 105 109 110 113 117 119 124 122 123 112 101 88 71 69 59 55 48 41 38 35 31 32 32 31 32 34 35 36 36 36
79 78 79 81 83 85 85 84 85 83 81 80 81 80 82 87 89 91 93 93 96 98 103 107 109 113 116 118 121 124 126 126 115 115 95 84 78 68 59 53 48 42 38 36 33 32 32 32 33 34 35 36 35 34
91 91 90 88 86 86 84 83 84 83 83 84 85 89 93 94 94 96 100 103 105 107 111 113 114 116 118 123 124 129 127 127 118 102 91 79 74 66 60 52 48 44 39 37 35 34 33 32 34 35 35 35 35 34
92 91 90 90 89 88 87 88 89 90 91 92 94 97 98 99 100 102 105 108 110 114 111 114 118 120 122 125 126 128 128 121 113 98 84 78 70 63 57 52 48 44 40 38 37 36 35 33 34 36 36 36 36 35
97 96 95 94 93 93 94 95 96 97 97 100 102 103 106 108 109 108 108 109 112 114 117 122 124 123 127 127 129 128 122 113 99 86 82 76 67 60 55 51 48 45 41 38 39 38 37 36 35 35 36 36 36 36
104 103 102 102 102 101 101 102 103 105 106 108 109 109 108 109 113 115 116 119 121 122 124 125 126 128 129 130 127 125 116 104 91 85 80 71 65 58 53 50 47 44 41 39 39 39 39 39 37 36 36 37 37 36
113 111 109 108 106 108 110 111 112 113 113 113 112 112 113 116 118 120 121 124 124 125 125 127 128 130 129 126 123 114 103 94 85 78 70 63 59 55 51 49 45 42 40 39 38 39 40 39 38 37 39 39 40 39
118 117 115 116 117 119 120 120 119 118 119 118 119 120 122 123 125 126 128 128 130 131 132 131 130 126 127 114 108 98 93 85 76 70 63 58 56 54 52 49 44 41 39 40 40 40 40 42 42 42 41 42 43 43
119 118 119 121 124 124 125 125 124 124 125 125 126 128 128 128 130 131 132 132 133 133 132 128 129 122 113 106 98 90 83 73 67 63 59 56 53 52 51 47 42 39 37 38 39 41 41 42 45 46 46 46 46 46
125 127 127 129 130 129 128 128 128 128 128 129 131 132 132 133 134 133 133 132 129 126 127 118 112 109 100 92 85 77 69 65 62 59 56 54 50 48 47 44 41 38 36 37 39 39 40 41 41 43 45 47 47 46
128 131 130 132 133 133 132 132 134 134 133 133 134 134 136 133 132 125 120 122 117 112 111 108 101 92 85 78 71 65 62 59 58 56 53 50 46 44 44 44 44 41 38 38 39 40 39 40 41 41 41 42 44 45
115 118 119 121 127 130 131 131 131 133 132 131 131 131 126 119 117 111 109 108 106 101 95 88 82 75 68 64 61 58 57 56 54 53 51 49 45 41 40 40 42 43 41 38 39 40 40 39 39 39 40 40 41 42
104 104 105 107 111 115 119 122 123 125 124 123 121 117 110 104 102 99 94 90 85 81 75 68 64 62 61 60 59 57 54 52 51 50 48 44 41 39 36 33 33 35 39 39 36 35 37 39 38 37 38 38 38 39
88 90 94 97 100 101 102 101 101 102 99 96 92 88 86 84 82 81 79 75 70 64 62 60 59 57 56 56 55 53 50 48 45 41 40 40 40 39 37 35 34 33 34 38 40 38 36 37 37 36 36 36 36 36
77 80 82 84 86 87 86 85 83 80 78 76 76 75 73 71 69 66 63 61 59 56 54 53 53 54 53 50 48 47 43 38 37 37 35 34 34 33 34 34 32 31 30 31 33 37 37 34 34 35 33 34 34 33
69 71 74 75 76 76 76 76 73 71 70 68 65 62 59 57 58 58 55 53 50 49 49 50 49 47 45 42 39 37 36 34 32 30 29 27 27 27 28 30 31 29 27 27 28 30 31 30 27 27 29 28 29 30

GFSWCAN_250_spd_087.txt.gz
Wind_Speed
96 93 88 81 74 66 57 51 46 40 34 31 31 29 30 32 34 35 34 37 38 35 32 34 35 38 45 49 54 61 65 67 73 77 83 88 94 95 79 69 58 51 38 29 22 20 25 30 24 30 33 37 37 39
96 93 88 81 74 67 60 53 45 39 35 32 33 31 31 32 34 35 37 38 38 36 33 33 35 41 46 51 56 63 66 70 72 78 85 89 94 94 89 74 60 53 42 32 26 20 22 25 25 27 31 34 35 37
99 93 86 80 74 66 57 50 44 38 34 32 31 34 34 35 35 37 38 38 37 37 31 32 39 42 47 51 57 63 65 70 73 78 83 89 96 98 92 78 58 52 45 32 29 23 19 22 25 25 30 33 34 33
95 89 84 79 73 64 56 49 44 38 34 31 33 37 36 34 36 38 38 39 38 36 33 35 40 43 49 52 58 62 66 71 75 78 81 86 93 97 100 82 66 53 47 33 25 26 22 18 26 29 31 32 32 32
93 90 84 77 72 67 58 53 46 40 34 30 29 29 31 36 36 36 38 41 38 34 35 38 41 46 51 54 59 63 68 73 76 77 81 87 92 95 99 86 68 56 51 36 22 27 29 23 24 31 33 34 33 31
94 87 82 77 72 66 61 54 47 41 36 31 26 29 34 34 34 36 39 41 38 38 38 39 42 49 51 56 61 64 69 75 77 78 82 84 91 93 98 90 70 58 49 40 26 23 28 27 21 28 33 34 33 32
91 86 80 75 69 64 58 52 46 42 38 32 28 29 30 30 33 37 39 41 41 41 40 43 47 51 54 59 62 65 69 76 80 80 83 85 92 97 95 85 71 57 50 45 33 24 27 28 25 24 31 34 35 33
87 82 79 75 70 64 58 51 47 44 39 34 31 31 30 31 33 39 41 45 43 43 44 47 49 52 58 62 65 67 72 78 81 81 86 87 93 91 96 88 76 67 57 48 37 27 27 30 28 27 29 33 35 34
84 81 77 74 69 63 58 51 47 44 39 36 36 33 31 31 37 41 42 45 44 44 48 51 54 57 59 64 65 70 74 79 83 87 88 88 93 96 102 89 79 70 61 48 38 28 24 27 27 29 28 32 34 35
83 79 75 72 68 62 56 51 47 43 42 40 38 34 33 37 40 41 43 47 45 47 49 52 57 57 62 65 69 73 78 83 87 88 89 92 96 96 99 91 76 63 64 51 37 30 26 24 26 27 31 31 34 34
80 77 74 71 65 59 53 48 44 43 42 40 39 36 37 38 43 45 49 51 48 50 53 57 57 61 66 66 70 74 79 85 88 89 92 96 99 103 97 89 73 74 61 55 40 31 28 24 24 26 28 33 33 33
78 76 72 68 62 57 52 48 46 45 45 44 41 39 40 43 45 48 54 53 52 53 55 58 60 64 66 69 73 79 83 87 91 93 97 99 101 106 99 100 82 75 67 57 43 31 29 27 26 26 27 30 31 33
75 72 68 63 60 56 52 49 48 47 45 44 41 40 42 45 49 54 60 58 56 56 58 61 64 68 71 74 80 83 87 92 93 94 100 102 103 107 105 101 79 76 71 60 45 32 29 29 28 27 27 30 31 34
70 66 64 63 60 57 51 48 46 44 43 42 42 43 46 47 52 60 62 60 58 59 62 65 70 74 75 79 83 85 90 93 96 98 101 105 105 109 110 100 83 78 67 56 43 33 28 29 28 29 31 32 35 38
66 66 64 62 60 58 53 47 43 44 45 45 44 44 48 54 60 63 66 63 63 65 66 70 75 78 81 83 85 90 93 96 98 102 104 107 111 110 111 96 90 78 68 55 43 32 27 28 29 30 33 36 38 41
67 67 64 64 60 55 53 50 47 48 50 48 48 52 57 60 63 68 68 69 69 70 73 75 81 84 84 85 90 94 97 98 102 105 107 109 112 110 112 99 94 84 69 56 42 32 28 28 29 30 32 35 37 39
66 64 65 64 60 56 53 53 53 51 50 54 57 62 65 68 72 73 69 68 70 74 78 83 85 87 87 89 94 100 100 102 105 111 111 111 109 116 110 106 94 82 69 57 44 33 28 28 31 33 34 36 38 40
65 64 64 64 62 60 59 56 57 58 61 65 68 72 76 76 76 76 74 74 75 78 83 86 91 90 89 95 99 102 104 108 112 114 113 117 115 119 111 109 91 81 66 55 44 37 30 29 30 32 33 34 36 38
65 64 65 65 64 64 65 68 69 71 72 76 81 81 79 76 75 76 78 79 82 83 87 92 91 93 99 100 104 106 109 113 115 117 122 119 118 127 114 109 91 80 66 52 43 38 33 31 31 33 34 35 36 37
72 71 70 68 71 73 75 77 77 78 81 82 78 75 76 78 79 79 81 82 85 89 93 94 96 100 101 105 108 112 115 118 122 123 121 123 127 119 116 100 89 75 62 50 42 37 35 33 32 34 36 36 36 37
78 78 77 77 80 83 84 85 85 84 81 78 77 78 80 82 83 85 86 89 91 94 96 99 102 104 106 109 112 117 119 123 125 125 127 128 130 114 106 95 83 68 56 48 42 38 36 35 35 35 37 39 38 37
86 86 87 88 90 89 88 85 83 81 81 82 84 85 87 88 89 90 92 94 97 99 101 105 108 111 113 115 118 122 125 127 127 129 128 130 125 111 103 90 74 62 52 47 43 40 37 36 36 36 38 40 42 40
93 93 94 93 92 90 88 88 86 86 87 88 90 91 92 93 95 96 97 100 103 105 108 110 113 116 119 122 124 126 128 128 130 130 131 121 115 106 93 77 65 58 51 46 44 42 40 37 37 37 38 41 43 44
98 98 98 97 94 92 92 93 94 95 96 97 97 97 97 98 100 101 103 108 110 113 114 116 119 123 124 126 129 130 133 131 131 134 127 114 110 99 80 67 59 55 49 46 45 43 41 40 39 38 39 40 42 43
103 103 103 102 103 102 101 100 101 103 104 104 104 104 104 106 107 110 113 116 117 119 121 122 123 126 129 132 133 133 131 136 133 124 117 111 97 83 70 61 55 51 49 47 44 42 40 40 39 39 40 42 42 44
111 110 110 109 110 110 109 109 110 110 111 111 112 113 114 114 115 117 120 121 123 126 127 128 130 131 133 135 134 138 135 129 119 105 103 92 79 68 64 58 53 50 49 48 46 43 41 40 40 41 40 40 41 44
115 115 117 117 117 118 117 117 117 117 117 117 118 119 120 121 122 124 125 126 129 130 132 134 133 135 135 136 131 128 120 109 97 89 81 73 65 61 58 55 53 50 49 48 47 44 41 39 40 41 41 41 41 41
125 125 126 125 123 122 122 122 122 124 123 124 125 127 128 128 128 129 130 130 131 133 135 135 134 133 132 129 117 108 98 88 84 77 69 65 60 57 55 53 50 47 45 43 41 41 40 38 37 37 40 41 41 41
131 131 130 127 126 125 125 125 126 127 128 130 131 131 131 132 132 133 133 132 130 132 135 135 133 124 113 105 96 88 85 79 73 67 62 58 54 50 47 45 45 46 46 46 44 43 41 40 40 39 39 39 40 40
136 135 133 132 132 133 133 132 132 133 133 135 135 135 136 136 135 134 134 132 128 124 119 113 108 102 96 93 87 78 73 68 63 57 55 52 48 46 45 43 42 42 42 42 42 41 41 42 39 38 38 38 39 39
128 127 127 129 131 134 135 136 136 137 136 136 135 130 128 128 127 123 119 114 108 106 105 100 90 87 82 75 71 68 62 56 52 50 48 47 46 45 43 41 40 37 35 34 34 35 35 35 38 38 35 33 34 35
118 118 118 120 123 124 127 127 126 125 124 123 120 117 115 111 106 102 99 97 96 91 86 82 77 72 69 66 61 54 50 47 44 44 43 43 42 40 39 37 34 34 33 33 33 33 32 31 31 33 32 29 27 27
96 99 104 108 110 110 111 111 110 108 106 105 102 100 98 97 97 93 88 84 79 74 68 65 64 62 57 52 47 44 42 41 40 38 36 34 34 34 34 34 33 33 33 33 31 30 29 29 28 27 26 23 22 23

GFSWCAN_250_spd_090.txt.gz
Wind_Speed
92 99 95 94 92 87 82 72 65 59 52 45 39 33 29 32 31 30 29 28 28 29 25 25 27 26 26 30 35 41 45 52 57 61 66 71 78 81 88 91 83 71 60 48 41 36 27 24 20 19 24 32 35 37
88 96 98 97 93 85 78 70 62 56 49 44 38 34 31 31 28 28 30 30 28 29 28 27 26 26 28 32 36 42 45 53 58 63 67 73 78 79 85 92 91 81 64 57 47 37 30 23 22 18 23 31 35 37
94 99 98 95 92 87 79 69 63 58 51 44 39 34 33 30 29 31 31 29 28 31 30 29 28 27 30 34 38 43 48 53 59 64 68 74 78 78 87 90 93 84 73 61 54 42 31 25 20 22 26 35 36 37
100 100 100 96 92 86 79 72 65 58 51 45 39 35 34 32 33 34 30 28 30 32 31 30 29 29 32 36 39 44 50 53 60 65 69 73 77 82 86 88 91 90 78 66 53 43 33 26 24 24 26 33 35 37
103 102 99 93 89 85 78 69 63 58 52 44 39 36 32 33 35 30 28 30 33 33 30 31 30 30 34 38 40 45 52 54 60 64 69 75 77 81 85 90 96 92 80 65 57 46 34 26 24 22 27 31 38 38
103 100 96 92 88 82 77 69 63 55 50 43 38 35 34 33 28 27 32 34 34 33 31 32 31 33 36 40 42 47 52 55 60 65 69 75 80 82 82 89 93 95 80 70 58 46 36 28 23 19 22 33 38 39
103 101 98 93 86 81 74 68 62 56 48 44 38 36 31 27 25 31 36 35 34 34 33 33 34 37 38 41 44 49 54 56 61 66 70 75 79 81 83 89 92 89 84 70 57 49 36 28 25 18 21 26 35 39
101 98 93 88 83 77 73 68 60 54 49 44 40 36 30 26 28 34 35 33 34 33 33 33 37 39 41 44 46 50 55 58 62 68 71 77 80 81 85 87 89 96 91 73 65 52 36 28 24 24 21 25 32 37
100 97 93 86 81 75 69 63 59 55 48 44 42 37 29 29 31 34 36 36 35 34 35 37 40 40 42 45 49 53 57 60 64 69 74 80 83 82 85 88 94 91 93 77 67 53 41 31 24 23 24 24 27 37
98 96 92 86 80 75 70 63 58 52 49 44 39 33 30 32 33 36 37 37 35 35 41 42 41 42 43 47 51 56 60 63 67 72 78 81 85 84 86 88 97 95 99 77 72 58 45 34 28 23 25 24 24 30
97 95 90 85 79 72 67 62 56 52 46 41 37 36 36 35 36 39 40 40 39 40 43 45 45 46 46 49 54 59 62 66 70 75 81 84 85 89 91 94 100 94 99 92 70 59 48 39 31 26 25 26 24 25
95 90 86 79 73 69 62 59 54 48 46 43 40 41 41 40 40 41 41 43 44 44 45 46 47 48 49 52 58 62 65 69 72 77 82 88 88 92 93 96 103 102 100 91 78 63 53 41 33 28 26 26 26 26
90 85 81 74 69 64 63 57 54 52 48 46 43 42 42 41 41 40 44 48 51 50 49 47 47 49 51 56 61 64 70 72 75 80 85 88 91 94 96 99 106 107 101 93 80 69 58 44 36 30 27 27 27 26
86 82 76 70 66 63 60 58 56 51 48 45 44 43 42 42 42 46 50 51 52 50 48 47 50 51 56 60 65 68 74 77 78 84 89 90 93 98 99 103 108 109 101 98 92 74 59 48 38 32 29 29 30 31
81 76 71 67 65 63 61 59 56 53 51 48 46 44 43 44 48 53 53 51 51 51 52 53 54 57 60 64 69 73 78 80 84 89 93 95 97 102 103 106 112 111 107 111 99 84 61 49 39 35 31 31 33 34
76 73 69 65 64 62 61 60 56 53 50 48 46 44 44 47 51 53 53 54 55 56 55 57 61 62 65 69 74 80 84 84 89 93 96 99 102 106 106 110 112 113 109 115 108 84 62 48 39 35 34 33 34 36
73 69 66 63 63 62 61 58 54 50 50 49 48 46 48 51 52 54 56 58 57 59 61 63 66 67 70 74 82 85 87 89 93 94 99 103 106 107 110 115 119 117 117 118 108 84 62 48 39 36 33 34 35 36
67 64 63 61 63 58 56 56 54 51 50 49 50 52 55 56 58 62 64 61 62 62 65 68 69 72 74 82 85 88 90 93 95 100 104 106 108 112 116 120 116 118 122 115 101 82 60 47 39 36 34 34 35 36
66 65 64 63 59 55 56 57 57 56 56 58 59 60 62 64 67 69 66 64 65 67 69 72 75 77 82 86 87 90 94 97 100 103 108 110 112 117 121 122 119 125 123 108 92 73 55 47 40 35 34 34 34 36
68 69 66 61 61 62 61 61 62 64 63 64 66 67 68 69 68 67 68 69 70 72 76 79 81 84 86 87 89 93 98 102 104 107 109 114 119 120 124 125 125 120 124 99 82 65 49 43 41 37 34 35 35 36
73 70 68 68 68 68 68 69 71 72 75 75 75 77 74 72 71 71 72 74 78 80 83 84 86 88 89 91 95 98 101 104 108 110 117 119 120 125 126 125 125 125 112 89 77 61 49 43 40 37 36 35 35 38
79 76 75 75 77 78 78 77 77 79 80 81 81 79 77 76 77 79 80 81 84 85 86 89 92 92 94 96 100 102 106 109 113 118 118 122 126 127 128 129 129 121 98 83 69 57 49 44 40 37 36 36 37 37
85 85 85 84 85 84 82 83 82 82 83 84 82 80 79 81 83 83 83 85 88 88 92 95 96 98 100 104 106 109 112 116 118 121 124 126 128 130 126 127 119 100 90 75 63 56 51 46 42 39 38 38 38 40
89 89 89 89 88 87 87 86 87 87 88 86 84 84 85 84 84 85 89 92 92 94 97 99 101 104 106 109 112 115 117 119 122 124 128 131 133 131 129 119 105 90 79 68 61 57 53 49 45 43 41 39 40 40
96 96 94 92 92 92 92 91 91 91 91 91 89 89 88 87 88 92 96 97 98 100 103 105 107 109 112 114 116 119 122 123 127 129 132 131 131 129 116 103 90 80 72 65 60 56 52 48 45 43 41 39 40 41
101 99 97 95 95 95 95 96 97 97 96 94 92 93 95 96 97 99 103 103 105 108 109 110 113 115 118 120 123 125 127 129 131 132 133 133 122 115 106 92 80 73 67 62 58 53 49 46 44 42 41 40 39 40
103 102 101 101 101 101 102 101 101 100 99 99 101 102 102 102 104 106 108 111 112 113 115 116 117 120 123 126 128 128 130 133 134 133 130 120 110 97 88 78 73 66 60 58 55 52 50 49 48 47 45 44 44 43
109 108 108 107 107 107 106 105 104 105 106 107 108 107 108 109 112 113 115 117 118 120 122 122 124 126 129 131 130 133 137 130 131 126 112 101 96 85 76 71 65 61 57 55 53 52 51 50 48 46 45 45 43 43
118 115 114 113 113 113 113 112 113 113 112 113 115 116 116 117 117 119 120 122 124 125 128 129 129 132 133 135 135 131 131 130 118 108 101 93 79 72 68 65 61 57 56 55 52 50 46 45 44 44 43 43 41 40
123 122 120 121 121 122 123 122 121 121 121 121 122 122 122 122 122 123 125 127 129 131 133 133 133 134 137 137 132 127 120 112 106 94 84 74 70 66 63 61 58 54 53 51 49 46 42 41 39 38 37 37 35 34
126 127 127 127 127 126 125 124 124 125 126 127 128 128 128 129 130 130 130 132 133 135 136 138 136 132 129 121 117 109 107 96 83 74 70 66 65 62 59 56 53 50 46 41 38 37 37 36 36 36 36 35 33 32
129 129 127 127 129 130 131 131 131 131 131 132 132 134 134 134 134 136 134 136 138 135 132 127 126 120 111 105 102 93 81 71 68 64 61 59 57 54 52 49 44 42 39 37 35 34 33 32 31 29 29 29 28 29
131 135 134 134 134 135 135 134 133 133 134 135 135 135 134 135 133 133 128 125 120 116 117 109 103 104 97 85 75 69 64 62 59 56 54 52 50 47 45 43 40 35 32 31 31 30 29 28 27 26 26 25 25 25

GFSWCAN_250_spd_093.txt.gz
Wind_Speed
27 49 56 82 85 93 93 84 79 74 70 65 57 49 42 39 35 33 30 24 22 22 20 19 14 15 16 17 22 26 30 34 39 44 49 56 63 66 70 75 79 84 82 78 73 62 53 44 35 27 25 23 24 26
26 54 70 83 86 95 90 85 79 76 70 63 55 48 44 40 35 34 33 24 24 23 22 20 14 14 17 18 23 27 31 35 40 45 49 56 62 67 71 73 79 88 83 80 72 62 55 49 39 33 27 26 27 29
34 59 75 86 96 94 90 86 78 74 65 58 52 48 41 38 35 32 25 26 26 26 25 22 15 16 17 20 23 28 32 35 40 45 50 56 61 67 73 73 75 82 86 90 79 71 61 51 40 32 29 27 26 29
44 64 76 82 97 94 90 85 81 73 64 58 53 48 42 38 33 29 29 29 28 28 26 23 18 16 19 23 26 29 32 36 40 45 51 56 61 67 73 74 73 75 87 86 83 76 64 55 44 34 29 28 25 27
48 76 74 87 97 95 90 87 82 73 66 59 54 48 43 38 32 32 32 31 29 28 26 24 19 18 22 24 28 31 35 37 41 45 51 55 61 67 72 74 78 79 83 83 81 77 65 57 45 37 26 26 26 25
60 77 85 92 92 91 88 83 75 69 65 59 53 48 41 35 34 33 34 30 30 28 26 24 19 21 24 26 31 33 38 39 43 47 52 57 62 67 73 77 77 77 81 81 83 75 69 56 45 36 30 24 27 21
72 87 91 97 94 90 86 80 73 68 64 59 53 48 44 40 36 33 30 30 29 28 27 25 23 24 25 30 33 36 41 41 45 49 53 58 63 68 74 77 77 83 84 92 89 78 68 58 45 35 30 24 25 23
79 94 98 97 92 87 84 79 73 69 64 57 54 49 44 39 35 31 29 28 29 29 28 25 27 26 27 29 34 38 42 42 46 50 54 58 65 69 76 81 80 79 91 90 91 74 67 60 46 36 30 26 23 24
86 99 100 94 90 87 82 78 75 71 66 60 54 47 40 35 33 29 28 27 27 28 26 27 30 29 30 32 36 41 44 45 48 52 56 60 66 71 76 79 82 81 91 96 92 80 72 58 48 36 28 26 22 23
94 106 101 96 90 87 84 80 74 68 64 59 51 43 38 34 31 29 29 29 28 28 27 30 30 32 34 35 38 43 44 47 49 53 59 62 68 74 79 83 86 90 88 95 98 94 82 65 52 42 31 25 24 22
99 106 101 95 92 88 84 79 71 64 61 56 46 42 39 37 34 31 31 31 31 30 29 28 31 35 37 38 40 43 46 51 52 56 60 64 69 77 82 85 92 91 88 92 98 93 93 75 57 46 35 27 24 24
98 105 100 96 92 86 80 72 64 54 50 49 49 46 44 37 33 31 31 33 33 36 35 34 35 37 39 40 39 45 50 55 56 59 63 67 73 79 84 88 94 96 98 99 102 103 91 76 60 49 39 29 25 25
102 104 98 91 85 78 70 66 60 55 54 53 50 45 37 34 32 32 34 37 39 40 40 39 37 37 37 40 42 47 55 59 60 62 66 69 75 82 86 88 96 99 101 105 108 103 99 78 67 56 45 31 26 25
102 96 91 86 79 73 68 63 56 56 54 49 47 45 39 36 35 37 39 41 43 43 43 43 39 39 38 41 45 52 58 62 64 64 68 72 79 84 88 91 97 99 104 105 114 109 101 79 72 60 50 39 29 27
96 92 88 84 76 70 67 61 58 57 54 53 50 45 42 40 40 43 45 44 44 46 46 44 43 44 44 47 52 57 62 66 67 68 71 76 84 89 90 96 99 101 105 109 113 112 106 99 76 63 51 42 33 30
95 91 83 77 75 69 62 60 59 60 57 54 51 48 46 46 46 48 47 46 47 48 47 46 44 44 49 53 55 61 67 69 70 72 76 82 87 90 93 97 100 102 105 110 110 118 110 102 82 66 52 43 37 31
90 85 79 74 69 65 62 61 60 60 58 54 50 50 50 51 52 51 47 47 49 51 50 47 46 49 54 55 61 67 69 72 73 77 81 87 92 94 95 100 102 106 108 111 115 115 117 106 81 67 53 43 39 35
80 73 71 68 65 63 60 59 58 56 54 52 51 52 53 54 54 53 53 54 55 55 54 54 55 56 56 61 67 71 73 75 77 81 86 92 94 96 101 103 105 107 111 113 119 117 119 103 84 70 54 44 41 39
72 70 69 67 64 62 59 57 54 51 50 50 52 54 56 55 56 57 58 57 56 56 56 58 58 57 61 67 70 73 77 79 82 87 91 94 99 100 104 106 109 110 116 116 123 120 114 95 83 69 56 44 42 40
70 70 69 67 65 63 58 54 52 50 51 53 56 57 57 59 60 62 62 60 59 60 60 60 61 64 68 72 74 77 81 85 89 93 95 97 101 105 106 110 111 117 119 123 122 121 111 89 78 65 55 47 41 39
68 68 67 66 63 61 59 55 53 53 55 59 62 63 63 63 65 66 65 65 65 66 65 65 67 70 73 77 80 83 87 90 93 96 99 103 105 108 110 112 117 120 124 126 123 115 101 85 74 63 53 45 43 41
71 70 68 67 64 63 61 59 59 62 65 67 67 68 69 71 71 70 69 69 71 71 70 72 74 76 80 82 85 89 92 94 98 101 103 107 108 111 113 116 121 123 128 128 123 108 93 82 71 61 51 46 43 41
78 76 73 73 72 70 68 70 72 72 71 71 72 73 75 76 77 76 76 77 77 75 76 78 80 82 85 89 91 93 96 99 103 105 107 110 112 115 119 122 124 127 130 130 117 98 85 76 67 58 51 46 44 42
86 83 82 82 82 82 80 78 77 76 76 76 78 79 79 81 82 81 81 82 80 81 83 85 87 88 91 95 97 99 101 105 106 108 110 114 118 121 124 126 128 131 125 122 106 91 80 70 62 56 52 48 45 44
89 89 88 86 86 85 82 81 81 80 81 82 83 84 85 86 86 86 87 88 87 86 88 90 92 95 99 101 102 104 108 108 110 112 116 119 123 126 127 129 131 128 123 117 96 82 72 66 60 55 51 48 45 45
93 91 89 87 88 87 85 85 86 87 89 89 88 89 90 90 91 90 93 91 91 92 94 96 99 102 105 105 108 110 111 113 115 117 121 122 127 128 131 131 127 122 114 95 81 72 68 63 59 54 50 48 46 45
98 96 94 94 93 93 93 93 93 93 92 92 94 94 94 93 93 94 96 96 97 99 100 103 105 107 109 111 113 113 114 117 120 124 125 127 127 129 127 125 117 112 91 78 72 68 64 59 55 52 50 47 45 44
100 100 100 100 100 100 99 98 97 96 96 97 98 97 97 98 99 99 101 103 106 107 107 109 111 113 114 115 117 119 121 122 126 127 127 124 128 124 118 119 109 90 78 72 66 62 58 56 54 51 48 45 43 41
107 107 106 105 104 104 104 103 103 102 102 101 101 102 103 105 107 108 109 110 112 114 114 115 116 116 119 121 122 125 127 125 131 126 127 131 125 114 114 98 82 75 71 66 61 57 54 50 46 43 41 40 39 36
119 117 114 112 110 108 108 108 108 109 109 109 110 110 111 112 112 114 116 117 118 119 119 120 121 122 124 127 129 128 128 125 127 127 125 119 112 105 88 77 72 67 63 60 56 51 47 46 44 42 41 40 38 35
124 122 121 119 118 117 116 115 114 115 116 116 117 118 118 119 118 118 119 120 121 121 122 124 126 128 128 128 128 132 128 126 115 120 112 109 96 82 75 71 65 61 57 52 47 45 43 40 37 36 36 36 35 34
126 124 123 123 122 122 122 121 120 120 120 120 121 122 122 122 122 123 123 124 124 126 127 127 127 130 129 127 119 123 108 117 108 106 104 84 74 71 66 61 57 53 47 45 42 39 37 36 34 31 30 29 30 30
130 127 125 124 125 125 125 124 124 124 124 125 126 127 127 128 127 127 126 127 127 128 127 127 124 120 117 117 108 101 98 105 99 83 73 69 66 61 57 53 47 42 40 37 35 34 32 31 29 28 27 26 26 26

GFSWCAN_250_spd_096.txt.gz
Wind_Speed
26 18 28 40 49 51 76 70 81 83 81 77 75 69 64 58 48 43 36 32 24 23 20 20 18 17 14 12 11 14 18 18 22 27 34 39 42 47 55 59 64 70 73 77 80 77 75 67 59 48 38 29 27 26
20 17 33 40 52 51 69 77 86 84 81 77 72 67 64 55 47 41 35 30 27 22 23 21 20 17 16 12 11 14 18 19 23 29 35 40 43 49 56 62 65 71 76 76 76 79 78 74 69 58 46 37 30 27
18 21 37 37 58 59 78 81 87 85 79 75 70 65 58 52 46 38 33 29 26 26 25 24 21 18 16 14 12 15 18 20 25 29 36 41 46 49 55 62 68 74 78 81 87 87 85 80 74 68 53 40 34 28
20 26 35 49 70 59 74 90 90 84 81 75 69 63 57 51 46 40 35 29 27 29 28 26 21 18 16 13 14 16 19 21 26 30 36 40 47 51 55 62 68 74 79 82 90 90 85 83 80 76 58 44 37 32
27 32 39 50 73 64 65 92 89 84 78 73 69 62 56 50 46 41 37 32 30 31 28 25 22 20 17 14 15 18 21 23 26 31 37 41 48 52 56 61 67 73 77 83 85 88 87 82 78 78 61 49 39 32
37 42 47 55 73 72 68 93 89 82 76 74 67 61 55 50 44 37 34 34 33 30 27 24 22 21 17 15 17 21 24 25 27 33 39 42 48 52 58 61 66 73 79 82 84 90 82 79 77 73 62 48 38 32
43 50 52 62 74 77 83 90 87 83 78 73 67 62 55 50 43 37 34 35 33 31 29 25 22 21 17 18 20 24 25 27 29 33 40 43 49 53 58 61 67 73 77 80 85 85 88 75 74 74 60 44 37 30
46 60 59 68 74 81 93 91 86 83 80 74 69 62 53 47 44 39 37 35 31 30 28 25 23 21 19 21 23 25 30 30 31 34 40 44 50 55 59 64 69 74 79 80 87 90 95 83 74 71 58 48 38 31
53 63 65 73 78 88 92 91 87 84 78 71 65 59 53 49 45 42 38 33 29 27 25 25 23 24 23 24 26 28 33 33 33 38 43 46 51 56 62 66 70 76 79 84 90 91 94 94 79 68 60 50 41 33
54 64 66 75 79 96 93 90 86 82 75 71 65 59 55 50 45 37 31 28 26 26 26 24 24 26 25 26 27 30 35 38 38 41 45 47 52 59 64 68 71 76 81 84 87 91 97 98 88 73 63 47 39 33
59 66 74 77 90 93 90 87 84 80 76 71 65 58 54 48 39 29 28 26 26 25 24 23 25 26 26 27 29 32 37 40 41 44 47 50 55 61 66 70 73 79 82 88 88 92 100 101 92 81 68 56 46 37
63 67 79 86 94 91 88 83 80 77 69 67 62 58 52 39 29 29 27 28 28 27 24 27 29 31 30 30 31 33 37 39 42 46 50 53 57 63 67 71 75 81 87 88 92 95 101 102 101 81 72 60 51 44
64 71 81 92 93 88 85 84 80 77 71 67 62 52 41 30 29 31 32 30 30 28 28 31 35 37 35 32 34 37 39 42 46 49 51 57 61 66 70 73 78 82 89 91 97 99 104 104 103 87 76 65 55 48
71 80 91 93 88 87 83 80 78 75 69 64 56 44 37 34 35 36 35 33 33 31 32 35 40 41 38 36 38 40 43 46 48 50 56 61 65 68 71 75 79 84 91 92 95 99 106 107 111 98 91 69 60 51
77 87 94 91 88 84 81 80 77 71 64 57 49 43 43 43 41 41 40 38 37 38 39 41 43 41 39 39 41 43 45 49 50 54 60 64 66 69 73 79 84 86 92 94 94 102 106 109 112 103 101 73 64 55
89 93 93 88 85 82 80 77 72 66 59 54 48 44 43 43 44 45 45 44 44 43 43 43 42 41 39 41 46 49 51 53 54 59 64 68 70 74 77 81 87 89 94 93 96 103 106 113 111 106 102 76 66 58
96 92 89 87 84 80 76 73 71 66 57 53 44 40 42 46 48 49 49 48 46 45 45 45 45 43 46 47 50 51 53 56 60 64 66 69 74 78 81 85 89 92 97 96 102 106 110 110 114 104 110 82 68 60
94 91 87 85 82 78 75 73 67 56 51 46 45 46 50 51 51 51 51 50 49 48 48 49 49 48 48 51 52 56 58 60 64 66 70 73 77 80 85 89 91 96 98 101 103 108 115 114 121 107 108 84 71 61
91 88 88 86 82 74 70 64 58 55 50 49 51 53 55 56 55 54 54 54 52 53 52 51 51 52 54 54 57 57 59 62 66 71 73 77 81 86 89 93 95 99 102 104 108 111 117 113 123 104 100 81 72 62
93 93 90 84 77 71 65 60 54 53 53 52 54 58 59 58 58 58 56 55 55 55 54 54 55 54 55 58 61 61 63 66 70 75 79 82 86 92 93 95 101 102 103 107 112 115 122 119 111 109 97 81 70 61
80 77 74 71 67 64 59 55 55 54 54 56 59 60 58 58 57 56 56 57 58 56 56 56 56 56 58 61 62 64 67 71 74 79 84 88 91 96 98 99 104 106 106 111 116 119 122 119 112 109 90 77 67 59
75 70 67 66 64 61 60 60 59 58 59 60 61 61 60 59 60 60 61 61 61 59 59 59 60 61 63 66 68 69 73 76 80 85 90 93 97 100 102 103 107 109 114 117 120 122 124 117 108 101 86 72 65 58
75 74 73 75 74 71 68 67 64 62 63 65 65 63 62 63 63 64 66 67 65 64 65 64 64 68 70 71 75 75 78 82 87 92 96 99 101 103 106 107 110 115 117 123 121 127 120 112 105 92 78 68 63 58
81 80 79 78 76 73 71 69 67 67 68 68 68 68 69 70 70 70 71 71 69 69 69 69 70 73 76 79 81 83 85 90 94 97 100 102 103 107 110 111 116 118 124 121 128 126 116 111 95 83 71 65 60 55
85 85 83 80 77 76 77 75 75 75 74 74 75 75 76 75 75 75 76 75 73 73 73 74 76 79 82 84 86 90 94 97 100 104 104 106 108 110 114 118 120 121 122 130 124 117 107 97 84 74 66 61 57 52
85 84 82 80 80 79 77 77 78 80 80 80 80 81 80 80 78 77 79 79 78 78 78 81 83 86 88 91 94 98 101 103 105 106 108 111 114 117 118 121 126 122 131 122 112 107 96 87 78 69 64 57 54 51
87 85 84 83 84 83 83 84 85 86 85 85 86 85 83 81 81 82 83 83 84 85 87 89 91 94 96 98 101 104 106 107 109 111 113 113 117 118 122 124 124 132 121 105 100 93 85 77 71 64 59 56 50 48
91 91 91 90 90 90 91 92 92 91 89 88 88 87 86 87 88 88 89 90 92 94 95 96 98 101 103 106 107 109 110 112 113 117 118 118 119 124 127 129 133 117 105 94 88 81 74 70 64 58 55 52 49 45
100 98 97 97 96 95 95 94 94 93 93 93 92 91 92 93 94 94 95 97 99 100 102 104 106 108 109 111 113 114 115 118 120 122 123 124 127 127 134 130 108 102 90 86 78 71 65 61 57 53 52 50 48 44
106 105 104 103 102 101 101 100 99 99 98 98 98 98 99 99 100 102 103 105 106 108 110 111 111 113 115 115 117 120 121 123 123 125 125 129 131 138 117 103 92 87 80 73 67 61 56 52 50 49 48 47 45 43
116 114 113 111 110 109 107 106 106 105 105 105 105 106 107 107 108 109 110 111 113 114 116 117 118 119 120 121 122 120 120 119 122 127 128 133 119 113 100 89 82 75 68 62 58 54 51 48 46 44 43 42 41 40
122 119 117 117 117 115 114 114 114 114 114 114 113 113 115 115 116 116 117 118 119 122 122 122 122 122 122 121 120 123 125 126 127 130 132 115 99 87 81 76 69 62 58 55 52 49 47 44 42 40 39 37 36 36
123 124 124 121 119 119 120 121 121 120 120 119 120 120 121 121 122 123 123 123 124 125 126 124 120 122 123 124 125 124 126 129 127 111 105 89 80 77 72 65 59 55 52 48 45 44 41 40 40 39 36 34 33 32

GFSWCAN_250_spd_099.txt.gz
Wind_Speed
73 68 59 38 24 23 22 34 46 64 58 73 77 73 67 61 56 54 50 45 40 36 32 24 22 22 23 20 16 13 10 8 8 12 19 24 30 36 40 46 52 58 61 67 77 79 80 76 74 70 65 49 39 29
68 60 47 34 23 34 33 47 56 66 69 78 78 73 67 61 58 57 51 45 38 35 31 28 29 25 23 19 17 13 12 9 7 12 18 24 29 36 43 48 54 59 60 70 74 78 84 80 80 76 72 60 45 33
64 53 36 31 27 43 41 57 61 67 70 78 77 73 67 63 60 57 48 44 38 35 33 34 29 25 23 20 18 16 14 9 7 13 18 23 27 36 43 49 54 56 61 68 75 79 85 85 86 83 74 64 51 41
61 43 30 31 32 41 45 60 58 69 77 79 76 70 65 62 59 53 48 42 39 35 34 30 29 25 23 20 18 17 16 12 10 14 19 25 29 35 42 48 54 58 62 68 73 78 83 87 88 84 77 72 57 46
56 35 31 37 39 42 52 63 74 78 81 78 73 69 65 60 56 53 47 39 37 35 31 30 25 22 22 20 18 20 18 14 12 15 21 26 31 37 42 49 54 59 62 67 75 80 84 84 84 85 81 77 60 49
45 29 38 42 46 49 57 77 78 81 84 80 74 70 65 62 58 53 44 39 40 35 33 30 27 23 20 18 16 18 18 15 14 17 23 28 33 37 44 50 57 59 62 69 74 76 82 85 83 78 80 77 67 52
40 34 45 50 54 56 57 82 81 85 82 77 71 69 65 63 59 50 44 38 37 34 32 30 26 22 18 16 15 18 17 16 15 19 24 29 34 39 45 51 57 60 63 70 74 76 78 83 84 81 77 75 67 56
34 40 42 55 67 61 70 81 85 89 84 79 72 67 64 63 57 51 44 38 36 35 34 30 24 21 20 19 18 18 18 19 19 21 26 29 35 40 47 52 57 59 65 68 73 77 79 85 88 82 75 73 66 56
31 35 44 60 71 67 74 81 88 92 84 78 73 72 69 66 58 51 44 39 34 34 32 28 25 23 20 20 19 20 20 22 22 24 29 31 36 42 48 53 59 62 66 70 77 80 83 89 88 89 82 77 69 61
30 35 48 65 72 68 77 85 90 91 85 81 77 76 72 63 58 51 45 39 33 29 25 24 23 23 19 22 23 22 22 24 26 27 33 35 38 44 50 54 58 63 66 73 79 82 85 89 93 100 87 82 79 69
29 37 50 70 72 72 77 89 94 91 87 82 77 73 67 60 53 48 42 37 34 35 29 25 25 23 23 25 25 24 25 26 28 30 35 39 42 45 50 55 60 63 68 73 78 83 87 91 94 96 95 88 82 74
29 43 58 70 71 74 81 90 94 89 83 75 71 72 67 62 51 44 37 33 34 30 29 27 25 24 25 24 26 28 28 28 31 32 37 41 44 47 52 57 61 66 68 74 78 82 86 90 96 97 101 96 84 77
37 50 67 74 73 75 99 94 94 88 83 78 75 72 65 56 44 38 35 34 34 31 29 26 26 27 26 25 28 31 32 34 35 35 40 42 46 51 54 58 63 66 70 76 82 85 90 90 97 100 96 101 89 88
46 61 73 74 74 88 92 95 90 84 82 80 75 69 58 52 49 48 44 29 25 28 28 28 29 28 26 30 33 34 36 37 38 40 42 46 49 53 56 60 64 69 71 77 83 89 92 90 99 104 100 106 96 92
60 70 71 78 74 93 96 92 87 85 83 76 73 66 57 58 53 37 29 28 27 30 32 33 32 30 32 35 37 37 38 40 41 42 47 47 51 56 59 63 65 70 75 79 85 91 92 97 103 107 104 106 101 88
72 72 72 74 90 98 95 88 87 84 79 75 70 60 61 56 46 39 35 35 38 38 36 34 32 35 36 38 40 40 42 42 44 47 49 52 55 57 61 64 68 72 77 81 89 91 95 95 104 107 104 110 99 90
77 75 79 91 94 96 93 90 87 82 78 73 66 66 58 52 46 44 44 44 42 39 37 35 36 36 38 40 42 43 45 46 47 50 52 55 58 63 65 67 71 75 80 84 90 92 96 102 102 106 105 105 105 95
80 81 87 94 97 96 93 89 83 77 73 68 65 61 56 52 49 49 48 41 38 40 39 37 37 39 40 41 43 46 46 48 49 54 56 56 61 65 68 72 77 80 84 88 93 94 98 105 104 103 112 113 97 92
74 84 95 95 93 89 87 83 76 71 65 62 60 59 55 53 50 47 40 40 43 41 40 39 40 42 43 45 48 48 49 49 54 57 56 62 67 68 72 75 80 84 90 93 97 98 101 109 114 109 117 104 95 94
87 92 97 95 91 87 84 77 71 67 65 64 62 61 56 55 53 45 42 45 44 44 45 45 44 46 48 51 51 50 49 53 58 60 62 67 69 72 78 82 85 90 94 98 100 105 109 111 116 115 115 104 102 92
88 93 92 90 86 83 77 72 66 64 63 61 61 59 57 58 52 49 49 49 49 51 50 49 52 53 51 51 53 53 54 59 63 64 67 71 76 77 82 85 90 94 98 102 105 107 113 117 117 120 114 106 99 89
88 88 86 84 80 78 75 72 68 66 64 61 59 60 59 55 50 50 52 56 56 55 55 54 54 53 52 54 55 56 59 63 64 70 71 75 79 83 86 91 96 98 102 105 110 113 118 119 120 121 111 104 95 88
90 89 85 82 78 76 74 72 69 67 63 61 61 60 57 56 57 56 58 61 62 60 59 59 58 58 59 58 58 60 63 67 71 74 79 81 84 89 92 96 99 104 108 111 115 116 116 123 121 117 105 98 90 85
91 88 85 83 81 79 77 73 67 65 64 63 62 62 62 63 63 63 65 65 64 64 62 60 62 62 63 63 63 65 67 71 77 79 82 86 90 93 96 101 105 108 112 112 119 121 122 128 112 110 99 91 85 79
94 92 90 88 83 79 75 70 65 65 66 65 65 66 67 66 67 68 69 69 68 67 66 66 67 68 68 68 70 71 75 77 82 85 89 92 96 99 103 106 109 112 114 122 118 122 132 119 114 101 94 88 80 72
95 91 89 86 84 80 74 69 69 72 74 74 73 71 72 73 71 71 73 73 72 72 72 73 73 72 73 74 77 78 82 86 88 91 94 98 102 106 107 112 115 118 120 117 123 128 126 115 103 92 88 80 72 67
92 90 88 87 84 80 79 78 77 79 79 77 77 78 78 77 75 77 78 77 77 77 78 78 78 77 79 81 85 87 89 92 96 100 101 105 106 109 113 116 120 118 119 127 130 129 125 108 95 89 81 74 67 62
97 93 88 88 88 85 83 82 81 82 84 84 84 84 83 82 82 82 82 82 82 83 83 83 84 85 86 88 91 93 98 101 102 104 107 109 111 113 118 118 122 126 124 135 119 120 110 97 88 79 72 67 64 58
100 99 96 93 91 90 89 88 87 87 87 87 88 88 88 87 86 87 87 87 88 88 88 89 90 92 94 96 98 101 104 106 107 111 113 115 118 119 120 126 124 126 135 125 119 103 94 87 77 69 65 61 58 53
100 99 97 96 96 95 94 94 93 93 93 92 92 91 90 90 90 91 92 92 92 92 93 96 98 100 102 103 105 107 109 111 113 115 118 120 123 126 128 130 127 132 127 122 104 91 84 74 68 63 58 55 50 47
108 106 103 102 102 102 101 101 101 100 98 96 95 95 95 95 96 97 98 99 99 100 102 103 104 106 108 109 110 112 114 114 115 117 119 124 127 128 128 130 121 111 102 92 85 78 71 65 60 55 51 47 44 45
112 112 112 111 109 110 110 108 105 104 103 102 101 100 101 102 102 102 104 105 106 107 107 108 110 111 112 114 113 113 115 119 120 124 124 128 125 129 126 109 104 93 84 78 72 67 62 58 53 49 45 43 44 43
115 116 115 112 112 113 113 111 109 107 107 107 107 107 107 106 107 107 108 110 111 112 113 114 114 114 115 116 118 121 121 119 118 124 123 127 125 111 102 90 84 79 73 68 63 58 55 51 48 44 43 43 42 41

GFSWCAN_250_spd_102.txt.gz
Wind_Speed
110 112 106 84 65 60 44 28 7 19 44 54 54 62 57 67 65 60 54 50 44 40 37 33 29 30 27 22 18 16 15 15 13 5 6 11 15 21 29 36 41 46 51 56 64 67 79 79 82 79 74 65 62 50
108 104 93 67 55 53 39 26 10 22 49 57 54 56 58 65 64 59 53 49 44 40 35 32 28 28 24 21 20 17 16 15 11 6 8 11 16 22 29 36 44 46 53 59 65 68 76 82 89 83 82 74 70 61
101 95 79 56 49 48 34 24 15 24 55 59 57 55 62 65 61 57 53 49 45 40 34 29 28 25 22 22 21 18 16 14 10 8 10 13 17 22 29 36 43 47 53 57 61 68 75 79 86 89 87 79 79 73
97 87 70 51 44 47 31 23 23 33 55 64 60 61 67 64 61 56 51 47 45 38 35 33 31 27 26 25 22 18 17 14 13 11 11 15 18 23 28 36 41 48 53 54 61 66 72 77 84 89 90 87 82 75
97 78 63 51 43 44 34 26 34 48 65 58 63 67 68 64 60 55 51 49 44 37 36 34 32 32 28 25 24 19 16 15 16 13 11 15 19 23 28 34 40 46 51 53 57 63 69 76 78 84 87 86 82 80
89 71 59 52 41 41 40 35 43 62 67 64 70 73 69 64 59 55 51 48 45 41 39 39 36 33 30 27 25 20 16 16 16 14 11 15 20 24 28 35 40 46 51 53 57 60 70 74 75 78 86 81 83 75
81 69 56 44 40 45 46 44 48 70 72 72 73 75 68 66 60 55 54 52 46 41 41 39 36 33 29 26 21 19 17 18 15 14 12 16 21 25 30 36 42 47 51 55 55 61 68 74 74 81 79 80 79 74
73 63 49 36 36 45 47 53 57 76 72 77 78 77 71 66 64 61 57 51 46 44 43 41 34 32 25 23 20 18 18 18 16 13 13 17 22 28 33 38 42 47 51 54 58 63 67 71 77 79 79 85 81 79
65 51 40 32 35 41 49 60 67 78 75 80 83 77 72 68 64 58 53 51 47 42 41 39 34 29 25 22 17 16 16 17 16 13 14 18 23 29 35 40 43 49 52 55 58 63 67 72 76 83 85 94 84 85
54 43 37 34 33 42 57 69 76 79 78 85 86 82 76 71 65 60 56 51 43 45 41 36 32 29 24 19 15 17 18 17 15 14 17 21 25 29 34 40 45 49 54 58 60 65 69 74 78 85 88 93 100 89
44 34 32 35 38 48 62 73 80 79 81 85 88 79 76 72 66 58 55 48 43 41 35 32 30 26 21 18 19 19 19 18 16 16 20 24 27 30 35 40 46 51 53 57 61 66 72 77 82 83 90 96 97 92
33 28 30 35 42 53 64 77 78 80 77 85 84 82 79 73 68 53 47 44 40 33 29 28 25 22 21 24 23 21 22 22 18 17 23 26 29 33 37 41 47 52 56 58 63 67 73 76 84 84 92 96 97 96
26 23 26 34 46 59 72 82 80 85 90 91 90 85 80 73 57 50 47 43 39 40 40 33 28 24 27 30 25 24 25 24 22 24 26 27 32 36 39 42 49 53 58 62 64 69 73 76 82 87 92 95 98 104
23 24 33 42 55 65 75 80 83 89 90 93 87 80 76 66 58 57 55 50 52 46 33 30 29 27 29 30 29 26 28 26 26 30 29 31 35 39 40 44 52 54 58 63 67 71 77 81 83 89 92 96 100 104
25 34 43 54 62 70 79 82 89 85 88 92 85 82 73 65 62 59 59 51 38 32 33 30 26 27 32 34 29 29 30 29 30 32 33 34 38 43 43 50 55 59 62 66 71 73 78 84 86 90 93 100 101 107
31 42 55 65 72 82 83 83 86 85 88 89 84 75 70 65 61 64 55 45 38 31 29 31 30 32 32 31 32 32 32 31 33 34 35 36 42 44 48 53 57 63 66 70 73 77 81 85 90 93 95 100 105 109
41 55 60 70 79 81 79 81 84 90 89 85 79 75 69 67 63 56 53 47 44 36 33 32 31 31 31 33 33 33 32 32 34 35 37 41 45 49 54 56 62 64 67 72 75 79 85 89 94 96 96 101 107 114
48 54 63 68 81 80 83 87 93 91 87 82 78 74 69 69 64 57 52 48 45 41 38 35 38 33 36 35 33 34 34 34 35 39 43 47 50 53 56 61 65 68 71 74 78 82 87 92 97 99 100 106 109 113
48 59 65 81 88 91 91 89 92 89 85 79 75 74 72 68 60 55 54 50 47 45 41 41 39 37 37 36 37 37 37 39 42 45 47 50 52 56 60 66 69 71 75 78 81 86 91 95 98 100 105 111 113 118
64 75 81 84 86 86 90 88 90 86 83 78 78 77 70 64 59 57 54 51 49 43 42 43 38 36 37 42 41 40 39 44 50 50 53 53 56 60 64 69 74 77 78 82 87 90 96 99 101 104 107 115 119 122
73 78 84 90 94 94 93 93 89 85 82 81 79 73 67 61 60 61 57 54 47 46 48 40 35 41 44 44 45 47 47 47 52 56 58 58 60 64 69 73 77 77 83 85 92 96 99 103 104 107 114 119 120 119
72 78 90 95 98 99 97 92 88 82 79 76 72 69 66 63 61 55 55 53 53 51 46 39 42 45 47 50 50 53 53 54 57 61 62 62 66 69 73 76 78 82 87 90 97 103 102 106 111 114 114 119 119 119
75 82 94 100 98 96 94 90 84 80 79 74 72 69 64 61 58 57 55 55 55 52 48 45 48 51 53 53 56 59 58 59 61 64 67 68 71 74 78 80 84 88 92 97 103 102 107 110 113 116 122 116 116 108
85 93 98 96 94 91 90 86 83 82 78 74 70 67 64 61 58 55 55 53 52 55 55 51 54 55 57 60 63 63 64 64 65 68 71 72 76 80 82 86 89 93 97 103 105 110 109 113 116 117 114 116 111 102
88 86 91 92 90 87 85 84 82 79 74 71 69 67 65 64 62 59 58 57 58 58 57 58 60 61 63 65 67 68 68 70 73 74 76 78 82 84 88 91 95 99 103 107 112 112 117 108 115 115 123 119 104 96
87 82 83 85 87 84 83 80 78 76 75 73 71 69 68 66 63 61 61 59 60 61 61 62 64 68 69 70 71 72 73 75 77 79 81 85 86 89 92 96 100 104 109 113 112 117 114 112 124 119 115 107 96 87
88 87 85 87 87 85 82 81 81 79 76 75 73 72 70 68 65 65 64 63 64 65 67 69 70 72 73 75 76 77 78 80 82 85 87 90 93 95 98 102 106 110 111 116 112 111 116 120 117 112 105 94 88 80
92 89 87 89 89 88 86 85 83 80 78 78 77 75 72 69 68 68 67 69 71 72 73 74 76 77 78 80 82 83 83 85 89 92 94 96 97 101 104 108 110 114 114 111 108 115 114 113 108 103 93 87 81 73
90 92 91 90 88 88 88 86 85 84 81 79 77 76 73 71 69 69 72 73 76 78 80 81 81 82 85 87 88 89 91 93 95 97 99 101 104 107 109 111 114 113 109 108 115 108 110 104 103 92 86 80 74 67
88 91 91 92 92 91 90 89 87 87 86 84 81 79 77 75 74 75 78 79 80 82 84 86 87 89 90 91 92 94 96 98 100 103 106 108 109 111 110 112 114 112 111 112 110 112 101 104 91 83 76 70 67 61
96 95 96 96 95 94 93 93 92 91 90 88 85 83 82 81 81 82 84 87 89 89 90 91 93 94 95 96 97 99 101 103 105 108 110 110 108 108 114 113 110 110 112 108 108 100 96 86 80 74 68 62 58 53
100 99 99 100 101 100 99 98 98 96 94 93 92 92 91 90 90 91 92 93 93 94 96 98 99 100 101 103 104 105 107 110 111 110 111 111 115 109 110 109 110 112 105 101 99 91 84 79 71 66 60 56 52 48
108 105 103 102 102 103 103 104 103 101 100 99 98 97 97 97 96 98 99 100 101 103 102 103 104 105 107 109 111 112 113 113 113 111 114 110 107 108 113 114 106 96 99 92 84 81 75 69 63 59 55 51 48 46

GFSWCAN_250_spd_105.txt.gz
Wind_Speed
124 129 129 122 119 111 118 99 65 38 18 10 19 26 37 38 47 57 57 54 51 47 41 37 34 30 32 28 23 20 16 13 11 7 8 7 7 13 18 24 29 37 41 46 52 54 62 69 72 75 75 74 69 63
124 127 128 123 104 102 101 89 58 40 18 14 23 36 42 45 54 52 55 52 49 44 39 35 34 32 29 25 22 19 17 15 11 9 9 7 9 11 17 23 30 34 41 46 49 55 58 67 73 75 77 76 75 72
124 127 122 117 113 105 93 74 54 34 21 23 31 41 42 53 53 55 51 50 46 42 38 35 34 32 29 26 21 19 17 15 12 11 9 7 10 11 17 23 28 34 39 44 51 57 59 64 70 72 77 81 81 76
125 122 114 115 108 93 80 65 50 33 23 26 35 46 54 59 54 53 53 48 44 42 38 37 32 32 28 25 22 19 16 16 13 13 11 9 10 12 16 23 29 34 40 45 50 55 59 59 63 72 73 76 81 80
119 116 110 107 98 88 69 60 48 37 22 32 39 49 58 59 58 55 54 49 45 41 37 35 32 31 30 27 21 19 18 17 15 15 13 12 12 12 16 22 28 34 39 44 48 53 54 56 58 67 70 72 76 80
112 108 106 108 93 89 63 57 46 40 27 39 47 57 60 64 59 59 55 50 46 43 39 38 35 32 30 25 22 20 20 19 17 16 15 14 12 13 17 22 28 34 39 42 47 51 57 55 58 66 68 70 73 77
107 105 103 99 90 75 54 55 50 42 36 51 54 67 63 67 63 62 55 51 48 44 42 41 37 35 30 26 25 23 22 21 19 16 14 14 13 15 19 23 28 34 39 44 49 51 54 54 58 59 66 73 71 73
106 102 98 88 80 60 49 54 51 46 46 58 62 74 71 72 69 65 61 57 52 46 44 40 38 35 31 30 29 26 25 25 22 16 15 14 14 16 21 25 29 33 39 45 49 52 57 58 57 56 62 65 77 80
102 94 89 79 69 52 50 49 47 48 52 64 69 74 79 74 71 68 64 59 53 47 46 42 39 37 32 31 31 27 24 24 22 16 15 13 14 17 21 26 32 34 40 45 50 54 57 61 53 63 68 66 78 84
92 89 80 70 59 50 48 45 46 50 58 72 77 75 77 77 76 72 67 60 51 47 43 41 39 34 36 29 26 23 23 23 20 17 15 13 15 17 20 25 31 35 40 45 48 54 58 63 57 69 74 69 81 87
86 82 72 60 52 48 46 45 47 52 65 73 76 75 79 79 80 75 66 56 48 45 41 41 39 39 36 31 26 22 22 21 18 17 14 13 15 18 21 26 31 35 39 44 49 56 60 64 67 68 76 70 87 86
79 71 60 51 49 43 43 42 45 50 63 68 73 79 83 85 81 71 63 51 44 42 42 43 41 35 35 30 24 20 21 20 17 14 13 15 17 20 24 28 33 36 40 45 52 56 62 66 69 73 78 77 86 88
72 61 47 44 41 38 42 41 48 60 70 80 86 88 83 81 74 64 52 45 40 43 48 48 40 35 29 23 23 20 21 20 19 14 16 18 20 23 25 31 35 38 43 47 52 57 64 66 71 77 80 81 85 91
64 50 40 36 35 38 41 45 53 63 77 83 84 79 78 79 69 63 57 60 56 53 52 46 37 31 30 28 21 21 23 22 22 20 21 22 24 25 27 33 38 41 45 52 54 60 65 67 73 76 83 84 89 90
52 39 36 32 33 39 41 47 57 66 75 82 83 79 79 76 72 70 67 62 60 56 51 42 36 33 28 26 25 24 26 26 25 26 26 27 27 27 30 36 42 44 48 55 57 63 68 71 74 80 85 87 90 92
40 33 32 31 37 41 40 49 58 66 80 85 81 80 82 79 77 74 68 64 60 54 47 44 39 30 29 26 26 31 29 27 27 29 31 29 28 29 32 39 44 48 51 57 61 66 69 72 75 82 84 90 92 97
34 31 30 31 32 36 46 57 62 71 85 83 85 86 85 83 81 76 70 64 55 49 46 46 41 32 28 29 34 31 29 26 27 30 29 30 31 32 37 42 47 50 55 60 65 66 70 73 78 85 88 92 95 97
34 30 29 33 37 46 56 66 77 77 82 86 90 90 88 84 78 73 69 62 54 49 48 43 37 32 33 36 34 31 29 28 31 32 33 35 34 37 40 46 52 55 58 63 66 69 72 77 82 88 93 93 99 101
34 32 35 40 44 52 58 60 62 81 84 86 90 89 87 84 79 70 65 59 54 51 48 44 36 34 37 37 36 33 33 32 33 36 36 37 38 41 44 50 55 58 61 66 71 73 76 81 86 92 94 96 98 103
34 36 39 44 47 57 65 62 74 87 90 90 91 91 88 83 76 73 71 62 56 52 47 42 43 45 41 39 41 38 35 35 38 40 40 41 44 47 50 53 56 61 64 68 72 76 79 84 89 94 99 97 102 105
36 38 42 47 56 64 69 83 81 84 90 93 92 92 87 80 76 77 71 63 59 53 49 47 46 44 39 41 44 40 36 40 42 44 45 47 49 52 56 59 62 65 69 73 75 78 84 89 92 98 99 105 103 103
40 42 44 49 63 70 80 86 89 93 95 94 94 90 84 82 82 74 66 62 60 55 48 46 45 44 43 44 45 40 40 44 46 48 50 52 54 57 61 63 67 72 75 78 81 86 90 92 99 101 104 99 105 105
43 45 49 56 65 76 83 85 94 97 95 94 94 89 86 83 77 72 67 63 59 51 49 46 47 45 48 48 47 44 46 46 48 52 55 57 58 62 66 70 72 76 81 83 86 90 94 99 101 102 102 102 109 110
45 50 55 63 74 77 77 83 86 90 91 91 88 83 80 78 74 72 69 66 60 53 51 51 50 49 52 52 51 52 53 54 54 58 61 62 63 67 72 74 78 81 85 89 92 97 97 102 106 103 105 113 110 105
46 52 57 69 75 74 82 87 90 90 90 88 85 81 80 76 71 71 71 66 59 56 58 56 54 54 53 51 51 54 59 60 60 63 64 65 68 73 76 81 84 87 91 93 97 97 104 107 106 110 109 111 110 107
40 44 59 71 79 84 90 93 91 91 90 85 82 81 77 72 73 73 68 61 60 62 61 58 57 56 55 53 55 62 65 65 66 67 68 71 75 78 82 85 89 91 95 97 100 104 108 106 113 107 110 110 105 103
51 62 73 79 84 86 89 92 93 89 86 83 82 80 77 75 73 71 66 64 64 64 62 60 58 58 58 60 64 67 69 70 71 72 76 78 81 82 86 89 93 96 98 102 106 107 106 113 105 106 112 105 102 95
70 80 87 87 90 93 93 91 88 87 86 83 80 78 76 74 72 70 69 67 65 64 63 62 61 61 64 67 69 71 73 74 75 77 80 81 84 87 91 94 97 101 105 107 108 104 113 102 106 111 101 103 96 91
82 89 91 94 97 98 96 93 90 87 84 82 81 80 78 76 72 71 68 67 67 67 66 66 67 68 70 73 74 75 76 78 78 80 83 85 89 92 95 97 101 107 105 110 106 109 103 111 101 97 101 99 91 83
93 97 99 98 96 95 93 92 90 90 88 85 82 81 79 77 75 73 73 73 72 72 73 73 73 74 77 77 78 79 80 81 82 84 87 90 93 96 99 103 106 104 110 107 111 102 108 105 98 93 96 88 82 75
98 101 102 101 98 96 94 93 91 90 89 87 86 84 82 80 79 78 78 78 78 78 77 78 79 79 80 81 82 82 84 86 87 89 92 96 98 100 103 107 108 111 110 106 113 102 105 96 91 91 87 78 73 69
99 99 98 97 96 97 97 94 93 92 90 90 89 89 88 86 85 86 85 85 83 83 83 84 85 85 85 84 85 87 88 89 92 95 98 100 101 105 108 111 111 105 111 111 105 110 97 87 87 82 76 70 66 62
95 92 90 92 90 90 90 89 89 89 89 90 90 90 89 88 88 89 89 89 88 88 88 89 89 89 90 90 90 92 94 97 99 102 104 105 108 108 110 102 104 110 112 112 98 94 87 86 77 73 68 65 61 58

GFSWCAN_250_spd_108.txt.gz
Wind_Speed
121 126 129 129 132 127 123 113 101 88 79 57 37 27 15 16 17 11 29 46 53 52 48 44 40 36 34 32 30 26 23 20 17 14 12 8 4 5 9 14 19 25 32 36 40 46 49 50 54 61 66 71 70 70
122 123 124 131 129 119 122 110 96 88 71 53 35 21 22 13 23 25 32 46 50 47 45 42 37 33 32 32 27 24 22 19 16 15 11 9 5 5 8 15 20 24 30 35 43 45 50 49 50 54 62 67 71 71
121 129 130 128 127 129 119 104 94 79 71 54 37 23 27 18 25 29 39 46 48 45 43 38 34 33 32 29 27 24 22 19 17 14 12 11 7 6 9 13 19 23 29 34 41 45 49 54 51 55 55 62 65 68
126 134 131 132 136 125 113 96 84 74 67 57 34 28 33 31 26 31 41 44 46 45 43 38 35 35 32 30 29 25 22 19 16 13 13 13 11 9 10 13 18 23 28 34 39 43 47 53 52 55 50 54 60 66
136 135 134 141 131 121 106 91 79 72 64 55 33 32 36 36 35 33 45 44 46 45 43 39 37 36 31 32 30 26 23 19 17 16 15 15 14 12 11 13 19 23 26 32 38 42 47 50 54 50 51 48 56 63
138 140 143 144 128 111 97 85 80 69 61 55 35 33 35 44 42 41 49 46 48 48 44 42 42 36 33 32 30 26 24 20 19 20 17 17 16 15 12 14 18 22 27 31 36 41 46 50 54 54 51 56 57 64
142 147 143 137 118 107 89 78 77 70 60 54 41 36 41 48 46 48 55 58 54 50 47 44 40 38 37 34 30 26 23 22 22 21 18 18 19 17 15 15 19 22 27 30 35 42 46 49 53 55 56 53 59 65
148 147 141 119 108 97 85 77 78 71 57 55 48 41 47 51 51 55 61 57 58 55 51 46 43 41 39 34 31 27 25 23 22 21 20 20 20 18 17 16 19 22 26 31 35 41 46 49 53 55 60 56 60 63
149 148 125 111 100 90 82 78 76 68 56 52 52 46 49 53 56 59 67 66 63 58 53 52 46 44 41 36 33 30 27 25 24 24 24 23 22 19 19 18 20 22 26 31 36 42 46 48 56 58 59 57 64 66
145 121 108 100 92 85 81 78 70 64 53 51 53 51 50 53 68 68 69 75 67 63 57 52 48 45 45 39 34 30 27 29 28 26 26 25 23 21 20 18 21 24 27 30 36 41 46 51 57 60 61 63 67 67
123 109 100 91 85 83 81 76 67 56 47 49 54 56 54 61 78 76 75 75 67 65 57 52 49 46 44 41 37 32 29 32 33 30 26 25 23 21 19 19 22 26 28 32 36 40 46 52 58 61 63 68 71 73
110 99 90 84 81 83 78 73 62 51 47 54 58 59 62 69 84 79 70 69 64 64 59 54 51 48 45 42 36 30 30 33 30 28 25 24 19 19 19 19 23 27 30 34 37 41 46 53 57 63 67 69 71 75
104 93 80 77 78 78 74 67 56 49 53 53 55 60 67 73 77 72 54 53 58 59 57 57 53 50 47 42 36 33 32 32 27 26 22 21 17 18 20 22 25 29 33 36 38 41 46 53 58 63 69 71 72 79
92 79 73 72 74 70 67 58 54 53 51 47 52 56 58 56 65 58 59 65 67 73 69 64 56 51 46 42 33 32 32 28 27 24 21 19 20 21 23 27 29 32 33 37 40 44 48 54 59 64 69 72 74 82
77 71 69 70 66 62 54 52 52 50 46 45 49 51 49 54 67 72 78 74 77 78 70 64 58 53 47 40 36 32 29 26 28 22 22 22 23 23 27 30 32 34 33 37 43 46 51 55 61 66 71 74 75 80
68 67 67 64 58 49 47 47 45 41 40 41 46 50 58 71 76 81 82 82 83 77 70 62 56 50 42 37 38 33 31 32 26 28 24 26 26 27 30 32 34 36 35 38 44 49 53 57 63 68 75 77 79 81
65 64 62 59 50 42 43 40 39 37 37 41 51 63 74 82 85 88 90 87 81 75 66 60 55 50 42 40 40 36 36 30 30 30 28 29 29 30 31 34 35 37 39 44 49 51 57 62 67 68 76 79 81 87
61 58 53 48 41 40 38 36 35 33 41 53 59 72 85 85 89 92 92 83 74 71 67 61 55 48 44 45 50 40 31 32 35 32 32 32 34 34 35 38 40 42 44 48 53 55 60 64 69 73 78 78 85 85
57 48 43 37 38 36 33 31 32 41 48 55 75 83 90 90 91 94 91 76 75 73 67 60 54 48 47 51 45 35 34 34 36 36 35 33 37 38 40 42 44 46 48 52 56 59 63 68 72 77 82 82 86 87
48 43 35 33 34 32 30 32 41 51 62 66 77 91 95 95 93 92 80 74 74 73 65 59 55 54 53 48 45 40 36 36 39 41 38 40 41 42 43 46 48 49 51 55 58 61 65 72 76 79 85 86 86 92
43 38 35 32 30 31 30 38 48 59 66 77 84 94 99 97 92 84 78 76 75 70 65 62 59 57 52 48 43 39 38 40 46 44 43 42 44 42 45 49 50 53 55 58 60 65 70 75 80 84 86 89 96 94
38 37 35 32 32 33 36 41 49 59 68 81 92 95 96 94 93 88 85 78 74 72 70 67 63 60 49 44 40 41 43 45 44 44 45 43 42 44 48 51 52 57 60 62 65 69 75 79 83 86 89 91 99 96
35 36 35 34 35 39 45 51 57 63 74 84 95 97 96 93 91 92 84 79 77 72 71 67 62 57 48 45 44 45 45 46 46 47 48 48 50 52 54 54 56 61 66 69 71 74 79 83 86 86 86 95 103 96
34 34 33 35 40 46 51 57 62 71 82 88 95 96 96 94 93 88 83 81 80 72 67 65 62 54 51 49 48 46 47 49 46 47 50 53 54 54 57 60 62 67 70 74 77 80 84 87 91 85 90 96 101 105
30 28 33 37 44 49 57 63 68 80 90 94 94 97 97 96 91 86 82 79 75 70 66 62 62 57 54 52 49 49 49 49 50 50 54 57 55 56 60 64 67 71 75 78 81 85 88 90 91 87 102 94 103 107
24 29 36 44 49 53 58 63 74 89 95 98 97 96 96 91 88 84 79 77 75 71 67 66 63 59 57 59 55 52 53 56 55 56 58 61 61 62 64 68 71 75 79 82 85 88 92 94 89 100 99 102 105 107
32 38 43 45 51 58 64 68 76 89 95 97 96 94 90 87 84 81 78 78 73 71 71 65 61 60 61 60 59 59 59 59 62 63 66 67 66 68 70 72 76 79 83 85 88 94 93 92 96 100 103 103 107 107
40 43 46 51 54 58 66 75 83 91 95 93 90 89 86 85 84 83 80 77 74 73 72 69 67 66 65 65 65 64 63 65 67 70 70 70 71 71 74 77 80 83 86 88 93 91 96 96 104 102 107 108 102 103
47 49 53 58 60 62 70 79 87 91 91 90 90 88 84 85 85 84 82 80 78 75 73 74 72 70 71 72 68 66 68 70 73 73 74 75 75 77 79 82 83 87 89 93 92 97 98 100 101 105 106 102 107 100
51 51 56 61 64 70 82 90 92 94 94 92 88 85 86 87 86 83 82 80 76 74 71 72 74 74 73 72 70 70 72 74 75 77 78 80 81 82 84 85 87 92 95 96 97 97 97 101 99 107 115 108 101 95
54 56 60 66 74 78 86 91 94 95 94 90 89 91 90 88 85 83 81 79 77 75 75 76 75 76 76 76 76 76 76 77 78 80 81 82 84 86 88 90 95 96 96 95 100 97 97 102 109 106 101 98 93 88
57 61 68 74 80 84 87 89 91 90 90 92 92 91 89 87 85 84 82 81 78 78 78 79 80 79 78 78 79 80 80 80 81 84 85 87 89 91 94 96 96 94 96 98 101 101 102 110 102 96 96 91 87 81
68 70 73 79 84 86 89 92 94 96 97 97 95 94 92 91 89 87 84 82 81 80 80 80 81 82 82 82 82 83 84 85 87 89 90 92 94 96 96 94 94 95 97 97 101 102 105 105 101 96 89 81 77 72

GFSWCAN_250_spd_111.txt.gz
Wind_Speed
96 101 104 106 114 120 114 123 128 132 128 124 106 81 50 34 25 12 12 24 31 36 45 39 36 38 35 33 30 28 24 21 19 18 16 14 10 7 8 10 13 17 22 26 31 36 40 47 51 57 62 65 64 66
99 108 106 111 115 121 120 123 124 124 121 118 110 85 53 34 23 20 11 29 37 33 44 39 38 36 34 31 28 27 25 22 20 19 16 15 13 9 8 11 13 16 20 25 30 35 39 44 50 53 60 61 62 65
102 110 112 112 119 120 121 122 121 123 127 119 117 81 67 37 26 22 18 25 36 37 45 41 39 35 34 31 29 30 28 24 21 20 18 16 14 12 10 11 14 16 20 24 28 33 38 40 46 49 55 61 63 61
110 111 117 118 116 120 121 118 121 124 126 119 103 75 64 42 29 22 19 28 36 41 47 43 40 37 35 33 31 32 30 27 24 21 19 17 17 16 14 14 15 17 20 23 27 31 35 40 44 50 55 58 58 59
108 114 117 113 118 120 117 123 126 123 118 122 90 76 60 47 33 26 25 28 38 46 49 45 41 38 37 35 33 33 31 28 26 23 20 17 19 19 18 17 18 19 20 23 25 30 33 39 43 48 51 56 59 59
112 112 118 117 119 121 130 125 127 124 123 120 84 73 63 48 36 28 27 28 42 51 53 50 46 40 38 37 36 35 34 32 28 25 22 21 20 21 21 21 21 21 21 23 26 29 33 37 42 47 50 53 59 60
119 118 124 129 129 129 133 131 128 129 124 110 79 66 66 48 36 33 31 50 46 53 57 55 49 44 43 40 40 37 36 34 30 28 25 23 23 23 22 23 24 24 24 25 27 30 34 37 40 46 50 55 60 61
125 128 129 133 132 136 132 139 133 131 120 95 75 67 61 55 37 37 42 45 48 51 56 55 52 50 49 46 43 39 36 36 32 30 26 24 25 24 23 24 25 24 26 27 28 32 34 37 40 45 50 54 58 64
129 134 130 131 136 136 140 139 130 123 103 87 75 66 59 56 45 41 49 50 53 48 54 59 58 54 52 49 45 43 39 38 34 31 26 25 26 25 26 26 26 25 26 27 28 33 36 39 40 44 49 54 58 61
144 140 136 135 142 138 142 135 123 107 91 85 76 69 59 60 51 53 56 60 59 54 52 65 59 56 55 52 49 45 42 39 35 30 28 27 26 26 28 30 28 27 26 27 28 31 37 40 43 45 48 54 58 62
141 140 143 139 135 139 129 128 107 97 89 80 75 69 61 58 55 58 59 60 57 57 53 67 63 58 58 53 50 47 44 42 38 35 31 30 30 30 31 31 28 26 26 26 28 32 38 41 46 47 50 53 59 64
141 140 138 136 126 126 123 109 101 94 84 76 72 64 61 57 55 59 58 58 48 58 55 64 67 63 60 57 52 49 48 43 38 36 34 31 35 34 33 31 27 23 26 27 31 34 39 42 46 49 52 57 62 62
134 127 123 122 116 112 105 102 96 88 78 74 66 60 58 56 55 55 54 49 44 51 57 65 70 66 64 59 55 53 50 44 43 36 38 34 36 35 34 31 29 26 29 30 33 36 40 43 46 49 51 57 61 65
125 120 115 110 111 102 96 94 88 83 78 68 60 53 53 47 44 46 50 50 50 56 67 76 80 76 69 65 58 52 47 45 40 36 40 33 38 34 32 28 28 30 30 32 34 39 43 44 46 51 54 58 64 68
114 110 108 107 101 95 88 83 79 75 70 62 52 48 43 44 48 52 56 61 65 73 79 85 86 79 74 67 57 52 46 41 38 47 36 36 38 33 31 29 30 31 32 34 36 40 43 45 49 53 56 60 64 68
106 100 97 96 91 83 81 76 71 66 61 52 45 42 43 48 50 58 64 70 72 85 92 94 90 82 73 63 53 48 42 37 52 42 34 36 36 34 33 31 31 33 34 37 38 42 46 48 51 54 58 62 68 71
96 92 88 82 77 74 70 68 65 58 52 45 44 47 45 50 56 62 66 74 82 98 96 92 84 71 68 60 53 45 42 57 58 42 35 40 37 37 36 34 35 37 38 41 43 46 49 51 53 55 60 65 71 74
86 81 77 71 67 65 64 59 55 51 47 48 47 45 50 55 58 64 74 80 91 97 93 88 75 73 68 60 54 60 59 58 55 40 41 45 40 40 38 38 40 41 42 45 46 49 51 54 55 58 62 68 74 78
75 71 66 63 60 59 55 49 47 45 47 45 45 49 54 57 61 69 76 86 96 95 91 81 77 72 68 64 67 60 61 60 50 45 45 41 40 42 42 41 41 44 47 49 49 51 54 57 59 62 66 70 76 81
64 61 60 55 55 51 46 44 43 41 41 43 48 51 56 59 64 71 82 94 92 90 80 76 73 71 72 70 65 61 60 56 47 45 45 43 40 40 43 46 47 50 50 52 51 54 58 59 62 66 71 75 80 85
58 54 52 50 45 45 43 39 39 40 42 46 48 51 59 63 69 74 85 93 92 86 78 77 74 74 73 67 64 61 61 52 46 46 46 45 45 44 46 48 50 50 50 53 54 60 62 62 66 69 74 77 84 85
50 51 46 40 40 39 39 40 38 42 46 49 52 56 62 65 71 81 92 95 92 84 79 77 76 75 70 65 64 62 57 50 46 46 48 49 49 47 49 50 51 53 54 57 61 62 63 65 68 72 77 80 87 89
48 44 42 38 35 38 38 38 39 44 49 51 56 59 63 67 72 84 92 91 88 82 80 79 77 75 70 65 62 59 55 50 49 52 51 51 51 49 52 53 52 54 57 59 61 63 66 69 72 75 79 85 87 91
44 39 36 33 34 39 39 39 40 45 48 52 59 56 59 70 81 89 91 90 86 80 79 79 77 73 69 64 61 59 56 54 54 53 52 51 50 53 54 54 54 55 57 60 62 65 69 73 76 79 83 89 90 96
37 32 32 33 35 40 39 38 41 47 49 51 63 67 71 81 90 92 93 90 86 82 81 78 73 70 68 65 61 59 58 57 58 56 53 52 54 55 55 56 58 59 60 64 67 69 73 77 81 84 87 91 95 100
33 31 33 36 42 39 38 41 44 48 51 56 60 66 73 82 88 93 93 89 85 81 79 76 72 70 66 65 62 62 63 63 61 61 57 59 58 57 58 61 63 65 66 69 72 74 79 81 85 88 90 94 99 101
30 35 40 43 43 43 45 47 50 52 52 56 60 68 77 86 94 95 94 87 81 79 77 75 70 69 66 63 65 68 67 64 63 62 61 61 60 62 63 64 66 69 71 73 75 79 82 85 89 91 94 97 99 101
36 38 38 39 40 43 45 46 51 56 59 62 67 79 89 95 97 94 92 87 83 78 74 69 68 65 66 68 67 61 61 62 61 62 62 62 64 65 67 68 71 74 75 75 79 83 85 88 90 91 96 98 100 99
36 36 36 39 41 43 45 49 54 60 66 71 78 89 97 97 98 94 89 86 83 78 75 72 71 71 70 67 66 65 61 62 63 64 63 64 68 71 71 73 76 76 77 80 83 86 89 89 92 96 97 97 100 99
38 40 42 43 44 46 50 54 61 65 70 75 85 95 100 101 97 92 90 85 81 81 78 76 73 74 73 70 70 68 66 66 67 67 69 71 72 72 73 77 79 79 80 83 87 90 90 95 94 99 98 99 98 98
34 39 41 42 45 49 51 57 60 64 72 81 93 99 100 102 98 94 90 86 83 80 77 75 74 74 74 72 72 70 68 69 70 71 72 72 73 76 79 81 81 81 84 87 89 90 95 95 98 98 95 99 97 97
34 37 41 44 47 50 54 59 62 71 80 88 94 98 101 101 97 94 90 87 84 84 84 81 80 79 77 75 74 73 73 73 73 74 74 75 77 78 80 81 84 85 86 88 90 94 96 96 98 94 94 95 95 91
35 38 42 45 49 54 57 61 66 77 85 91 96 97 100 99 95 93 90 88 87 87 87 84 82 80 79 78 77 77 77 77 77 78 79 79 80 81 82 85 85 87 88 91 93 94 93 95 92 94 95 93 88 85

GFSWCAN_250_spd_114.txt.gz
Wind_Speed
98 96 94 95 97 93 98 98 99 99 101 106 108 112 109 112 114 106 65 23 15 13 20 30 31 29 27 26 24 23 21 19 17 16 15 14 12 11 11 13 16 19 20 23 27 30 33 38 42 47 54 58 67 67
98 102 101 99 98 99 97 93 96 99 102 109 111 115 120 118 111 107 69 40 18 18 23 30 36 30 29 28 27 25 23 22 21 19 18 17 16 15 14 14 16 19 20 23 25 28 31 35 40 45 49 54 59 63
101 102 102 104 103 101 96 95 96 98 101 106 110 107 110 115 109 109 70 50 29 20 28 30 40 36 32 33 32 30 29 26 24 23 22 21 20 19 16 15 17 19 22 24 26 28 30 34 39 43 44 49 53 60
104 102 104 107 102 103 102 95 98 104 106 106 111 112 113 113 110 111 73 50 35 29 30 37 37 43 38 37 37 35 32 30 28 27 25 25 24 23 20 18 20 21 22 25 27 30 31 33 38 43 44 46 50 55
106 107 107 105 103 102 100 95 98 100 106 111 112 118 117 112 111 108 78 54 39 41 35 40 44 44 46 41 39 38 36 34 32 29 29 28 26 26 24 22 23 24 24 27 29 31 33 33 37 41 45 45 50 54
108 105 101 105 98 98 99 106 109 107 111 113 114 119 119 118 108 104 78 58 47 38 48 40 47 47 50 46 44 42 39 37 36 33 31 30 29 29 27 23 24 24 25 27 28 32 34 35 37 41 44 46 48 51
109 110 108 109 108 111 116 112 119 116 118 115 118 119 121 116 109 90 77 63 51 44 46 52 46 49 52 52 48 46 43 41 38 36 34 33 32 32 31 26 25 23 25 26 28 31 33 36 37 41 44 47 49 53
119 120 123 123 122 125 120 117 119 123 123 125 120 120 119 117 101 85 70 63 52 44 41 53 50 52 56 57 53 50 48 44 40 38 36 36 34 34 32 28 26 25 25 26 28 30 33 35 38 41 44 48 49 51
124 124 129 130 128 129 129 130 131 130 126 128 130 121 126 114 98 80 69 61 52 39 41 42 59 59 59 60 59 56 52 49 44 41 39 35 37 37 31 31 28 28 28 29 30 31 32 35 39 41 43 46 49 52
127 129 133 136 138 139 137 137 134 132 136 131 118 119 127 109 89 75 65 56 49 39 40 38 57 65 64 65 64 60 56 53 47 45 40 35 40 35 33 31 29 30 30 30 32 32 31 35 39 42 44 45 49 53
135 132 137 139 139 140 142 142 139 139 138 132 125 122 115 94 85 76 60 52 47 38 39 43 51 68 68 69 69 66 60 57 52 49 42 38 43 32 38 32 33 33 34 33 33 32 30 35 38 41 44 47 50 53
143 140 141 140 140 142 141 142 143 137 136 129 130 121 98 86 79 64 56 51 45 42 41 46 55 65 74 73 72 69 66 60 53 49 43 39 43 35 38 33 34 37 38 37 35 33 33 38 38 40 44 47 51 56
130 126 127 131 134 135 131 138 139 132 128 125 116 105 89 76 70 65 56 51 48 45 48 54 59 68 75 78 75 73 69 61 54 49 42 45 44 37 39 37 37 38 39 39 37 36 37 40 38 40 44 48 54 58
116 117 115 117 120 116 120 128 126 121 117 112 103 90 77 67 66 62 56 53 52 53 56 64 66 79 79 84 82 77 69 64 55 44 41 55 46 39 41 41 39 39 38 37 34 34 36 38 39 42 46 51 54 59
110 107 106 106 107 108 115 117 110 105 103 99 91 79 70 71 61 57 57 55 57 61 62 69 75 80 85 89 86 78 68 60 50 40 51 59 43 38 44 40 39 40 39 36 34 34 37 39 42 45 50 53 56 60
104 101 93 100 102 105 106 104 102 101 90 87 78 71 66 63 60 58 58 61 63 69 71 78 79 82 83 78 75 71 61 54 48 49 59 58 47 42 42 43 38 39 41 40 37 36 38 41 45 49 54 56 59 64
96 93 90 100 106 99 96 97 97 91 84 76 74 69 64 60 58 61 64 64 67 69 73 82 74 71 76 69 64 62 58 56 55 62 63 60 50 45 43 41 38 40 42 43 40 41 42 45 49 52 57 58 61 65
85 90 96 97 96 95 92 90 87 82 74 69 67 67 63 58 57 60 62 67 70 71 77 76 69 69 63 55 59 63 66 73 72 65 66 62 52 44 44 46 41 44 43 45 45 45 47 49 53 56 58 59 64 69
83 86 88 89 90 89 87 82 78 75 70 68 65 63 56 53 56 59 65 69 70 70 70 71 64 57 57 57 70 77 82 80 73 67 65 62 52 49 48 48 44 44 45 46 47 48 51 54 57 58 59 62 68 70
78 78 82 84 83 80 75 72 71 70 67 63 62 53 52 54 57 59 62 63 63 64 65 60 53 54 60 66 78 84 85 80 73 66 63 59 54 53 49 48 47 44 44 43 46 48 51 54 56 59 62 64 69 69
71 74 72 71 72 70 66 62 65 66 64 59 56 50 51 54 52 54 55 55 56 52 49 53 59 63 68 75 84 87 85 79 74 67 62 60 56 53 49 49 48 47 48 49 52 54 56 57 58 61 63 67 70 73
62 63 65 65 63 61 60 60 62 60 56 56 51 50 50 49 46 47 48 45 42 45 50 54 64 68 73 84 87 87 84 78 72 66 62 58 56 56 53 49 50 49 49 53 56 58 58 61 63 63 68 72 74 76
58 58 60 58 57 55 53 57 53 51 53 52 49 48 48 43 42 42 36 36 38 41 50 59 68 73 83 87 88 86 82 75 69 63 62 60 57 55 55 53 51 51 51 54 57 59 61 64 64 68 70 73 76 79
54 54 53 51 47 47 52 50 47 46 53 49 47 43 40 40 38 33 36 40 47 50 57 66 76 83 88 88 86 83 77 73 68 65 64 60 57 55 54 54 53 53 55 58 60 61 62 64 67 70 73 76 79 81
48 47 45 43 45 48 46 43 42 49 50 46 42 39 41 38 35 38 44 50 51 57 66 74 80 88 93 93 89 82 76 72 69 65 64 60 57 55 55 56 56 56 60 62 63 63 65 68 69 72 75 78 79 84
46 39 40 44 43 41 44 44 45 46 44 41 38 40 39 34 34 43 50 55 59 65 71 80 88 90 93 90 85 79 74 71 67 64 61 57 57 58 57 57 59 62 64 64 66 67 68 71 72 73 77 79 81 84
39 34 40 43 43 44 45 46 44 43 42 39 40 39 36 38 42 51 55 60 65 71 79 85 89 91 88 83 78 72 69 67 64 61 59 59 59 58 59 63 65 66 67 68 69 71 71 74 76 77 80 81 84 89
36 37 42 46 44 44 45 43 42 41 41 41 41 40 42 47 51 56 59 65 72 76 85 87 87 86 81 77 73 69 66 64 62 62 63 62 62 63 66 67 69 69 68 69 72 73 74 75 76 80 80 83 86 90
39 42 46 46 42 41 41 42 43 43 43 44 43 45 52 58 60 63 67 74 78 85 89 88 86 81 76 74 73 70 67 66 66 66 65 63 64 66 67 68 66 66 67 68 71 72 74 74 78 79 81 84 89 92
37 40 39 37 39 40 39 40 42 43 45 47 47 51 57 62 65 72 78 80 86 90 89 91 86 79 75 75 75 73 71 69 67 65 66 66 65 66 67 66 65 64 67 68 70 72 72 76 78 81 83 87 89 92
34 32 32 35 36 36 39 40 40 42 45 48 51 55 60 66 73 82 86 87 89 91 92 88 83 78 76 75 74 74 70 68 69 67 65 64 68 67 65 67 67 66 67 70 72 73 75 78 80 82 86 88 90 92
30 30 30 31 33 36 38 39 41 45 47 50 53 60 64 71 82 86 89 92 95 93 89 85 83 80 77 74 74 72 72 70 65 66 66 66 65 66 68 69 68 69 73 73 73 75 77 79 82 85 86 89 91 89
27 29 29 27 27 29 31 34 37 42 47 51 57 62 67 73 84 91 92 92 93 91 88 84 82 81 79 77 75 72 70 68 67 67 68 69 69 69 68 69 71 73 74 74 75 77 79 80 83 83 88 89 87 94

GFSWCAN_250_spd_117.txt.gz
Wind_Speed
90 88 89 89 93 94 97 92 96 97 100 93 87 88 90 94 97 97 95 96 99 101 77 44 28 27 31 26 26 25 24 22 20 19 18 18 18 17 17 15 15 16 18 20 23 26 28 32 37 41 44 47 49 51
91 93 93 91 91 94 95 97 102 104 99 92 88 94 92 96 98 97 96 100 100 99 90 51 37 31 33 34 29 30 29 26 25 24 24 22 22 21 21 20 19 17 19 21 23 24 27 29 33 37 41 44 47 50
95 100 97 99 96 94 93 98 103 106 100 85 90 94 95 95 99 98 100 102 100 100 97 60 44 37 37 37 37 34 34 34 30 29 28 27 26 24 23 22 22 21 21 22 25 25 27 29 32 35 38 40 45 49
103 102 102 101 99 102 101 101 105 101 97 94 95 95 95 95 99 103 103 103 100 100 97 72 45 42 41 42 43 42 39 39 37 34 32 30 28 27 26 26 25 25 24 24 26 27 28 29 30 34 37 39 43 45
108 105 101 99 100 102 103 106 105 105 103 100 103 98 99 101 100 101 102 106 102 99 100 81 49 39 42 46 47 49 45 42 41 39 37 36 33 29 27 26 29 27 26 24 25 26 28 29 29 32 34 37 40 43
104 106 110 106 106 110 110 108 108 109 110 111 105 107 106 111 106 108 109 112 112 110 101 83 54 42 39 47 53 52 53 48 45 43 39 39 35 33 32 28 28 31 30 27 26 24 26 27 29 32 34 36 39 41
110 108 113 109 109 110 112 112 112 114 116 117 115 115 115 117 114 113 113 115 113 111 102 80 56 46 40 48 55 57 55 55 51 47 43 41 37 33 38 35 28 32 32 30 27 26 26 27 29 32 34 36 39 42
119 117 115 116 113 114 116 118 119 120 121 122 124 124 119 119 116 125 121 119 119 105 90 66 57 53 45 46 53 61 62 59 57 52 48 45 39 34 41 35 32 33 33 32 30 28 27 27 30 33 35 35 38 42
131 125 123 119 118 120 119 119 121 123 125 126 126 125 122 123 128 128 125 131 109 102 81 62 59 57 53 49 52 61 64 65 62 56 54 49 39 35 49 32 35 35 34 32 31 31 28 29 31 34 36 36 37 41
137 135 130 130 123 122 123 124 125 128 128 128 127 130 132 134 132 137 129 98 93 85 71 64 61 60 59 55 56 58 63 68 64 62 57 47 38 48 48 34 37 37 35 33 32 31 29 32 33 35 36 39 38 38
142 141 141 134 133 132 131 130 131 129 132 136 136 136 134 134 132 117 97 86 88 76 67 65 63 63 62 60 61 60 59 63 67 67 61 48 42 54 49 36 44 37 36 34 32 32 32 34 35 37 38 40 40 40
140 141 138 141 139 132 136 139 136 133 137 137 141 137 131 126 112 104 94 88 87 76 65 68 68 68 70 66 65 61 57 58 62 67 64 51 52 57 53 42 46 40 38 36 34 33 34 36 38 39 39 39 40 42
123 124 125 123 129 131 125 129 129 130 130 128 134 134 117 106 95 96 89 84 83 73 71 68 65 66 67 65 64 63 57 52 60 64 64 56 60 62 59 49 48 43 40 37 36 35 36 36 39 40 37 36 39 42
116 114 108 106 115 115 115 116 120 112 116 118 115 109 98 90 87 89 83 79 80 75 76 69 63 68 68 69 65 63 52 50 47 57 63 63 68 68 62 53 50 46 42 40 39 36 37 36 38 38 37 37 38 43
108 106 110 106 110 110 109 109 110 111 104 104 100 97 87 88 85 77 77 77 77 74 75 68 63 66 67 66 65 62 52 45 47 59 68 73 75 70 63 56 52 50 46 43 41 37 37 38 39 39 37 38 41 46
94 97 100 103 101 103 107 110 106 105 105 99 93 84 78 80 75 74 76 76 77 76 74 68 60 64 63 62 62 60 47 49 59 68 75 76 79 74 66 60 53 53 49 47 43 39 38 39 40 41 40 43 46 50
86 83 88 91 93 97 103 107 100 101 98 88 81 82 76 71 74 75 76 74 76 74 70 61 55 62 60 57 58 59 56 59 66 72 79 82 84 77 70 66 58 55 49 48 44 41 38 41 43 43 44 48 50 53
79 79 80 84 87 93 97 94 93 90 81 80 78 77 71 67 69 73 75 75 72 71 62 55 57 57 59 56 56 60 58 59 66 76 87 89 85 80 72 71 62 56 50 50 47 45 42 41 44 46 47 51 51 53
72 72 74 78 84 84 83 86 85 81 76 70 68 67 67 68 68 71 71 70 66 65 60 57 55 51 54 58 59 60 59 59 67 78 86 89 86 81 75 71 65 57 53 52 51 48 43 40 42 44 47 52 55 59
67 72 75 78 81 84 85 81 79 76 73 67 64 66 68 67 67 66 64 64 64 58 55 53 53 55 56 60 60 60 59 62 69 80 87 92 90 83 79 70 66 60 56 53 51 49 46 44 45 48 53 55 57 61
67 70 73 75 78 78 74 70 68 68 66 64 64 67 64 63 62 63 62 59 54 53 51 54 57 58 59 57 58 56 59 61 73 81 90 95 92 83 78 73 69 64 59 54 51 49 48 46 48 51 53 56 60 65
62 65 66 68 70 69 66 64 62 60 60 59 63 62 59 58 59 58 54 47 49 53 53 56 57 58 56 55 52 56 60 65 74 80 87 91 89 84 78 72 70 68 59 53 52 50 49 49 51 54 54 59 63 65
60 62 64 67 65 62 58 56 54 53 54 57 59 58 57 58 55 48 43 46 50 55 55 53 53 53 53 49 49 57 60 67 74 79 86 90 87 83 77 72 70 65 58 56 53 51 50 52 55 58 60 62 64 66
60 61 60 57 53 52 50 48 48 52 58 59 60 60 54 50 46 43 43 49 50 46 48 49 49 53 55 55 56 62 61 68 71 78 86 89 89 83 76 72 67 64 60 56 54 51 52 56 61 64 64 65 65 67
54 52 46 42 41 41 43 48 53 59 57 57 58 52 48 44 41 42 46 43 42 44 45 46 48 51 54 58 64 66 69 74 76 81 84 85 86 79 73 70 65 62 59 55 53 54 58 61 63 64 65 65 66 69
42 38 37 37 41 45 48 53 55 55 53 53 52 46 40 38 39 43 40 37 38 38 41 43 47 49 51 57 66 71 75 77 77 79 81 82 82 75 71 67 63 62 60 57 58 60 62 63 65 67 66 64 67 72
32 34 38 41 45 51 54 53 52 47 46 47 46 40 37 38 40 38 36 34 34 35 37 42 49 51 55 63 70 76 80 79 77 76 79 81 77 72 69 65 65 63 61 61 61 62 65 67 68 68 65 67 72 75
35 40 43 47 50 52 50 46 43 41 42 44 42 38 37 38 34 35 34 33 36 36 37 40 45 51 55 61 68 73 77 77 75 76 78 75 72 71 70 66 63 63 64 64 64 65 67 67 66 66 65 71 74 76
40 41 44 48 50 43 41 39 40 43 43 40 40 39 37 35 32 35 37 37 38 38 37 39 43 47 53 61 67 71 74 75 75 76 76 73 71 69 67 65 66 66 66 65 65 65 65 64 65 66 71 72 73 75
41 42 42 46 45 38 38 40 40 38 38 39 38 36 37 35 34 38 38 42 41 40 40 43 47 52 58 63 70 73 74 76 75 75 71 68 67 66 67 67 68 67 66 64 64 64 66 66 67 70 71 72 73 76
41 39 40 40 38 37 36 36 36 37 38 38 37 38 39 37 37 41 45 46 44 45 47 51 56 62 66 69 73 75 76 75 73 70 68 67 67 67 67 67 67 66 66 66 66 67 66 68 72 72 72 74 76 77
35 35 38 37 34 33 35 35 36 39 38 39 40 41 41 40 42 46 48 49 50 51 55 62 66 69 71 72 70 71 73 73 72 69 68 67 67 67 67 67 68 68 67 68 71 70 72 72 71 72 73 74 75 74
34 35 34 33 34 35 37 38 38 35 35 37 38 40 41 42 46 50 51 53 55 58 62 67 70 71 73 72 70 70 71 72 72 70 69 69 69 69 69 68 68 69 70 69 70 70 70 71 71 71 73 72 71 75